[[{"header":{"parameterUnit":"m.s-1","parameterCategory":1,"la1":30.6,"la2":28.766,"lo1":-90.7593,"lo2":-88.6598,"dx":0.0162,"dy":0.0183,"nx":116,"ny":114,"refTime":"2023-01-21T18:00:00:Z","depth":0,"parameterNumber":2,"parameterNumberName":"U-component_of_WINDS"},"data":[0.0,0.0,0.0,0.0,0.0,0.0,0.0,0.0,0.0,0.0,0.0,0.0,0.0,0.0,0.0,0.0,0.0,0.0,0.0,0.0,0.0,0.0,0.0,0.0,0.0,0.0,0.0,0.0,0.0,0.0,0.0,0.0,0.0,0.0,0.0,0.0,0.0,0.0,0.0,0.0,0.0,0.0,0.0,0.0,0.0,0.0,0.0,0.0,0.0,0.0,0.0,0.0,0.0,0.0,0.0,0.0,0.0,0.0,0.0,0.0,0.0,0.0,0.0,0.0,0.0,0.0,0.0,0.0,0.0,0.0,0.0,0.0,0.0,0.0,0.0,0.0,0.0,0.0,0.0,0.0,0.0,0.0,0.0,0.0,0.0,0.0,0.0,0.0,0.0,0.0,0.0,0.0,0.0,0.0,0.0,0.0,0.0,0.0,0.0,0.0,0.0,0.0,0.0,0.0,0.0,0.0,0.0,0.0,0.0,0.0,0.0,0.0,0.0,0.0,0.0,0.0,0.0,0.0,0.0,0.0,0.0,0.0,0.0,0.0,0.0,0.0,0.0,0.0,0.0,0.0,0.0,0.0,0.0,0.0,0.0,0.0,0.0,0.0,0.0,0.0,0.0,0.0,0.0,0.0,0.0,0.0,0.0,0.0,0.0,0.0,0.0,0.0,0.0,0.0,0.0,0.0,0.0,0.0,0.0,0.0,0.0,0.0,0.0,0.0,0.0,0.0,0.0,0.0,0.0,0.0,0.0,0.0,0.0,0.0,0.0,0.0,0.0,0.0,0.0,0.0,0.0,0.0,0.0,0.0,0.0,0.0,0.0,0.0,0.0,0.0,0.0,0.0,0.0,0.0,0.0,0.0,0.0,0.0,0.0,0.0,0.0,0.0,0.0,0.0,0.0,0.0,0.0,0.0,0.0,0.0,0.0,0.0,0.0,0.0,0.0,0.0,0.0,0.0,0.0,0.0,0.0,0.0,0.0,0.0,0.0,0.0,0.0,0.0,0.0,0.0,0.0,0.0,0.0,0.0,0.0,0.0,0.0,0.0,0.0,0.0,0.0,0.0,0.0,0.0,0.0,0.0,0.0,0.0,0.0,0.0,0.0,0.0,0.0,0.0,0.0,0.0,0.0,0.0,0.0,0.0,0.0,0.0,0.0,0.0,0.0,0.0,0.0,0.0,0.0,0.0,0.0,0.0,0.0,0.0,0.0,0.0,0.0,0.0,0.0,0.0,0.0,0.0,0.0,0.0,0.0,0.0,0.0,0.0,0.0,0.0,0.0,0.0,0.0,0.0,0.0,0.0,0.0,0.0,0.0,0.0,0.0,0.0,0.0,0.0,0.0,0.0,0.0,0.0,0.0,0.0,0.0,0.0,0.0,0.0,0.0,0.0,0.0,0.0,0.0,0.0,0.0,0.0,0.0,0.0,0.0,0.0,0.0,0.0,0.0,0.0,0.0,0.0,0.0,0.0,0.0,0.0,0.0,0.0,0.0,0.0,0.0,0.0,0.0,0.0,0.0,0.0,0.0,0.0,0.0,0.0,0.0,0.0,0.0,0.0,0.0,0.0,0.0,0.0,0.0,0.0,0.0,0.0,0.0,0.0,0.0,0.0,0.0,0.0,0.0,0.0,0.0,0.0,0.0,0.0,0.0,0.0,0.0,0.0,0.0,0.0,0.0,0.0,0.0,0.0,0.0,0.0,0.0,0.0,0.0,0.0,0.0,0.0,0.0,0.0,0.0,0.0,0.0,0.0,0.0,0.0,0.0,0.0,0.0,0.0,0.0,0.0,0.0,0.0,0.0,0.0,0.0,0.0,0.0,0.0,0.0,0.0,0.0,0.0,0.0,0.0,0.0,0.0,0.0,0.0,0.0,0.0,0.0,0.0,0.0,0.0,0.0,0.0,0.0,0.0,0.0,0.0,0.0,0.0,0.0,0.0,0.0,0.0,0.0,0.0,0.0,0.0,0.0,0.0,0.0,0.0,0.0,0.0,0.0,0.0,0.0,0.0,0.0,0.0,0.0,0.0,0.0,0.0,0.0,0.0,0.0,0.0,0.0,0.0,0.0,0.0,0.0,0.0,0.0,0.0,0.0,0.0,0.0,0.0,0.0,0.0,0.0,0.0,0.0,0.0,0.0,0.0,0.0,0.0,0.0,0.0,0.0,0.0,0.0,0.0,0.0,0.0,0.0,0.0,0.0,0.0,0.0,0.0,0.0,0.0,0.0,0.0,0.0,0.0,0.0,0.0,0.0,0.0,0.0,0.0,0.0,0.0,0.0,0.0,0.0,0.0,0.0,0.0,0.0,0.0,0.0,0.0,0.0,0.0,0.0,0.0,0.0,0.0,0.0,0.0,0.0,0.0,0.0,0.0,0.0,0.0,0.0,0.0,0.0,0.0,0.0,0.0,0.0,0.0,0.0,0.0,0.0,0.0,0.0,0.0,0.0,0.0,0.0,0.0,0.0,0.0,0.0,0.0,0.0,0.0,0.0,0.0,0.0,0.0,0.0,0.0,0.0,0.0,0.0,0.0,0.0,0.0,0.0,0.0,0.0,0.0,0.0,0.0,0.0,0.0,0.0,0.0,0.0,0.0,0.0,0.0,0.0,0.0,0.0,0.0,0.0,0.0,0.0,0.0,0.0,0.0,0.0,0.0,0.0,0.0,0.0,0.0,0.0,0.0,0.0,0.0,0.0,0.0,0.0,0.0,0.0,0.0,0.0,0.0,0.0,0.0,0.0,0.0,0.0,0.0,0.0,0.0,0.0,0.0,0.0,0.0,0.0,0.0,0.0,0.0,0.0,0.0,0.0,0.0,0.0,0.0,0.0,0.0,0.0,0.0,0.0,0.0,0.0,0.0,0.0,0.0,0.0,0.0,0.0,0.0,0.0,0.0,0.0,0.0,0.0,0.0,0.0,0.0,0.0,0.0,0.0,0.0,0.0,0.0,0.0,0.0,0.0,0.0,0.0,0.0,0.0,0.0,0.0,0.0,0.0,0.0,0.0,0.0,0.0,0.0,0.0,0.0,0.0,0.0,0.0,0.0,0.0,0.0,0.0,0.0,0.0,0.0,0.0,0.0,0.0,0.0,0.0,0.0,0.0,0.0,0.0,0.0,0.0,0.0,0.0,0.0,0.0,0.0,0.0,0.0,0.0,0.0,0.0,0.0,0.0,0.0,0.0,0.0,0.0,0.0,0.0,0.0,0.0,0.0,0.0,0.0,0.0,0.0,0.0,0.0,0.0,0.0,0.0,0.0,0.0,0.0,0.0,0.0,0.0,0.0,0.0,0.0,0.0,0.0,0.0,0.0,0.0,0.0,0.0,0.0,0.0,0.0,0.0,0.0,0.0,0.0,0.0,0.0,0.0,0.0,0.0,0.0,0.0,0.0,0.0,0.0,0.0,0.0,0.0,0.0,0.0,0.0,0.0,0.0,0.0,0.0,0.0,0.0,0.0,0.0,0.0,0.0,0.0,0.0,0.0,0.0,0.0,0.0,0.0,0.0,0.0,0.0,0.0,0.0,0.0,0.0,0.0,0.0,0.0,0.0,0.0,0.0,0.0,0.0,0.0,0.0,0.0,0.0,0.0,0.0,0.0,0.0,0.0,0.0,0.0,0.0,0.0,0.0,0.0,0.0,0.0,0.0,0.0,0.0,0.0,0.0,0.0,0.0,0.0,0.0,0.0,0.0,0.0,0.0,0.0,0.0,0.0,0.0,0.0,0.0,0.0,0.0,0.0,0.0,0.0,0.0,0.0,0.0,0.0,0.0,0.0,0.0,0.0,0.0,0.0,0.0,0.0,0.0,0.0,0.0,0.0,0.0,0.0,0.0,0.0,0.0,0.0,0.0,0.0,0.0,0.0,0.0,0.0,0.0,0.0,0.0,0.0,0.0,0.0,0.0,0.0,0.0,0.0,0.0,0.0,0.0,0.0,0.0,0.0,0.0,0.0,0.0,0.0,0.0,0.0,0.0,0.0,0.0,0.0,0.0,0.0,0.0,0.0,0.0,0.0,0.0,0.0,0.0,0.0,0.0,0.0,0.0,0.0,0.0,0.0,0.0,0.0,0.0,0.0,0.0,0.0,0.0,0.0,0.0,0.0,0.0,0.0,0.0,0.0,0.0,0.0,0.0,0.0,0.0,0.0,0.0,0.0,0.0,0.0,0.0,0.0,0.0,0.0,0.0,0.0,0.0,0.0,0.0,0.0,0.0,0.0,0.0,0.0,0.0,0.0,0.0,0.0,0.0,0.0,0.0,0.0,0.0,0.0,0.0,0.0,0.0,0.0,0.0,0.0,0.0,0.0,0.0,0.0,0.0,0.0,0.0,0.0,0.0,0.0,0.0,0.0,0.0,0.0,0.0,0.0,0.0,0.0,0.0,0.0,0.0,0.0,0.0,0.0,0.0,0.0,0.0,0.0,0.0,0.0,0.0,0.0,0.0,0.0,0.0,0.0,0.0,0.0,0.0,0.0,0.0,0.0,0.0,0.0,0.0,0.0,0.0,0.0,0.0,0.0,0.0,0.0,0.0,0.0,0.0,0.0,0.0,0.0,0.0,0.0,0.0,0.0,0.0,0.0,0.0,0.0,0.0,0.0,0.0,0.0,0.0,0.0,0.0,0.0,0.0,0.0,0.0,0.0,0.0,0.0,0.0,0.0,0.0,0.0,0.0,0.0,0.0,0.0,0.0,0.0,0.0,0.0,0.0,0.0,0.0,0.0,0.0,0.0,0.0,0.0,0.0,0.0,0.0,0.0,0.0,0.0,0.0,0.0,0.0,0.0,0.0,0.0,0.0,0.0,0.0,0.0,0.0,0.0,0.0,0.0,0.0,0.0,0.0,0.0,0.0,0.0,0.0,0.0,0.0,0.0,0.0,0.0,0.0,0.0,0.0,0.0,0.0,0.0,0.0,0.0,0.0,0.0,0.0,0.0,0.0,0.0,0.0,0.0,0.0,0.0,0.0,0.0,0.0,0.0,0.0,0.0,0.0,0.0,0.0,0.0,0.0,0.0,0.0,0.0,0.0,0.0,0.0,0.0,0.0,0.0,0.0,0.0,0.0,0.0,0.0,0.0,0.0,0.0,0.0,0.0,0.0,0.0,0.0,0.0,0.0,0.0,0.0,0.0,0.0,0.0,0.0,0.0,0.0,0.0,0.0,0.0,0.0,0.0,0.0,0.0,0.0,0.0,0.0,0.0,0.0,0.0,0.0,0.0,0.0,0.0,0.0,0.0,0.0,0.0,0.0,0.0,0.0,0.0,0.0,0.0,0.0,0.0,0.0,0.0,0.0,0.0,0.0,0.0,0.0,0.0,0.0,0.0,0.0,0.0,0.0,0.0,0.0,0.0,0.0,0.0,0.0,0.0,0.0,0.0,0.0,0.0,0.0,0.0,0.0,0.0,0.0,0.0,0.0,0.0,0.0,0.0,0.0,0.0,0.0,0.0,0.0,0.0,0.0,0.0,0.0,0.0,0.0,0.0,0.0,0.0,0.0,0.0,0.0,0.0,0.0,0.0,0.0,0.0,0.0,0.0,0.0,0.0,0.0,0.0,0.0,0.0,0.0,0.0,0.0,0.0,0.0,0.0,0.0,0.0,0.0,0.0,0.0,0.0,0.0,0.0,0.0,0.0,0.0,0.0,0.0,0.0,0.0,0.0,0.0,0.0,0.0,0.0,0.0,0.0,0.0,0.0,0.0,0.0,0.0,0.0,0.0,0.0,0.0,0.0,0.0,0.0,0.0,0.0,0.0,0.0,0.0,0.0,0.0,0.0,0.0,0.0,0.0,0.0,0.0,0.0,0.0,0.0,0.0,0.0,0.0,0.0,0.0,0.0,0.0,0.0,0.0,0.0,0.0,0.0,0.0,0.0,0.0,0.0,0.0,0.0,0.0,0.0,0.0,0.0,0.0,0.0,0.0,0.0,0.0,0.0,0.0,0.0,0.0,0.0,0.0,0.0,0.0,0.0,0.0,0.0,0.0,0.0,0.0,0.0,0.0,0.0,0.0,0.0,0.0,0.0,0.0,0.0,0.0,0.0,0.0,0.0,0.0,0.0,0.0,0.0,0.0,0.0,0.0,0.0,0.0,0.0,0.0,1.4219,1.144,0.0,0.0,0.0,0.0,0.0,0.0,0.0,0.0,0.0,0.0,0.0,0.0,0.0,0.0,0.0,0.0,0.0,0.0,0.0,0.0,0.0,0.0,0.0,0.0,0.0,0.0,0.0,0.0,0.0,0.0,0.0,0.0,0.0,0.0,0.0,0.0,0.0,0.0,0.0,0.0,0.0,0.0,0.0,0.0,0.0,0.0,0.0,0.0,0.0,0.0,0.0,0.0,0.0,0.0,0.0,0.0,0.0,0.0,0.0,0.0,0.0,0.0,0.0,0.0,0.0,0.0,0.0,0.0,0.0,0.0,0.0,0.0,0.0,0.0,0.0,0.0,0.0,0.0,0.0,0.0,0.0,0.0,0.0,0.0,0.0,0.0,0.0,0.0,0.0,0.0,0.0,0.0,0.0,0.0,0.0,0.0,0.0,0.0,0.0,0.0,0.0,0.0,0.0,0.0,0.0,0.0,0.0,0.0,0.0,0.0,0.0,0.0,0.0,0.0,1.5533,1.2956,0.0,0.0,0.0,0.0,0.0,0.0,0.0,0.0,0.0,0.0,0.0,0.0,0.0,0.0,0.0,0.0,0.0,0.0,0.0,0.0,0.0,0.0,0.0,0.0,0.0,0.0,0.0,0.0,0.0,0.0,0.0,0.0,0.0,0.0,0.0,0.0,0.0,0.0,0.0,0.0,0.0,0.0,0.0,0.0,0.0,0.0,0.0,0.0,0.0,0.0,0.0,0.0,0.0,0.0,0.0,0.0,0.0,0.0,0.0,0.0,0.0,0.0,0.0,0.0,0.0,0.0,0.0,0.0,0.0,0.0,0.0,0.0,0.0,0.0,0.0,0.0,0.0,0.0,0.0,0.0,0.0,0.0,0.0,0.0,0.0,0.0,0.0,0.0,0.0,0.0,0.0,0.0,0.0,0.0,0.0,0.0,0.0,0.0,0.0,0.0,0.0,0.0,0.0,0.0,0.0,0.0,0.0,0.0,2.4489,2.4983,2.5732,2.4158,2.349,2.3442,1.8158,1.6358,1.6897,1.3743,0.0,0.0,0.0,0.0,0.0,0.0,0.0,0.0,0.0,0.0,0.0,0.0,0.0,0.0,0.0,0.0,0.0,0.0,0.0,0.0,0.0,0.0,3.5266,3.5199,3.5046,3.4493,0.0,0.0,0.0,0.0,0.0,0.0,0.0,0.0,0.0,0.0,0.0,0.0,4.208,4.5208,4.5939,4.4559,3.9044,0.0,0.0,0.0,0.0,0.0,0.0,0.0,0.0,0.0,0.0,0.0,0.0,0.0,0.0,0.0,0.0,0.0,0.0,0.0,0.0,0.0,0.0,0.0,0.0,0.0,0.0,0.0,0.0,0.0,0.0,0.0,0.0,0.0,0.0,0.0,0.0,0.0,0.0,0.0,0.0,0.0,0.0,0.0,2.1056,2.1056,0.0,0.0,0.0,0.0,0.0,0.0,0.0,0.0,0.0,0.0,0.0,0.0,0.0,2.4075,2.5424,2.5504,2.5838,2.6413,2.6199,2.6293,2.6653,2.632,2.6347,2.6213,2.3848,0.0,1.9448,1.8259,0.0,0.0,0.0,0.0,0.0,0.0,0.0,0.0,0.0,0.0,0.0,0.0,0.0,0.0,0.0,0.0,0.0,0.0,0.0,0.0,0.0,3.8251,3.8371,3.8683,3.7895,3.6985,0.0,0.0,0.0,0.0,0.0,0.0,0.0,0.0,0.0,0.0,3.9265,4.2249,4.4553,4.7107,4.8455,4.8502,4.5687,4.2692,3.9664,3.7888,0.0,0.0,0.0,0.0,0.0,0.0,0.0,0.0,0.0,0.0,0.0,0.0,0.0,0.0,0.0,0.0,0.0,0.0,0.0,0.0,0.0,0.0,0.0,0.0,0.0,0.0,0.0,0.0,0.0,0.0,0.0,0.0,0.0,0.0,0.0,0.0,0.0,0.0,0.0,2.1563,2.2044,2.1203,2.2071,2.2378,0.0,0.0,0.0,0.0,0.0,0.0,0.0,0.0,0.0,2.477,2.493,2.5464,2.6426,2.6774,2.7321,2.807,2.827,2.8617,2.9058,2.9219,2.9299,2.9299,2.8523,2.7134,2.5264,2.132,1.9406,1.9051,0.0,0.0,0.0,0.0,1.7478,1.7816,0.0,0.0,0.0,0.0,0.0,0.0,0.0,0.0,0.0,0.0,0.0,0.0,4.0475,4.0777,4.1103,4.1505,4.0501,3.9513,3.8799,0.0,0.0,0.0,0.0,0.0,0.0,0.0,0.0,0.0,4.2489,4.4804,4.707,4.9395,5.1046,5.2126,5.2402,4.9499,4.4066,4.1881,3.9519,0.0,0.0,0.0,0.0,0.0,0.0,0.0,0.0,0.0,0.0,0.0,0.0,0.0,0.0,0.0,0.0,0.0,0.0,0.0,0.0,0.0,0.0,0.0,0.0,0.0,0.0,0.0,0.0,0.0,0.0,0.0,0.0,0.0,0.0,0.0,0.0,0.0,0.0,2.2178,2.2739,2.1483,2.2779,2.3273,0.0,0.0,0.0,0.0,0.0,0.0,2.4609,2.4863,2.5491,2.66,2.6787,2.7215,2.7936,2.8457,2.9085,2.9833,3.0341,3.0782,3.1142,3.1423,3.1517,3.145,3.137,3.0929,2.988,2.4639,2.235,2.1907,2.1476,2.117,2.0827,2.0538,2.0647,2.0676,0.0,0.0,0.0,0.0,0.0,0.0,0.0,0.0,0.0,0.0,0.0,3.8887,4.029,4.1455,4.2082,4.2108,4.2108,4.1398,3.9985,3.926,0.0,0.0,0.0,0.0,0.0,0.0,0.0,4.221,4.539,4.8293,5.1039,5.3808,5.5641,5.6746,5.7826,5.509,4.9533,4.7012,4.3727,3.9947,0.0,0.0,0.0,0.0,0.0,0.0,0.0,0.0,0.0,0.0,0.0,0.0,0.0,0.0,0.0,0.0,0.0,0.0,0.0,0.0,0.0,0.0,0.0,0.0,0.0,0.0,0.0,0.0,0.0,0.0,0.0,0.0,0.0,0.0,0.0,0.0,0.0,0.0,0.0,2.2017,2.3741,0.0,0.0,0.0,0.0,2.4863,2.5184,2.5865,2.7028,2.7108,2.7535,2.8444,2.9018,2.986,3.0996,3.1316,3.1637,3.1957,3.2265,3.2278,3.2051,3.2345,3.2332,3.2038,3.177,3.1463,3.1036,2.9322,2.7865,2.6972,2.6505,2.6215,2.5793,2.4038,2.4514,2.5464,0.0,0.0,0.0,0.0,0.0,0.0,0.0,0.0,0.0,3.9465,3.8941,3.8948,4.0789,4.2032,4.2961,4.3689,4.3413,4.2987,4.251,4.1213,0.0,0.0,0.0,0.0,0.0,0.0,4.3023,4.6489,4.8738,5.1209,5.3959,5.3912,5.5456,5.8654,5.7908,5.654,5.4632,5.2134,4.9015,4.5438,4.0998,3.8203,0.0,0.0,0.0,0.0,0.0,0.0,0.0,0.0,0.0,0.0,0.0,0.0,0.0,0.0,0.0,0.0,0.0,0.0,0.0,0.0,0.0,0.0,0.0,0.0,0.0,0.0,0.0,0.0,0.0,0.0,0.0,0.0,0.0,0.0,0.0,0.0,0.0,2.4008,2.5625,0.0,2.5504,2.5705,2.6052,2.6453,2.6934,2.7642,2.8644,2.9232,2.986,3.0555,3.1142,3.1744,3.2345,3.2639,3.2946,3.3253,3.3547,3.3534,3.3253,3.336,3.3133,3.2666,3.2559,3.2238,3.1744,3.1223,3.0314,2.9232,2.8925,2.8631,2.8404,2.7891,2.7892,2.7772,0.0,0.0,0.0,0.0,0.0,0.0,0.0,0.0,0.0,3.8687,3.8287,3.8823,4.1314,4.2936,4.4192,4.5121,4.4869,4.4568,4.4392,4.2811,0.0,0.0,0.0,0.0,0.0,4.3312,4.6365,4.9891,5.1749,5.3783,5.5968,5.4696,5.5987,5.9023,5.7549,5.7452,5.8498,5.6566,5.3433,4.9342,4.5526,4.3166,4.1516,0.0,0.0,0.0,0.0,0.0,0.0,0.0,0.0,0.0,0.0,0.0,0.0,0.0,0.0,0.0,0.0,0.0,0.0,0.0,0.0,0.0,0.0,0.0,0.0,0.0,0.0,0.0,0.0,0.0,0.0,0.0,0.0,0.0,0.0,0.0,2.5665,2.5665,2.7402,2.8323,2.7642,2.7923,2.8283,2.8577,2.9152,2.982,3.0621,3.1303,3.1904,3.2398,3.2893,3.328,3.3574,3.3774,3.3975,3.4189,3.4482,3.4362,3.3895,3.3988,3.3708,3.312,3.3026,3.2706,3.2238,3.2144,3.1583,3.0768,3.0474,3.0181,2.994,3.0034,2.982,2.9309,0.0,0.0,0.0,0.0,0.0,0.0,0.0,0.0,3.4159,3.7109,3.7123,3.8292,4.1888,4.4166,4.5723,4.6326,4.6326,4.6075,4.5547,4.389,0.0,0.0,0.0,0.0,4.3457,4.7084,4.9992,5.2201,5.4386,5.6043,5.7049,5.6732,5.7243,5.8307,5.6868,5.7946,6.0506,6.0181,5.6462,5.1019,5.0736,4.9628,4.7607,0.0,0.0,0.0,0.0,0.0,0.0,0.0,0.0,0.0,0.0,0.0,0.0,0.0,0.0,0.0,0.0,0.0,0.0,0.0,0.0,0.0,0.0,0.0,0.0,0.0,0.0,0.0,0.0,0.0,0.0,0.0,0.0,0.0,2.3394,2.5411,2.6894,2.6934,2.8991,3.0087,2.9245,3.0194,3.0982,3.1289,3.1837,3.2412,3.2986,3.3293,3.3587,3.3908,3.4202,3.4482,3.4776,3.4776,3.4776,3.4776,3.5057,3.475,3.3921,3.4202,3.4002,3.3414,3.3133,3.2853,3.2545,3.2265,3.1971,3.1664,3.1356,3.1062,3.0768,3.0488,3.0381,3.0314,0.0,0.0,0.0,0.0,0.0,0.0,0.0,3.5931,3.5591,3.8172,3.7575,3.8431,4.2413,4.4392,4.62,4.7933,4.6627,4.5824,4.6075,0.0,0.0,0.0,0.0,0.0,4.6539,4.9956,5.2678,5.4486,5.6319,5.8177,5.9904,5.6468,5.6613,5.9347,5.5953,5.5054,5.6217,5.7896,5.6487,5.3421,5.3878,5.2198,4.8824,0.0,0.0,0.0,0.0,0.0,0.0,0.0,0.0,0.0,0.0,0.0,0.0,0.0,0.0,0.0,0.0,0.0,0.0,0.0,0.0,0.0,0.0,0.0,0.0,0.0,0.0,0.0,0.0,0.0,0.0,0.0,0.0,2.4917,2.4917,2.676,2.843,2.9285,3.0715,3.169,3.1877,3.2185,3.2599,3.312,3.3307,3.3561,3.3935,3.4229,3.4429,3.4523,3.4803,3.499,3.5084,3.5084,3.5084,3.5084,3.5151,3.4963,3.4523,3.4603,3.4322,3.3761,3.3895,3.3654,3.316,3.308,3.2759,3.2251,3.1744,3.137,3.1089,3.1022,3.0715,3.0314,0.0,0.0,0.0,0.0,0.0,0.0,0.0,3.5313,3.5039,3.791,3.7512,3.8478,4.2501,4.4493,4.61,4.7606,4.6577,4.5673,4.5271,0.0,0.0,0.0,0.0,4.8033,5.0293,5.2729,5.4988,5.7097,5.8554,6.0161,6.1868,5.8519,5.7757,5.9015,5.5721,5.4569,5.4989,5.7577,5.7872,5.6902,5.8213,5.6959,5.3819,4.9496,4.6846,4.4961,4.139,4.0351,4.041,3.8535,0.0,0.0,0.0,0.0,0.0,0.0,0.0,0.0,0.0,0.0,0.0,0.0,0.0,0.0,0.0,0.0,0.0,0.0,0.0,0.0,0.0,0.0,0.0,0.0,2.5692,2.6987,2.7468,2.8684,2.9953,3.1142,3.2211,3.3026,3.3494,3.3654,3.3921,3.4402,3.4429,3.4509,3.4683,3.4857,3.495,3.495,3.511,3.5191,3.5191,3.5191,3.5191,3.5191,3.5191,3.5044,3.4763,3.4763,3.4509,3.4068,3.4122,3.3868,3.34,3.328,3.2893,3.2332,0.0,0.0,0.0,0.0,3.0755,3.0314,0.0,0.0,0.0,0.0,0.0,0.0,0.0,3.3972,3.3813,3.7038,3.7136,3.8428,4.2438,4.4242,4.5522,4.6326,4.6125,4.5296,0.0,0.0,0.0,4.5773,4.7581,5.0268,5.3909,5.5265,5.7198,5.9784,6.0914,6.2019,6.3124,6.1619,5.9831,5.8005,5.6258,5.5599,5.5999,5.8644,5.9844,6.0225,6.245,6.2066,5.9599,5.5099,5.3404,5.2623,4.5899,4.3047,4.2344,4.125,0.0,0.0,0.0,0.0,0.0,0.0,0.0,0.0,0.0,0.0,0.0,0.0,0.0,0.0,0.0,0.0,0.0,0.0,0.0,0.0,0.0,0.0,0.0,0.0,2.7549,2.9272,3.0488,3.0969,3.157,3.2572,3.3427,3.4068,3.4389,3.4629,3.4897,3.5217,3.5217,3.5191,3.5191,3.5191,0.0,0.0,0.0,3.5191,3.5191,3.5191,3.5191,3.5191,3.5191,3.5057,3.4817,3.4817,3.467,3.4402,3.4148,3.3841,3.3494,3.324,3.2746,3.2144,3.2038,3.1851,3.1543,3.0955,3.0581,3.0314,0.0,0.0,0.0,0.0,0.0,0.0,0.0,3.5657,3.5624,3.7072,3.7276,3.8515,4.1314,4.2735,4.4418,4.6778,4.492,4.3489,0.0,0.0,4.5949,4.8058,5.0996,5.3557,5.5666,5.8102,6.006,6.1517,6.2647,6.3751,6.4806,6.249,6.052,5.8702,5.8781,5.7741,5.5999,5.8997,6.0323,6.0645,6.3382,6.1051,5.5646,5.4156,5.1764,4.8951,4.656,4.623,4.6562,4.3965,4.3848,4.4394,4.2051,0.0,0.0,0.0,0.0,0.0,0.0,0.0,0.0,0.0,0.0,0.0,0.0,0.0,0.0,0.0,0.0,0.0,0.0,0.0,0.0,2.7736,2.9339,3.0862,3.2278,3.3146,3.3627,3.3627,3.3988,3.4442,3.4977,3.487,3.4977,3.5511,3.5324,3.5191,3.5191,3.5191,3.5191,3.5191,3.5191,3.5191,3.5191,3.5191,3.5191,3.5191,3.5191,0.0,3.511,3.511,3.5084,3.503,3.4963,3.4643,3.4135,3.4082,3.3427,3.2385,3.1677,3.1356,3.1236,3.0662,3.0408,3.0314,0.0,0.0,0.0,0.0,0.0,0.0,0.0,3.6232,3.6338,3.7817,3.791,3.8731,4.1014,4.2082,4.3112,4.4518,4.3112,0.0,0.0,4.5547,4.7782,5.1096,5.3632,5.5993,5.8202,6.0161,6.1843,6.3224,6.4078,6.4906,6.571,6.4408,6.2881,6.1025,6.1256,6.0493,5.9108,6.182,6.2745,6.2471,6.4976,6.2593,5.7436,5.7371,5.6301,5.4276,5.0464,4.9336,4.9219,4.7266,4.6758,4.6601,4.4668,4.3183,4.1758,0.0,0.0,0.0,0.0,0.0,0.0,0.0,0.0,0.0,0.0,0.0,0.0,0.0,0.0,3.0792,0.0,0.0,3.2312,3.3649,3.5121,3.6,3.5422,3.6046,3.6089,3.4541,3.4576,3.487,3.5164,3.507,3.5164,3.5591,3.5364,3.5257,3.5404,3.5271,3.5257,3.5404,3.5271,3.5271,3.5418,3.5271,3.5191,3.5191,3.5191,3.5191,3.5191,3.5191,3.5191,3.5177,3.4883,3.4589,3.4269,3.3681,3.308,3.2478,3.173,3.1356,3.1196,3.0902,3.0795,3.0728,0.0,0.0,0.0,0.0,0.0,0.0,0.0,0.0,0.0,3.8517,3.8564,3.9004,4.0696,4.1354,4.1572,4.133,0.0,0.0,0.0,4.6756,4.959,5.3984,5.5892,5.8052,6.0588,6.1843,6.3174,6.463,6.5283,6.5835,6.6287,6.6388,6.5443,6.3563,6.4224,6.3892,6.3035,6.5753,6.656,6.5899,6.7558,6.5691,6.1894,6.1809,6.0926,5.9376,5.428,5.1855,5.0957,5.0254,4.9219,4.8047,4.709,4.6094,4.4726,4.1953,4.1211,0.0,0.0,0.0,0.0,0.0,0.0,0.0,0.0,0.0,3.6958,3.5171,3.5812,3.6731,3.6191,3.7267,3.841,3.9519,4.0962,4.1228,3.9212,3.9049,3.8251,3.6023,3.5531,3.5244,3.5351,3.5311,3.5431,3.5765,3.5485,3.5404,3.5698,3.5391,3.5324,3.5618,3.5351,3.5311,3.5538,3.5311,3.5191,3.5191,3.5191,3.5191,3.5191,3.5191,3.5191,3.5164,3.4576,3.4282,3.4162,3.3133,3.2652,3.2492,3.2024,3.1623,3.1303,3.1183,3.1142,3.1062,0.0,0.0,0.0,0.0,0.0,0.0,0.0,0.0,0.0,3.804,3.8542,3.8968,3.9145,3.9647,3.9402,0.0,0.0,0.0,4.4133,4.748,5.1297,5.5742,5.7976,5.996,6.1768,6.3375,6.453,6.5208,6.6262,6.6815,6.689,6.7392,6.6577,6.4817,6.7587,6.7788,6.6322,6.9806,7.115,7.1136,7.1773,7.0347,6.7508,6.4626,6.0548,5.577,5.4306,5.3008,5.1933,5.1836,5.1191,5.0488,5.0703,4.9687,4.8027,4.6133,0.0,4.1406,3.9883,0.0,0.0,3.6484,3.6523,3.668,0.0,0.0,3.9604,3.7865,3.8919,3.9856,3.8785,3.9345,4.031,4.1264,4.224,4.2924,4.2885,4.1292,4.0077,3.9654,3.6927,3.5404,3.5925,3.5738,3.5805,3.6366,3.5899,3.5712,3.6006,3.5498,3.5324,3.5618,3.5351,3.5204,3.5244,3.5204,3.5191,3.5191,3.5191,3.5191,3.5191,3.5191,3.5191,3.5164,3.4576,3.4175,3.3908,3.348,3.3013,3.2532,3.2478,3.2104,3.1557,3.1036,3.0835,3.0755,0.0,0.0,0.0,0.0,0.0,0.0,0.0,0.0,0.0,0.0,3.8517,3.8994,3.932,3.8773,0.0,0.0,0.0,0.0,4.4367,4.7725,5.1875,5.6972,5.9006,6.0939,6.2948,6.4279,6.5383,6.6262,6.6739,6.7141,6.7467,6.7693,6.7513,6.7086,6.8609,6.9356,6.9436,7.1512,7.2765,7.3177,7.176,6.9793,6.7255,6.3535,5.9138,5.4726,5.3105,5.1699,0.0,5.0,4.9766,4.9844,5.0762,4.9707,4.7949,4.6953,4.4531,0.0,3.998,0.0,0.0,0.0,3.9473,4.0508,4.0937,4.2324,4.3351,4.2652,4.3595,4.4769,4.4665,4.5631,4.6513,0.0,4.7992,4.8271,4.6803,4.5465,4.3583,4.0315,3.8408,3.7279,3.6221,3.5805,3.5872,3.6473,3.6126,3.6019,3.6313,3.5765,3.5578,3.5872,3.5431,3.5271,3.5444,3.5284,3.5191,3.5191,3.5191,3.5191,3.5191,3.5191,3.5004,3.467,3.4429,3.4055,3.3574,3.3106,3.2866,3.2746,3.2238,3.1984,3.1864,3.145,3.1196,3.0982,0.0,0.0,0.0,0.0,0.0,0.0,0.0,0.0,0.0,0.0,0.0,0.0,0.0,0.0,0.0,0.0,0.0,0.0,0.0,4.6792,5.1295,5.6972,5.9382,6.1567,6.3651,6.4881,6.5986,6.6965,6.7141,6.7493,6.802,6.8196,6.8547,6.91,6.9652,7.043,7.1384,7.1683,7.2217,7.2739,7.0198,6.7621,6.4854,6.125,5.7148,5.3066,5.1621,5.0039,4.8476,4.748,4.7207,4.75,4.8789,4.8144,4.6797,4.6348,4.418,4.1562,3.998,0.0,0.0,4.084,4.2383,4.3906,4.4316,4.5625,4.6777,4.6894,4.793,4.9043,4.9785,5.0703,5.1465,5.1894,5.2578,5.2444,5.0346,4.9256,4.6607,4.1421,3.9905,3.8379,3.61,3.5832,3.5965,3.6473,3.6313,3.6313,3.662,3.6072,3.5885,3.6179,3.5618,3.5418,3.5631,3.5338,3.5191,3.5191,3.5191,3.5191,3.5191,3.5191,3.4923,3.4442,3.4362,3.4028,3.3507,3.3,3.2812,3.2799,3.2158,3.1944,3.1944,3.165,3.1356,3.1062,0.0,0.0,0.0,0.0,0.0,0.0,0.0,0.0,0.0,0.0,0.0,0.0,0.0,0.0,0.0,0.0,0.0,0.0,0.0,4.4276,4.9255,5.5265,5.9131,6.1943,6.3651,6.5258,6.6388,6.6965,6.7518,6.8045,6.8597,6.915,6.9677,7.0229,7.0782,7.1359,7.175,7.0204,6.9658,6.9532,6.7369,6.4142,6.0716,5.9042,5.4689,4.9726,5.0098,4.8574,4.6211,0.0,4.3945,4.3476,4.4785,4.5156,0.0,4.459,4.2637,0.0,0.0,0.0,4.1523,4.3183,4.4609,4.5703,4.6133,4.7871,4.9531,4.9961,5.1055,5.209,5.2519,5.2617,5.2793,5.3223,5.3691,5.3984,5.378,5.1388,4.8312,4.4856,4.1202,3.8044,0.0,3.5899,3.6179,3.6473,3.65,3.662,3.6901,3.638,3.6193,3.6473,3.5925,3.5618,3.5631,3.5338,3.5191,3.5191,3.5191,3.5191,3.5191,3.5191,3.503,3.4736,3.4442,3.4148,3.3841,3.3521,3.3053,3.2559,3.2532,3.2171,3.165,3.1343,3.1049,3.0768,0.0,0.0,0.0,0.0,0.0,0.0,0.0,0.0,0.0,0.0,0.0,0.0,0.0,0.0,0.0,0.0,0.0,0.0,0.0,4.1012,4.5667,5.1027,5.445,5.8024,6.1969,6.2051,6.3669,6.6965,6.5851,6.5621,6.6154,6.6688,6.6076,6.4717,6.539,6.5856,6.6112,6.6647,6.6637,6.6139,6.3682,6.1734,5.9879,5.5379,5.1329,4.7891,0.0,4.3086,4.1445,0.0,0.0,0.0,4.1973,0.0,0.0,4.0312,0.0,0.0,0.0,0.0,4.4512,4.5918,4.748,4.8848,4.9551,5.0703,5.1601,5.1465,5.0879,5.0332,5.0176,5.0391,5.084,5.1543,5.2988,5.4141,5.4414,5.3589,5.1463,4.7137,4.5611,0.0,0.0,0.0,3.5565,3.6433,3.65,3.6647,3.6941,3.658,3.6313,3.6219,3.5832,3.5538,3.5351,3.5244,3.5191,3.5191,3.5191,3.5191,3.5191,3.5191,3.5044,3.475,3.4456,3.4148,3.3841,3.3334,3.312,3.3066,3.2478,3.2251,3.2171,3.1476,3.1036,3.0755,0.0,0.0,0.0,0.0,0.0,0.0,0.0,0.0,0.0,0.0,0.0,0.0,0.0,0.0,0.0,0.0,0.0,0.0,0.0,0.0,4.1874,4.6083,4.9156,5.2469,5.5991,5.5946,5.7591,6.1101,6.0405,6.051,6.1413,6.2492,6.1949,6.066,6.1829,6.2346,6.2242,6.2747,6.2304,6.1162,5.8137,5.6116,5.478,4.9842,4.6484,0.0,4.0547,3.8379,3.709,0.0,0.0,0.0,0.0,0.0,0.0,0.0,0.0,0.0,0.0,4.5156,4.7168,4.8594,5.0019,5.123,5.1758,5.2324,5.2539,5.1973,5.0605,4.9394,4.8945,4.8711,4.9023,5.0371,5.1738,5.3066,5.4277,5.4043,5.2435,4.8544,4.7835,4.5214,0.0,0.0,0.0,3.6112,3.6286,3.6433,3.662,3.654,3.6366,3.6086,3.5992,3.5805,3.5511,3.5404,3.5297,3.5191,3.5191,3.5191,3.5191,3.5191,3.5097,3.4897,3.4603,3.4309,3.4002,3.3507,3.3227,3.3053,3.2478,3.2185,3.1998,3.1316,3.0889,3.0608,0.0,0.0,0.0,0.0,0.0,0.0,0.0,0.0,0.0,0.0,0.0,0.0,0.0,0.0,0.0,0.0,0.0,0.0,0.0,0.0,0.0,4.074,4.3864,4.5989,4.6703,4.7716,4.8983,5.0526,5.1666,5.3014,5.4926,5.6513,5.7489,5.7806,5.906,5.9688,5.9569,5.8063,5.6483,5.4569,5.077,4.7949,4.5781,4.2832,4.0391,3.832,3.6601,0.0,0.0,0.0,0.0,0.0,0.0,0.0,0.0,0.0,0.0,4.25,4.5098,4.7363,4.9394,5.1074,5.2129,5.2734,5.2715,5.2695,5.2422,5.1523,5.0234,4.9101,0.0,0.0,4.7461,4.9609,5.0137,5.1152,5.3711,5.3027,5.157,0.0,0.0,0.0,0.0,0.0,0.0,3.5818,3.5912,3.6086,3.6099,3.6366,3.6393,3.6086,3.634,3.634,3.6032,3.5752,3.5471,3.5191,3.5191,3.5191,3.5191,3.5177,3.5177,3.5151,3.4857,3.4563,3.4282,3.3988,3.336,3.2585,3.2559,3.2038,3.1249,3.0929,3.0635,3.0408,0.0,0.0,0.0,0.0,0.0,0.0,0.0,0.0,0.0,0.0,0.0,0.0,0.0,0.0,0.0,0.0,0.0,0.0,0.0,0.0,0.0,0.0,0.0,0.0,0.0,0.0,0.0,0.0,0.0,4.7595,4.8074,4.8923,4.8273,4.6515,4.7188,4.7494,4.7535,4.744,4.6875,4.6156,4.5182,4.4199,4.3183,4.1152,3.9434,3.7871,3.6172,0.0,0.0,0.0,0.0,0.0,0.0,0.0,3.8125,0.0,0.0,4.4297,4.6855,4.9141,5.1035,5.2109,5.2793,5.3105,5.2793,5.2461,5.1816,5.0312,4.7715,4.5273,0.0,0.0,0.0,4.6582,4.9512,0.0,5.4238,5.4765,0.0,5.2935,0.0,4.7489,4.3409,4.0877,0.0,3.6141,3.6032,3.6166,3.638,3.6687,3.6607,3.6086,3.6139,3.5939,3.5431,3.5351,3.5271,3.5191,3.5191,3.5191,3.5191,3.4977,3.487,3.4843,3.4336,3.4068,3.3975,3.3654,3.34,3.3146,3.2719,3.2412,3.2118,3.1383,3.1062,3.0969,0.0,0.0,0.0,0.0,0.0,0.0,0.0,0.0,0.0,0.0,0.0,0.0,0.0,0.0,0.0,0.0,0.0,0.0,0.0,0.0,0.0,0.0,0.0,0.0,0.0,0.0,0.0,0.0,0.0,0.0,4.14,4.2431,4.2312,4.1035,4.168,4.1953,4.1992,4.2422,4.2012,0.0,0.0,3.9941,3.8887,3.7559,3.6601,3.5685,0.0,0.0,0.0,0.0,0.0,3.5879,3.7051,3.8301,3.9805,4.2168,0.0,4.6113,4.8867,5.0781,5.2207,5.3066,5.332,5.3047,5.1875,5.0957,4.9629,4.6953,4.3587,0.0,4.0218,4.0356,0.0,0.0,0.0,0.0,5.3691,5.4336,5.4531,0.0,5.2759,0.0,4.5106,4.2996,4.0197,0.0,3.6072,3.6139,3.6313,3.6473,3.6353,3.5885,3.6006,3.5859,3.5391,3.5391,3.5324,3.5191,3.5191,3.5137,3.5004,3.4963,3.4817,3.4563,3.4362,3.4122,3.3868,3.3694,3.3387,3.3013,3.2812,3.2425,3.1917,3.1557,3.1263,3.1009,0.0,0.0,0.0,0.0,0.0,0.0,0.0,0.0,0.0,0.0,0.0,0.0,0.0,0.0,0.0,0.0,0.0,0.0,0.0,0.0,0.0,0.0,0.0,0.0,0.0,0.0,0.0,0.0,0.0,0.0,0.0,0.0,0.0,0.0,0.0,0.0,0.0,3.9648,3.8945,3.75,3.6816,3.549,3.3921,0.0,0.0,0.0,0.0,0.0,0.0,0.0,3.58,3.666,3.8848,4.0527,4.2168,4.4648,4.6269,4.7891,5.0742,5.209,5.293,5.3808,5.3652,5.2695,5.0508,4.8848,4.6699,4.2871,0.0,3.6812,3.7124,3.6698,3.781,4.1953,0.0,4.7829,5.1639,5.1946,5.2386,5.4092,5.312,5.0352,4.5167,4.4207,4.1728,3.6626,3.6193,3.6153,3.6072,3.6112,3.5979,3.5645,3.5845,3.5832,3.5578,3.5578,3.5444,3.5191,3.5191,3.5057,3.483,3.5004,3.4803,3.4336,3.4509,3.4269,3.3774,3.3801,3.332,3.2572,3.2826,3.2278,3.137,3.1583,3.1343,3.0915,0.0,0.0,0.0,0.0,0.0,0.0,0.0,0.0,0.0,0.0,0.0,0.0,0.0,0.0,0.0,0.0,0.0,0.0,0.0,0.0,0.0,0.0,0.0,0.0,0.0,0.0,0.0,0.0,0.0,0.0,0.0,0.0,0.0,0.0,0.0,0.0,0.0,3.2637,3.25,3.2246,3.2441,3.1569,3.0057,0.0,0.0,0.0,0.0,0.0,0.0,0.0,3.4486,3.8027,4.0566,4.2734,4.4726,4.6582,4.8047,4.9492,5.1445,5.2324,5.293,5.3808,5.3418,5.2168,4.9687,4.7285,0.0,0.0,3.7029,3.3952,3.3211,3.4532,3.5948,3.6585,0.0,0.0,0.0,0.0,4.7073,0.0,0.0,4.366,4.2797,4.0153,0.0,0.0,3.6794,3.658,3.6099,3.6299,3.6179,3.5645,3.5444,3.5324,3.5271,3.5271,3.5244,3.5191,3.5191,3.5177,3.511,3.467,3.4416,3.4295,3.3841,3.3454,3.316,3.34,3.312,3.2545,3.2599,3.2345,3.1931,3.1744,3.1597,3.1517,0.0,0.0,0.0,0.0,0.0,0.0,0.0,0.0,0.0,0.0,0.0,0.0,0.0,0.0,0.0,0.0,0.0,0.0,0.0,0.0,0.0,0.0,0.0,0.0,0.0,0.0,0.0,0.0,0.0,0.0,0.0,0.0,0.0,0.0,0.0,0.0,0.0,0.0,2.9648,2.9568,2.9101,2.8516,0.0,0.0,0.0,0.0,0.0,0.0,0.0,0.0,3.2498,3.5448,3.9459,4.2049,4.4065,4.7024,4.8672,4.9941,5.1894,5.2558,5.2871,5.3516,5.2695,5.082,4.7344,0.0,0.0,0.0,3.3576,3.0821,3.0627,0.0,0.0,0.0,0.0,0.0,0.0,0.0,0.0,0.0,0.0,4.3442,0.0,4.011,3.8305,3.6513,3.6754,3.6754,3.6326,3.6139,3.5859,3.5418,3.5271,3.5191,3.5191,3.5191,3.5191,3.5191,3.5191,3.503,3.4736,3.4616,3.4295,3.3841,3.3708,3.34,3.2986,3.3133,3.2839,3.2332,3.2492,3.2265,3.1877,3.1891,3.1797,3.1664,0.0,0.0,0.0,0.0,0.0,0.0,0.0,0.0,0.0,0.0,0.0,0.0,0.0,0.0,0.0,0.0,0.0,0.0,0.0,0.0,0.0,0.0,0.0,0.0,0.0,0.0,0.0,0.0,0.0,0.0,0.0,0.0,0.0,0.0,0.0,0.0,0.0,0.0,2.892,0.0,0.0,2.6767,0.0,0.0,0.0,0.0,0.0,0.0,0.0,0.0,2.9392,3.0859,3.576,3.9218,4.1994,4.5374,4.7392,4.9165,5.1089,5.2083,5.2676,5.3105,5.1855,4.9433,4.5215,4.2363,0.0,0.0,3.0465,2.7983,2.8412,0.0,0.0,0.0,3.278,0.0,0.0,0.0,0.0,0.0,0.0,0.0,4.0487,4.0197,0.0,3.6315,3.6433,3.658,3.6433,3.5859,3.5431,3.5204,3.5191,3.5191,3.5191,3.5191,3.5191,3.5191,3.5137,3.4857,3.4416,3.4523,3.4189,3.3521,3.3708,3.344,3.2893,3.2959,3.2599,3.2038,3.2332,3.2131,3.1704,3.1931,3.1864,3.1664,0.0,0.0,0.0,0.0,0.0,0.0,0.0,0.0,0.0,0.0,0.0,0.0,0.0,0.0,0.0,0.0,0.0,0.0,0.0,0.0,0.0,0.0,0.0,0.0,0.0,0.0,0.0,0.0,0.0,0.0,0.0,0.0,0.0,0.0,0.0,0.0,0.0,0.0,0.0,0.0,0.0,0.0,0.0,0.0,0.0,0.0,0.0,0.0,0.0,0.0,0.0,2.5138,2.8866,3.4018,3.894,3.9771,0.0,0.0,4.7759,5.0006,5.2246,5.2656,5.1191,4.8613,4.4668,0.0,0.0,3.3672,2.9259,2.6371,2.6603,0.0,0.0,0.0,0.0,3.1091,0.0,0.0,0.0,0.0,0.0,0.0,3.6937,3.6734,3.6342,3.6072,3.5872,3.5859,3.6099,3.5551,3.5231,3.5191,3.5191,3.5191,3.5191,3.5191,3.5191,3.5191,3.4923,3.4776,3.4696,3.4189,3.3921,3.3828,3.3574,3.312,3.2612,3.2866,3.2478,3.1744,3.2024,3.1944,3.1677,3.1704,3.169,3.1664,0.0,0.0,0.0,0.0,0.0,0.0,0.0,0.0,0.0,0.0,0.0,0.0,0.0,0.0,0.0,0.0,0.0,0.0,0.0,0.0,0.0,0.0,0.0,0.0,0.0,0.0,0.0,0.0,0.0,0.0,0.0,0.0,0.0,0.0,0.0,0.0,0.0,0.0,0.0,0.0,0.0,0.0,0.0,0.0,0.0,0.0,0.0,0.0,0.0,0.0,0.0,0.0,2.4386,2.7274,0.0,0.0,3.9642,4.2238,4.4108,4.7095,4.9636,4.9803,4.9129,4.7344,4.3437,0.0,0.0,3.1527,2.836,2.6052,2.4875,2.3887,2.328,2.344,2.441,2.5963,2.8614,0.0,0.0,0.0,0.0,0.0,0.0,0.0,3.6072,3.6072,3.5631,3.5498,3.5792,3.5418,3.5191,3.5191,3.5191,3.5191,3.5191,3.5191,3.5191,3.5191,3.4897,3.467,3.4482,3.4068,3.3788,3.3587,3.3467,3.308,3.2559,3.2679,3.2305,3.1677,3.1797,3.177,3.1664,3.1664,3.1664,3.1664,0.0,0.0,0.0,0.0,0.0,0.0,0.0,0.0,0.0,0.0,0.0,0.0,0.0,0.0,0.0,0.0,0.0,0.0,0.0,0.0,0.0,0.0,0.0,0.0,0.0,0.0,0.0,0.0,0.0,0.0,0.0,0.0,0.0,0.0,0.0,0.0,0.0,0.0,0.0,0.0,0.0,0.0,0.0,0.0,0.0,0.0,0.0,0.0,0.0,0.0,0.0,0.0,0.0,0.0,0.0,0.0,3.5216,3.7826,4.004,4.341,4.6299,4.6529,4.5626,4.4052,0.0,0.0,0.0,2.9297,2.6957,2.5326,2.3867,2.2398,2.1577,2.2084,2.2205,2.3287,2.6279,2.7028,0.0,0.0,0.0,3.3694,0.0,3.5511,3.5912,3.5819,3.5431,3.5284,3.5485,3.5311,3.5191,3.5191,3.5191,3.5191,3.5191,3.5191,3.5191,3.5191,3.4803,3.4523,3.4309,3.3921,3.3627,3.3414,3.332,3.3,3.2532,3.2452,3.2118,3.1664,3.1664,3.1664,3.1664,3.1664,3.1664,3.1664,0.0,0.0,0.0,0.0,0.0,0.0,0.0,0.0,0.0,0.0,0.0,0.0,0.0,0.0,0.0,0.0,0.0,0.0,0.0,0.0,0.0,0.0,0.0,0.0,0.0,0.0,0.0,0.0,0.0,0.0,0.0,0.0,0.0,0.0,0.0,0.0,0.0,0.0,0.0,0.0,0.0,0.0,0.0,0.0,0.0,0.0,0.0,0.0,0.0,0.0,0.0,0.0,0.0,0.0,0.0,0.0,2.9022,3.3533,3.5365,3.8831,4.229,4.2824,4.0801,3.8141,0.0,0.0,2.9443,2.7118,2.503,2.3574,2.3574,2.2215,2.1216,2.151,2.2285,2.3674,2.6052,2.6894,0.0,0.0,0.0,3.1396,3.2866,3.4603,3.5511,3.5231,3.5204,3.5191,3.5204,3.5191,3.5191,3.5191,3.5191,3.5191,3.5191,3.5191,3.5191,3.5191,3.4603,3.4322,3.4295,3.3694,3.3414,3.34,3.3106,3.2812,3.2519,3.2225,3.1931,3.1664,3.1664,3.1664,3.1664,3.1664,3.1664,3.1664,0.0,0.0,0.0,0.0,0.0,0.0,0.0,0.0,0.0,0.0,0.0,0.0,0.0,0.0,0.0,0.0,0.0,0.0,0.0,0.0,0.0,0.0,0.0,0.0,0.0,0.0,0.0,0.0,0.0,0.0,0.0,0.0,0.0,0.0,0.0,0.0,0.0,0.0,0.0,0.0,0.0,0.0,0.0,0.0,0.0,0.0,0.0,0.0,0.0,0.0,0.0,0.0,0.0,0.0,0.0,0.0,0.0,0.0,2.9229,3.2342,3.5399,3.562,3.5635,3.4987,3.2742,0.0,0.0,2.5203,2.4007,2.3142,2.1824,2.1175,2.1109,2.2004,2.2378,2.31,2.4676,0.0,0.0,0.0,3.2024,3.4068,0.0,0.0,3.5511,3.5217,3.5191,3.5191,3.5191,3.5191,3.5191,3.5191,3.5191,3.5191,3.5191,3.5191,3.5097,3.4897,3.4509,3.4215,3.4015,3.3601,3.3307,3.3106,3.3013,3.2692,3.2238,3.2144,3.1931,3.1664,3.1664,3.1664,3.1664,3.1664,3.1664,3.1664,0.0,0.0,0.0,0.0,0.0,0.0,0.0,0.0,0.0,0.0,0.0,0.0,0.0,0.0,0.0,0.0,0.0,0.0,0.0,0.0,0.0,0.0,0.0,0.0,0.0,0.0,0.0,0.0,0.0,0.0,0.0,0.0,0.0,0.0,0.0,0.0,0.0,0.0,0.0,0.0,0.0,0.0,0.0,0.0,0.0,0.0,0.0,0.0,0.0,0.0,0.0,0.0,0.0,0.0,0.0,0.0,0.0,0.0,0.0,2.8137,3.0276,3.0525,3.0604,0.0,0.0,0.0,0.0,2.3214,2.2817,2.2397,2.0997,2.0762,2.1002,2.151,2.1871,2.2512,2.3701,0.0,0.0,0.0,0.0,0.0,0.0,3.5297,3.5511,3.5217,3.5191,3.5191,3.5191,3.5191,3.5151,3.5044,3.503,3.503,3.503,3.4923,3.4776,3.4589,3.4295,3.4055,3.3881,3.3561,3.3253,3.2973,3.2866,3.2545,0.0,3.1864,3.1664,3.1503,3.1503,3.1503,3.1517,3.1623,3.1664,3.1664,0.0,0.0,0.0,0.0,0.0,0.0,0.0,0.0,0.0,0.0,0.0,0.0,0.0,0.0,0.0,0.0,0.0,0.0,0.0,0.0,0.0,0.0,0.0,0.0,0.0,0.0,0.0,0.0,3.1504,3.1738,3.2168,0.0,0.0,0.0,0.0,0.0,0.0,0.0,0.0,0.0,0.0,0.0,0.0,0.0,0.0,0.0,0.0,0.0,0.0,0.0,0.0,0.0,0.0,0.0,0.0,0.0,0.0,0.0,0.0,0.0,0.0,0.0,0.0,0.0,0.0,0.0,0.0,0.0,0.0,2.1376,2.0788,2.0909,2.0949,2.0441,2.1082,2.2044,2.3193,2.4743,0.0,0.0,3.1677,0.0,3.3427,3.4776,3.5511,3.5217,3.5191,3.5191,3.5191,3.5177,3.5044,3.4776,3.4723,3.471,3.4736,3.4456,3.4309,3.4282,3.4015,3.3868,3.3814,3.3507,3.3213,3.2906,3.2625,3.2332,3.1998,3.145,3.1209,3.1196,3.1223,3.1223,3.1263,3.1557,3.1664,3.1664,0.0,0.0,0.0,0.0,0.0,0.0,0.0,0.0,0.0,0.0,0.0,0.0,0.0,0.0,0.0,0.0,0.0,0.0,0.0,0.0,0.0,0.0,0.0,0.0,0.0,0.0,0.0,3.1035,3.1367,3.1738,3.2168,3.2266,0.0,0.0,0.0,0.0,0.0,0.0,0.0,0.0,0.0,0.0,0.0,0.0,0.0,0.0,0.0,0.0,0.0,0.0,0.0,0.0,0.0,0.0,0.0,0.0,0.0,0.0,0.0,0.0,0.0,0.0,0.0,0.0,0.0,0.0,0.0,0.0,0.0,0.0,0.0,2.0909,2.1216,2.1523,2.2124,2.2819,2.3567,0.0,0.0,3.1931,3.3627,3.4456,3.4135,3.503,3.5511,3.5217,3.5191,3.5191,3.5191,3.499,3.483,3.4763,3.4322,3.4202,3.4429,3.4349,3.4202,3.3988,3.3921,3.3641,3.3187,3.312,3.2799,3.2305,3.2238,3.1917,3.1423,3.1289,3.1089,3.0915,3.1142,3.1223,3.1263,3.1557,3.1664,3.1664,0.0,0.0,0.0,0.0,0.0,0.0,0.0,0.0,0.0,0.0,0.0,0.0,0.0,0.0,0.0,0.0,0.0,0.0,0.0,0.0,0.0,0.0,0.0,0.0,0.0,0.0,0.0,0.0,0.0,3.1738,0.0,0.0,0.0,0.0,0.0,0.0,0.0,0.0,0.0,0.0,0.0,0.0,0.0,0.0,0.0,0.0,0.0,0.0,0.0,2.7493,2.6713,2.6611,0.0,0.0,0.0,0.0,0.0,0.0,0.0,0.0,0.0,0.0,0.0,0.0,0.0,0.0,0.0,0.0,0.0,0.0,0.0,0.0,2.1162,2.1349,2.2098,2.334,0.0,0.0,0.0,3.2478,3.3614,3.4269,3.4496,3.495,3.5217,3.5191,3.5191,3.5191,3.5191,3.4923,3.4696,3.4563,3.4122,3.3895,3.3908,3.3774,3.3561,3.3267,3.3267,3.3106,3.2772,3.2639,3.2332,3.1891,3.1757,3.145,3.1022,3.0889,3.0742,3.0621,3.0915,3.1022,3.1076,3.1517,3.1664,3.1664,0.0,0.0,0.0,0.0,0.0,0.0,0.0,0.0,0.0,0.0,0.0,0.0,0.0,0.0,0.0,0.0,0.0,0.0,0.0,0.0,0.0,0.0,0.0,0.0,0.0,0.0,0.0,0.0,0.0,0.0,0.0,0.0,0.0,0.0,0.0,0.0,0.0,0.0,0.0,0.0,0.0,0.0,0.0,0.0,0.0,0.0,0.0,0.0,0.0,2.9734,2.8838,2.7651,2.6645,0.0,0.0,0.0,0.0,0.0,0.0,0.0,0.0,0.0,0.0,0.0,0.0,0.0,0.0,0.0,0.0,0.0,0.0,0.0,0.0,0.0,0.0,0.0,0.0,0.0,3.0301,3.2425,3.3066,3.3668,3.4549,3.475,3.4937,3.5177,3.5191,3.5177,3.5137,3.4857,3.4563,3.4269,3.3921,3.3601,3.328,3.308,3.2839,3.2545,3.2545,3.2492,3.2398,3.2158,3.1851,3.153,3.1263,3.0996,3.0702,3.0461,3.0341,3.0327,3.0608,3.0728,3.0795,3.1343,3.153,3.1543,0.0,0.0,0.0,0.0,0.0,0.0,0.0,0.0,0.0,0.0,0.0,0.0,0.0,0.0,0.0,0.0,0.0,0.0,0.0,0.0,0.0,0.0,0.0,0.0,0.0,0.0,0.0,0.0,0.0,0.0,3.2695,3.2695,3.2519,0.0,0.0,0.0,0.0,0.0,0.0,0.0,0.0,0.0,0.0,0.0,0.0,0.0,0.0,0.0,0.0,2.8011,2.7676,2.7732,2.7552,0.0,0.0,0.0,0.0,0.0,2.1416,2.1844,0.0,0.0,0.0,0.0,0.0,0.0,0.0,0.0,0.0,0.0,0.0,0.0,0.0,0.0,0.0,2.7215,0.0,0.0,3.2051,3.3173,0.0,3.4643,3.4082,3.4696,3.5151,3.5191,3.5191,3.5084,3.4843,3.4549,3.4255,3.3961,3.3414,3.2973,3.2679,3.2879,3.2839,3.2545,3.2545,3.2291,3.1797,3.1757,3.1436,3.0929,3.0875,3.0702,3.0421,3.0381,3.0207,3.0007,3.0314,3.0421,3.0474,3.0808,3.0929,3.0969,0.0,0.0,0.0,0.0,0.0,0.0,0.0,0.0,0.0,0.0,0.0,0.0,0.0,0.0,0.0,0.0,0.0,0.0,0.0,0.0,0.0,0.0,0.0,0.0,0.0,0.0,0.0,0.0,0.0,3.2653,3.4207,3.3962,3.3595,3.3048,0.0,0.0,0.0,0.0,0.0,0.0,0.0,0.0,0.0,0.0,0.0,0.0,0.0,0.0,0.0,0.0,2.8202,2.8314,2.7937,0.0,0.0,0.0,0.0,0.0,2.1524,2.151,0.0,0.0,0.0,0.0,0.0,0.0,0.0,0.0,0.0,0.0,0.0,0.0,0.0,0.0,0.0,2.8898,3.0728,3.1503,3.2198,0.0,3.3814,3.4215,3.4122,3.4482,3.4723,3.4723,3.4723,3.467,3.4536,3.4095,3.3774,3.3627,3.3053,3.2599,3.2305,3.2438,3.2358,3.2064,3.1904,3.169,3.1423,3.1102,3.0808,3.0555,3.0394,3.0247,3.0114,3.0114,3.0034,2.994,3.0247,3.0354,3.0421,3.0862,3.1022,3.1062,0.0,0.0,0.0,0.0,0.0,0.0,0.0,0.0,0.0,0.0,0.0,0.0,0.0,0.0,0.0,0.0,0.0,0.0,0.0,0.0,0.0,0.0,0.0,0.0,0.0,0.0,0.0,3.1157,3.2953,3.4714,3.6445,3.5742,3.491,0.0,0.0,0.0,0.0,0.0,0.0,0.0,0.0,0.0,0.0,0.0,0.0,0.0,0.0,0.0,0.0,0.0,0.0,0.0,0.0,0.0,0.0,2.5294,2.4178,2.334,2.2062,2.1565,2.155,0.0,0.0,0.0,0.0,0.0,0.0,0.0,0.0,0.0,0.0,0.0,0.0,2.7562,2.9179,3.0448,3.1476,3.2627,3.3406,3.352,3.4191,3.449,3.4282,3.4322,3.4322,3.4322,3.4255,3.4189,3.4108,3.3614,3.3293,3.3213,3.2639,3.2265,3.2104,3.1904,3.1717,3.1557,3.133,3.1156,3.1009,3.0568,3.0327,3.0247,3.002,2.9913,2.9913,2.9913,2.9913,2.994,3.0167,3.0261,3.0314,3.0755,3.0969,3.1062,0.0,0.0,0.0,0.0,0.0,0.0,0.0,0.0,0.0,0.0,0.0,0.0,0.0,0.0,0.0,0.0,0.0,0.0,0.0,0.0,0.0,0.0,0.0,0.0,0.0,3.1881,3.3338,3.378,3.7132,3.903,3.9523,3.801,3.6304,3.4358,0.0,0.0,0.0,0.0,0.0,0.0,0.0,0.0,0.0,0.0,0.0,0.0,0.0,0.0,0.0,0.0,0.0,0.0,0.0,0.0,2.7804,2.7944,2.6001,2.3634,2.3821,2.306,2.2205,2.1737,0.0,0.0,0.0,0.0,0.0,0.0,0.0,0.0,0.0,2.8454,2.8304,2.8762,3.0621,3.2412,3.3868,3.6518,3.736,3.5031,3.686,3.7374,3.4541,3.4322,3.4322,3.4322,3.4068,3.3788,3.3494,3.3187,3.2893,3.2612,3.2038,3.1851,3.2104,3.1289,3.1009,3.1263,3.1236,3.0942,3.0421,3.0381,3.0207,2.994,2.9927,2.9913,2.9913,2.9913,2.9913,2.9913,2.994,2.9953,2.9953,2.9993,3.0181,3.0421,0.0,0.0,0.0,0.0,0.0,0.0,0.0,0.0,0.0,0.0,0.0,0.0,0.0,0.0,0.0,0.0,0.0,0.0,0.0,0.0,0.0,0.0,0.0,2.8984,2.9941,3.1237,3.2813,3.4986,3.9522,4.1532,4.1271,3.9721,0.0,0.0,0.0,0.0,0.0,0.0,0.0,0.0,0.0,0.0,0.0,0.0,0.0,0.0,0.0,0.0,0.0,0.0,2.8613,2.8652,2.9355,2.9331,2.888,2.8464,2.7572,2.6382,2.5536,2.5344,2.5359,2.5184,0.0,0.0,0.0,0.0,0.0,0.0,0.0,0.0,0.0,0.0,3.3644,3.3966,3.6344,3.8154,3.8583,4.0263,4.0857,3.9243,4.0325,3.9969,3.6651,3.6221,3.5435,3.3695,3.304,3.2719,3.2599,3.2144,3.1837,3.173,3.133,3.1169,3.1289,3.0955,3.0755,3.0688,3.0688,3.0568,3.0354,3.0167,3.002,2.9913,2.9913,2.9913,2.9913,2.9913,2.9913,2.9913,2.9913,3.0034,3.0194,3.0194,3.0381,3.0635,0.0,0.0,0.0,0.0,0.0,0.0,0.0,0.0,0.0,0.0,0.0,0.0,0.0,0.0,0.0,0.0,0.0,0.0,0.0,0.0,0.0,0.0,0.0,2.8965,2.998,3.0586,3.2727,3.6546,4.1845,4.3893,4.2877,0.0,0.0,0.0,0.0,0.0,0.0,0.0,0.0,0.0,0.0,0.0,0.0,0.0,0.0,0.0,0.0,0.0,0.0,0.0,2.8633,2.8437,2.9297,2.957,2.9502,2.9287,2.8783,2.817,2.7073,2.684,0.0,0.0,0.0,0.0,0.0,0.0,0.0,0.0,3.2237,0.0,0.0,0.0,0.0,0.0,3.9418,4.1062,4.1453,4.2938,4.3421,4.1634,4.1965,4.1013,3.7583,3.6348,3.497,3.3049,3.2291,3.1971,3.1971,3.141,3.1089,3.1089,3.0808,3.0702,3.0795,3.0608,3.0461,3.0354,3.0261,3.0221,3.0207,3.0007,2.9913,2.9913,2.9913,2.9913,2.9913,2.9913,2.9913,2.9913,2.9913,3.0047,3.0221,3.0221,3.0341,3.0515,0.0,0.0,0.0,0.0,0.0,0.0,0.0,0.0,0.0,0.0,0.0,0.0,0.0,0.0,0.0,0.0,0.0,0.0,0.0,0.0,0.0,0.0,0.0,2.9121,2.9551,3.043,3.3437,3.858,4.4232,4.625,4.4593,4.2462,0.0,0.0,0.0,0.0,0.0,0.0,0.0,0.0,0.0,0.0,0.0,0.0,0.0,0.0,0.0,0.0,0.0,0.0,2.8652,2.8457,2.9316,2.957,2.9746,3.0625,2.9766,2.8426,2.8426,2.7331,0.0,0.0,0.0,0.0,0.0,0.0,0.0,0.0,0.0,3.7212,3.5542,3.6575,0.0,3.8083,3.9125,4.0388,4.1834,4.4407,4.4904,4.1398,4.1156,4.0125,3.6561,3.4045,3.2545,3.2532,3.1998,3.1664,3.1664,3.1102,3.0782,3.0782,3.0501,3.0488,3.0782,3.0207,3.006,3.0354,3.006,2.9913,2.9913,2.9913,2.9913,2.9913,2.9913,2.9913,2.9913,2.9913,2.9913,2.9913,2.9913,2.9913,2.9913,2.9913,2.9913,2.9913,0.0,0.0,0.0,0.0,0.0,0.0,0.0,0.0,0.0,0.0,0.0,0.0,0.0,0.0,0.0,0.0,0.0,0.0,0.0,0.0,0.0,0.0,0.0,0.0,0.0,0.0,3.4538,3.8439,4.1638,4.3167,0.0,0.0,0.0,3.9519,0.0,0.0,0.0,0.0,0.0,0.0,0.0,0.0,0.0,0.0,0.0,0.0,0.0,0.0,0.0,0.0,0.0,0.0,2.9844,3.0,3.0117,3.0723,3.0528,3.0157,3.0157,0.0,0.0,0.0,0.0,0.0,0.0,0.0,0.0,0.0,4.0341,4.1383,3.9872,4.2039,0.0,4.3472,4.492,4.6336,4.684,4.6426,4.5604,4.3739,4.2345,4.0125,3.6753,3.5544,3.4198,3.2135,3.1383,3.0955,3.0755,3.0381,3.0181,3.0181,3.0087,3.0087,3.0181,3.0007,2.9967,3.0047,2.9953,2.9913,2.9913,2.9913,2.9913,2.9913,2.9913,2.9913,2.9913,2.9913,2.9913,2.9913,2.9913,3.0047,3.0207,2.9993,3.0047,3.0194,0.0,0.0,0.0,0.0,0.0,0.0,0.0,0.0,0.0,0.0,0.0,0.0,0.0,0.0,0.0,0.0,0.0,0.0,0.0,0.0,0.0,0.0,0.0,0.0,0.0,3.1478,3.3845,0.0,0.0,0.0,0.0,0.0,0.0,3.98,0.0,3.8547,0.0,0.0,0.0,0.0,0.0,0.0,0.0,0.0,0.0,0.0,0.0,0.0,0.0,0.0,0.0,0.0,3.0059,3.0332,3.0566,3.1016,3.1016,3.0976,3.1309,0.0,0.0,0.0,0.0,0.0,0.0,0.0,0.0,0.0,0.0,4.3433,4.2549,4.4612,0.0,4.5135,4.6,4.6483,4.5685,4.4786,4.3677,4.2522,4.0353,3.8135,3.578,3.4622,3.3514,3.2785,3.2323,3.2308,3.3188,3.2866,3.2174,3.1301,3.1301,3.0781,2.9913,2.9913,2.9913,2.9913,2.9913,2.9913,2.9913,2.9913,2.9913,2.9913,2.9913,2.9913,2.9913,2.9913,2.9913,2.9913,2.9913,3.002,3.0167,2.998,3.0034,3.0154,0.0,0.0,0.0,0.0,0.0,0.0,0.0,0.0,0.0,0.0,0.0,0.0,0.0,0.0,0.0,0.0,0.0,0.0,0.0,0.0,0.0,0.0,0.0,0.0,0.0,0.0,0.0,0.0,0.0,0.0,0.0,0.0,3.857,3.9557,0.0,3.7132,0.0,0.0,0.0,0.0,0.0,0.0,0.0,0.0,0.0,0.0,0.0,0.0,0.0,0.0,0.0,0.0,3.0137,3.0586,3.1016,3.1406,3.125,3.1152,0.0,0.0,0.0,0.0,0.0,0.0,0.0,0.0,0.0,0.0,0.0,4.4629,4.4231,4.514,4.5469,4.407,4.3866,4.3033,4.0891,4.0512,3.9928,3.8926,3.6575,3.4855,3.4049,3.2211,3.2028,3.396,3.4217,3.5087,3.7151,3.7012,3.5793,3.338,3.3395,3.2351,2.9913,2.9913,2.9913,2.9913,2.9913,2.9913,2.9913,2.9913,2.9913,2.9913,2.9913,2.9913,2.9913,2.9913,2.9913,2.9913,2.9913,2.9913,2.9913,2.9913,2.9913,2.9913,0.0,0.0,0.0,0.0,0.0,0.0,0.0,0.0,0.0,0.0,0.0,0.0,0.0,0.0,0.0,0.0,0.0,0.0,0.0,0.0,0.0,0.0,0.0,0.0,0.0,0.0,0.0,0.0,0.0,0.0,0.0,0.0,0.0,3.7268,0.0,3.6202,0.0,0.0,0.0,0.0,0.0,0.0,0.0,0.0,0.0,0.0,0.0,0.0,0.0,0.0,0.0,0.0,3.0703,3.1035,3.1406,3.1484,3.1445,3.1641,0.0,0.0,0.0,0.0,0.0,0.0,0.0,0.0,0.0,4.6947,4.7927,4.8838,4.8396,4.8497,4.78,4.491,4.4466,4.3448,4.0778,3.8433,3.6788,3.6298,3.383,3.1902,3.1546,3.2745,3.3539,3.3814,3.5488,3.6736,3.6963,3.688,3.5793,3.338,3.3395,3.2351,2.9913,2.9913,2.9913,2.9913,2.9913,2.9913,2.9913,2.9913,2.9913,2.9913,2.9913,2.9913,2.9913,2.9913,2.9913,2.9913,2.9913,2.9913,2.9913,2.9913,2.9913,2.9913,0.0,0.0,0.0,0.0,0.0,0.0,0.0,0.0,0.0,0.0,0.0,0.0,0.0,0.0,0.0,0.0,0.0,0.0,0.0,0.0,0.0,0.0,0.0,0.0,0.0,0.0,0.0,0.0,0.0,0.0,0.0,0.0,0.0,3.5613,0.0,3.4861,0.0,0.0,0.0,0.0,0.0,0.0,0.0,0.0,0.0,0.0,0.0,0.0,0.0,0.0,0.0,0.0,0.0,0.0,3.1523,3.1523,3.1367,3.1543,0.0,0.0,0.0,0.0,0.0,0.0,0.0,0.0,0.0,4.8613,4.9238,4.9331,4.7723,4.7253,4.5957,4.1879,4.109,3.991,3.7119,3.5149,3.3756,3.3286,3.1895,3.1056,3.1986,3.3188,3.4687,3.6763,3.7977,3.9095,4.0108,4.009,3.8545,3.5114,3.5114,3.338,2.9913,2.9913,2.9913,2.9913,2.9913,2.9913,2.9913,2.9913,2.9913,2.9913,2.9913,2.9913,2.9913,2.9913,2.9913,2.9913,2.9913,2.9913,2.9913,2.9913,2.9913,2.9913,0.0,0.0,0.0,0.0,0.0,0.0,0.0,0.0,0.0,0.0,0.0,0.0,0.0,0.0,0.0,0.0,0.0,0.0,0.0,0.0,0.0,0.0,0.0,0.0,0.0,0.0,0.0,0.0,0.0,0.0,0.0,0.0,0.0,3.4581,0.0,0.0,0.0,0.0,0.0,0.0,0.0,0.0,0.0,0.0,0.0,0.0,0.0,0.0,0.0,0.0,0.0,0.0,0.0,0.0,3.1523,3.1523,3.1269,3.1367,0.0,0.0,0.0,0.0,0.0,0.0,0.0,0.0,4.8769,4.8848,4.8769,4.793,4.5434,4.4535,4.2743,3.7883,3.6848,3.5749,3.2746,3.1851,3.1316,3.0782,3.0461,3.0889,3.2543,3.3219,3.5099,3.9395,4.0072,4.1118,4.301,4.3176,4.095,3.6313,3.614,3.4242,2.9913,2.9913,2.9913,2.9913,2.9913,2.9913,2.9913,2.9913,2.9913,2.9913,2.9913,2.9913,2.9913,2.9913,2.9913,2.9913,2.9913,2.9913,2.9913,2.9913,2.9913,2.9913,0.0,0.0,0.0,0.0,0.0,0.0,0.0,0.0,0.0,0.0,0.0,0.0,0.0,0.0,0.0,0.0,0.0,0.0,0.0,0.0,0.0,0.0,0.0,0.0,0.0,0.0,0.0,0.0,0.0,0.0,0.0,0.0,0.0,0.0,0.0,0.0,0.0,0.0,0.0,0.0,0.0,0.0,0.0,0.0,0.0,0.0,0.0,0.0,0.0,0.0,3.0898,0.0,0.0,0.0,3.1523,3.1523,3.1484,0.0,0.0,0.0,0.0,0.0,0.0,0.0,0.0,0.0,4.8398,0.0,4.7158,4.5434,4.4984,4.2984,4.0181,3.705,3.6351,3.5002,3.184,3.1116,3.0782,3.0461,3.0154,3.0133,3.0272,3.2174,3.4417,3.7003,3.9225,4.0427,4.0764,4.0764,3.8715,3.4082,3.3907,3.2514,2.9913,2.9913,2.9913,2.9913,2.9913,2.9913,2.9913,2.9913,2.9913,2.9913,2.9913,2.9913,2.9913,2.9913,2.9913,2.9913,2.9913,2.9913,2.9913,2.9913,2.9913,2.9913,0.0,0.0,0.0,0.0,0.0,0.0,0.0,0.0,0.0,0.0,0.0,0.0,0.0,0.0,0.0,0.0,0.0,0.0,0.0,0.0,0.0,0.0,0.0,0.0,0.0,0.0,0.0,0.0,0.0,0.0,0.0,3.1348,3.2334,0.0,0.0,0.0,0.0,0.0,0.0,0.0,0.0,0.0,0.0,0.0,0.0,0.0,0.0,0.0,0.0,0.0,3.0898,3.0898,3.0898,0.0,0.0,0.0,0.0,0.0,0.0,0.0,0.0,0.0,0.0,0.0,0.0,0.0,4.7528,4.6385,4.4131,4.2365,4.2795,4.0459,3.7694,3.4895,3.3943,3.3058,3.1692,3.0942,3.0501,3.0381,3.01,3.0437,3.1657,3.2867,3.4432,3.6658,3.769,3.8374,3.8374,3.8374,3.683,3.3556,3.3201,3.2163,2.9913,2.9753,2.9753,2.9913,2.9753,2.9753,2.9913,2.9913,2.9913,2.9913,2.9913,2.9913,2.9913,2.9913,2.9913,2.9913,2.9913,2.9913,2.9913,2.9913,2.9913,2.9913,0.0,0.0,0.0,0.0,0.0,0.0,0.0,0.0,0.0,0.0,0.0,0.0,0.0,0.0,0.0,0.0,0.0,0.0,0.0,0.0,0.0,0.0,0.0,0.0,0.0,0.0,0.0,0.0,0.0,0.0,3.0234,3.1777,3.2539,0.0,3.209,0.0,0.0,0.0,0.0,0.0,0.0,0.0,0.0,0.0,0.0,0.0,0.0,0.0,0.0,0.0,0.0,3.0898,3.0898,3.0898,0.0,0.0,0.0,0.0,0.0,0.0,0.0,0.0,0.0,0.0,0.0,0.0,4.5687,0.0,4.1084,3.9014,3.9736,3.7409,3.5004,3.3043,3.2038,3.1503,3.1356,3.0768,3.0327,3.0261,3.0047,3.0616,3.2351,3.2528,3.338,3.5793,3.5967,3.5967,3.5967,3.5967,3.4893,3.2397,3.2164,3.1303,2.9806,2.9593,2.9553,2.9686,2.9472,2.9526,2.9806,2.9806,2.9847,2.9913,2.9913,2.9913,2.9913,2.9913,2.9913,2.9913,2.9913,2.9913,2.9913,2.9913,2.9913,2.9913,0.0,0.0,0.0,0.0,0.0,0.0,0.0,0.0,0.0,0.0,0.0,0.0,0.0,0.0,0.0,0.0,0.0,0.0,0.0,0.0,0.0,0.0,0.0,0.0,0.0,0.0,0.0,0.0,0.0,0.0,3.0234,3.2363,3.3574,3.3945,3.3105,3.3556,3.471,0.0,0.0,0.0,0.0,0.0,0.0,0.0,0.0,0.0,0.0,0.0,0.0,0.0,0.0,0.0,0.0,3.0898,0.0,0.0,0.0,0.0,0.0,0.0,0.0,0.0,0.0,0.0,0.0,0.0,4.216,4.2709,3.9026,3.5756,3.5786,3.3823,3.2243,3.1784,3.1463,3.1062,3.0501,3.0394,3.0261,2.9967,2.9927,2.9913,3.0093,3.0093,3.1137,3.3395,3.3556,3.3556,3.3556,3.3556,3.2383,2.9866,2.9662,2.9662,2.9499,2.9486,2.9352,2.9085,2.9072,2.9219,2.9499,2.9499,2.9659,2.9913,2.9913,2.9913,2.9913,2.9913,2.9913,2.9913,2.9913,2.9913,2.9913,2.9913,2.9913,2.9913,0.0,0.0,0.0,0.0,0.0,0.0,0.0,0.0,0.0,0.0,0.0,0.0,0.0,2.6309,2.668,2.6953,0.0,0.0,0.0,0.0,0.0,0.0,0.0,0.0,0.0,0.0,0.0,0.0,0.0,2.9941,3.0234,3.1562,3.2441,3.2851,3.2812,3.3178,3.3833,3.2096,0.0,0.0,0.0,0.0,0.0,0.0,0.0,0.0,0.0,0.0,0.0,0.0,0.0,0.0,0.0,0.0,0.0,0.0,0.0,0.0,0.0,0.0,0.0,0.0,0.0,0.0,4.0508,4.1471,4.1729,4.0463,3.9356,3.7656,3.4894,3.2845,3.1503,3.1396,3.0982,3.0595,3.0394,3.0194,3.0034,2.9927,2.9913,2.9913,2.9913,2.9913,3.0258,3.1137,3.1137,3.1137,3.1137,3.0956,3.045,2.9486,2.9112,2.8925,2.8925,2.8925,2.9058,2.9325,2.8938,2.9112,2.9753,2.9366,2.9459,2.99,2.9713,2.974,2.9913,2.9913,2.9913,2.9913,2.9913,2.9913,2.9913,2.9913,2.9913,2.9913,0.0,0.0,0.0,0.0,0.0,0.0,0.0,0.0,0.0,0.0,0.0,0.0,0.0,0.0,2.8551,2.9024,2.8938,0.0,0.0,0.0,0.0,0.0,0.0,0.0,0.0,0.0,0.0,0.0,0.0,0.0,0.0,0.0,3.1836,3.2383,3.2519,3.2891,0.0,0.0,0.0,3.1445,0.0,0.0,3.0859,0.0,0.0,0.0,0.0,0.0,0.0,0.0,0.0,0.0,0.0,0.0,0.0,0.0,0.0,0.0,0.0,0.0,0.0,0.0,0.0,0.0,3.7871,0.0,3.9418,3.8202,3.8194,3.7267,3.3983,3.2584,3.1716,3.1101,3.0608,3.0327,3.0221,3.0047,2.9913,2.9913,2.9913,2.9913,2.9913,2.9913,2.9913,2.9913,2.982,2.9766,2.9766,2.9486,2.9285,2.9192,2.8818,2.8564,2.8457,2.8551,2.8751,2.9032,2.8631,2.8818,2.9459,2.9165,2.9312,2.9766,2.9673,2.974,2.9913,2.9913,2.9913,2.9913,2.9913,2.9913,2.9913,2.9913,2.9913,2.9913,0.0,0.0,0.0,0.0,0.0,0.0,0.0,0.0,0.0,2.8166,0.0,0.0,0.0,0.0,0.0,3.1636,3.0608,2.9821,2.9779,2.8508,0.0,0.0,0.0,0.0,0.0,0.0,0.0,0.0,0.0,0.0,0.0,0.0,3.1934,0.0,3.2324,3.2598,3.334,0.0,3.3125,3.2598,0.0,3.0137,3.0937,0.0,0.0,0.0,3.3125,3.291,0.0,3.1738,0.0,0.0,0.0,0.0,0.0,0.0,0.0,0.0,0.0,0.0,0.0,0.0,0.0,0.0,3.5527,0.0,3.4895,3.6075,3.5652,3.4532,3.3067,3.3126,3.2778,3.0637,3.0341,3.0247,2.9953,2.9913,2.9913,2.9913,2.9913,2.99,2.9913,2.99,2.99,2.99,2.9633,2.9472,2.9472,2.9192,2.8898,2.8604,2.8591,2.8444,2.815,2.8444,2.8444,2.8163,2.815,2.831,2.8631,2.8898,2.9179,2.9486,2.9766,2.99,2.99,2.9913,2.9913,2.9913,2.9913,2.9913,2.9913,2.9913,2.9913,2.9913,0.0,0.0,0.0,0.0,0.0,0.0,0.0,0.0,0.0,0.0,0.0,0.0,3.0194,3.0955,3.1612,3.1741,3.0504,2.9951,3.0643,3.0639,3.0979,3.1745,3.1487,0.0,0.0,0.0,0.0,0.0,0.0,0.0,0.0,0.0,0.0,0.0,3.1758,3.166,3.1601,3.1601,0.0,0.0,3.0644,3.0918,0.0,0.0,0.0,0.0,0.0,3.3672,3.3926,0.0,3.2793,3.1914,0.0,0.0,0.0,0.0,0.0,0.0,3.0898,0.0,0.0,0.0,0.0,0.0,3.3125,0.0,3.5363,3.6456,3.7425,3.7258,3.4441,3.4439,3.3784,3.0369,2.99,3.0007,2.9927,2.9913,2.9913,2.9913,2.9726,2.9686,2.99,2.9539,2.9379,2.9593,2.9325,2.9165,2.9165,2.8885,2.8591,2.8283,2.827,2.823,2.8136,2.823,2.8337,2.847,2.8243,2.8417,2.8911,2.8551,2.8671,2.9165,2.9245,2.9406,2.9619,2.9833,2.9913,2.9913,2.9913,2.9913,2.9913,2.9913,2.9913,2.9913,0.0,0.0,0.0,0.0,0.0,0.0,0.0,0.0,0.0,0.0,0.0,0.0,3.2788,3.3967,3.4456,3.3515,3.2922,3.2728,3.3093,3.2915,3.2937,3.3569,3.3525,3.3149,0.0,0.0,0.0,0.0,0.0,0.0,0.0,3.0078,0.0,0.0,0.0,0.0,0.0,0.0,0.0,0.0,3.0723,0.0,0.0,3.2441,3.3164,0.0,0.0,0.0,3.5215,3.4961,3.4062,0.0,0.0,0.0,0.0,0.0,0.0,0.0,0.0,0.0,0.0,0.0,0.0,0.0,3.1641,3.2891,3.4238,3.4922,3.6426,3.6708,3.3764,3.3803,3.3195,2.9508,2.9179,2.9499,2.986,2.9806,2.974,2.974,2.9472,2.9366,2.9539,2.9245,2.9112,2.9285,2.9018,2.8804,2.8671,2.8511,2.8323,2.815,2.8136,2.8136,2.8136,2.8136,2.823,2.8417,2.823,2.8323,2.8657,2.843,2.8591,2.9045,2.9165,2.9392,2.9673,2.9847,2.9913,2.9913,2.9913,2.9913,2.9913,2.9913,2.9913,2.9913,0.0,0.0,0.0,0.0,0.0,0.0,0.0,0.0,0.0,0.0,3.5353,3.6283,3.5907,3.7657,3.8009,3.6145,3.6398,3.6469,3.62,3.5017,3.4366,3.4366,3.5535,3.5409,3.3877,3.29,0.0,0.0,2.9479,2.9082,3.0195,3.0254,3.0488,3.0898,0.0,0.0,0.0,0.0,0.0,3.0254,3.0859,3.2148,0.0,0.0,3.5098,3.6348,3.7207,3.7051,3.6445,3.6348,3.5156,0.0,0.0,0.0,0.0,0.0,3.0898,0.0,0.0,0.0,0.0,0.0,3.125,0.0,3.0918,3.1543,3.2285,3.2715,3.4101,3.4444,3.2002,3.2123,3.1543,2.8592,2.8292,2.8751,2.9726,2.9619,2.9446,2.9486,2.9192,2.9005,2.9032,2.8978,2.8938,2.8938,2.8671,2.839,2.811,2.8123,2.811,2.8043,2.811,2.8123,2.8096,2.8123,2.8136,2.8136,2.8136,2.8136,2.815,2.843,2.8698,2.8951,2.9285,2.9579,2.982,2.9887,2.9913,2.9913,2.9913,2.9913,2.9913,2.9913,2.9913,2.9913,0.0,0.0,0.0,0.0,0.0,0.0,0.0,0.0,0.0,0.0,3.5949,3.6723,3.6606,3.7316,3.7604,3.7168,3.6171,3.6087,3.7168,3.6932,3.6826,3.6826,3.7062,3.5764,3.2788,3.2487,3.1662,2.9996,2.9839,2.9961,3.0195,3.0586,3.0801,3.0879,0.0,0.0,0.0,0.0,0.0,3.0332,3.1816,0.0,3.5527,3.5605,3.6445,3.7656,3.8516,3.8965,3.9023,3.832,3.6934,3.5195,3.3359,3.2441,0.0,3.1113,0.0,0.0,0.0,0.0,0.0,3.1074,3.1465,0.0,3.1055,3.1543,3.2285,3.2715,3.3613,3.3726,3.1903,3.1321,3.0239,2.7522,2.712,2.7736,2.9339,2.9312,2.9219,2.9459,2.9018,2.8778,2.9018,2.8604,2.8323,2.8323,2.8043,2.7843,2.7789,2.8016,2.7923,2.7455,2.7896,2.803,2.7789,2.803,2.8136,2.8136,2.8136,2.8136,2.815,2.8203,2.827,2.835,2.8885,2.9152,2.9245,2.9726,2.9913,2.9913,2.9913,2.9913,2.9913,2.9913,2.9913,2.9913,0.0,0.0,0.0,0.0,0.0,0.0,0.0,0.0,0.0,0.0,3.7608,3.8056,3.7642,3.8355,3.864,3.7607,3.7477,3.782,3.8582,3.8582,3.8582,3.8582,3.8582,3.7781,3.6117,3.4336,3.3136,3.2385,3.097,3.0312,3.0547,3.0781,3.0664,3.0234,0.0,0.0,0.0,0.0,3.0664,3.0996,3.25,0.0,3.5801,3.6641,3.7773,3.8984,3.9629,4.0293,4.0508,3.8359,3.7773,3.7461,3.4629,3.3906,3.3828,3.2539,3.1992,3.1699,3.1055,3.1055,3.1211,3.1211,3.1367,0.0,0.0,3.123,3.1523,3.1504,3.2031,3.2037,3.0681,3.0362,2.9489,2.6937,2.68,2.7056,2.7499,2.8003,2.843,2.8577,2.8203,2.7989,2.8136,2.7883,2.7709,2.7709,2.7562,2.7482,2.7482,2.7629,2.7575,2.7281,2.7549,2.7696,2.7696,2.7696,2.7856,2.8136,2.7989,2.8003,2.8136,2.8136,2.823,2.839,2.8698,2.8911,2.9072,2.9513,2.97,2.9713,2.986,2.9913,2.9913,2.9913,2.9913,2.9913,0.0,0.0,0.0,0.0,0.0,0.0,0.0,0.0,0.0,0.0,0.0,0.0,0.0,0.0,0.0,0.0,3.9445,3.9923,4.045,0.0,0.0,3.9084,3.9519,3.9415,3.8644,3.6047,3.4776,3.4847,3.1819,3.0527,3.0898,3.0898,3.0508,0.0,0.0,0.0,0.0,0.0,0.0,3.1523,0.0,3.4238,3.5449,3.7246,3.8691,3.9863,4.0625,4.1289,4.1387,3.8691,3.8711,3.9336,3.6074,3.5605,3.5957,3.4375,3.3633,3.3047,3.1934,3.168,3.1758,3.1758,3.1641,3.1387,0.0,0.0,0.0,3.043,3.0625,3.0584,2.9654,2.9457,2.8818,2.6682,2.6861,2.6746,2.5926,2.6649,2.7378,2.7402,2.7134,2.6947,2.7001,2.6867,2.6827,2.7001,2.6961,2.6947,2.7014,2.7175,2.7215,2.7108,2.7201,2.7375,2.7615,2.7375,2.7535,2.8056,2.7762,2.7776,2.8056,2.8056,2.823,2.8524,2.8577,2.8738,2.8978,2.9272,2.9432,2.9513,2.9806,2.9913,2.9913,2.9913,2.9913,2.9913,3.4545,3.3712,0.0,0.0,0.0,0.0,0.0,0.0,0.0,0.0,0.0,0.0,0.0,0.0,0.0,0.0,0.0,0.0,4.3162,0.0,0.0,3.71,3.8778,3.8258,3.5046,3.5106,3.4582,3.3304,3.1612,3.084,3.0898,3.0898,3.084,0.0,3.041,0.0,0.0,0.0,3.0918,0.0,3.3184,3.4316,0.0,3.7129,3.8496,3.9531,4.1504,4.2031,4.1797,4.1777,4.0937,3.9746,3.8887,3.7949,3.6973,3.5996,3.543,3.498,3.4414,3.457,3.4531,3.3027,3.3184,3.3223,3.1328,0.0,3.1328,3.0898,0.0,3.0781,3.0238,0.0,0.0,2.7164,2.7202,2.7066,2.6679,2.6405,2.6353,2.6504,2.6052,2.5812,2.6079,2.5398,2.5264,2.6052,2.5865,2.5825,2.6092,2.6841,2.7028,2.6507,2.7001,2.7281,2.7321,2.7281,2.7428,2.7749,2.7455,2.7468,2.7749,2.7749,2.7909,2.8217,2.8484,2.8631,2.8684,2.8965,2.9245,2.9513,2.9806,2.9913,2.9913,2.9913,2.9913,2.9913,3.5303,3.4576,0.0,0.0,0.0,0.0,0.0,0.0,0.0,0.0,0.0,0.0,0.0,0.0,0.0,0.0,0.0,4.2785,0.0,0.0,0.0,0.0,3.9411,3.903,3.7484,3.6932,3.6271,3.5595,3.3304,3.2207,3.2207,3.1325,3.0625,0.0,3.0176,0.0,3.0527,0.0,3.1543,0.0,0.0,3.4316,0.0,3.7109,3.8769,4.0156,4.1562,4.1953,4.1758,4.1426,4.1348,4.1211,4.0273,3.9609,3.8945,3.7832,3.668,3.5605,3.4883,3.4844,3.4687,3.3457,3.2765,3.1832,3.0242,2.9094,2.8246,2.8086,0.0,0.0,0.0,0.0,0.0,0.0,2.8078,2.7821,2.6635,2.5789,2.5403,2.6253,2.5212,2.4556,2.4676,2.4195,2.4102,2.4649,2.473,2.4877,2.517,2.5865,2.6213,2.6146,2.6533,2.6841,2.7001,2.6841,2.6987,2.7442,2.7321,2.7415,2.7709,2.7883,2.803,2.815,2.8283,2.8337,2.8364,2.8671,2.8965,2.9259,2.9553,2.9766,2.9913,2.9913,2.9913,2.9913,3.5855,0.0,0.0,0.0,0.0,0.0,0.0,0.0,0.0,0.0,0.0,0.0,4.5924,4.6175,0.0,0.0,4.6753,4.5422,0.0,0.0,4.1505,0.0,0.0,0.0,3.9471,3.817,3.7477,3.7477,3.4493,3.3077,3.3077,3.1556,3.0547,2.9941,0.0,3.0449,3.0605,0.0,3.2187,3.3047,3.3906,3.4707,3.5605,3.7422,3.9101,4.0625,4.1484,4.1797,4.1719,4.1211,4.166,4.2285,4.1484,4.1133,4.084,3.9766,3.8574,3.7383,3.6387,3.6133,3.5626,3.3777,3.2264,3.0864,2.8694,2.7276,2.6348,2.6034,2.6215,0.0,0.0,0.0,2.8509,2.8873,0.0,2.8944,2.7574,2.6281,2.5618,2.5814,2.4345,2.3407,2.3407,2.306,2.2966,2.326,2.3621,2.3888,2.4022,2.4903,2.5491,2.5705,2.6079,2.6453,2.6814,2.6533,2.664,2.7148,2.7068,2.7215,2.7589,2.7802,2.7989,2.8136,2.8136,2.819,2.8283,2.8417,2.8751,2.9179,2.9312,2.9593,2.9913,2.9913,2.9913,2.9913,3.6332,3.6332,0.0,0.0,0.0,0.0,0.0,0.0,0.0,0.0,0.0,0.0,0.0,0.0,0.0,0.0,0.0,4.8611,4.8586,0.0,4.2534,0.0,0.0,3.9998,0.0,3.7976,3.7477,3.7477,3.4493,3.3077,3.3077,3.1556,3.0879,3.0859,3.0859,3.1094,3.1504,3.1953,3.2637,3.3476,3.4336,3.5703,3.7305,3.8223,3.9375,4.0625,4.1484,4.1797,4.1855,4.2246,4.2402,4.25,4.2871,4.2695,4.2285,4.1836,4.166,4.1348,4.0078,3.9726,3.8709,3.4038,3.2637,3.1199,2.6991,2.6684,2.7017,2.6199,2.6701,2.751,2.8264,2.8426,2.8773,2.993,3.049,0.0,0.0,2.9053,2.7415,2.5227,2.3518,2.2458,2.2458,2.1951,2.1737,2.2017,2.2579,2.2779,2.2512,2.4142,2.5104,2.5104,2.5665,2.6239,2.6814,2.6533,2.6547,2.6827,2.6547,2.672,2.7281,2.7295,2.7602,2.8136,2.8136,2.831,2.8577,2.8283,2.8671,2.9446,2.9165,2.9406,2.9913,2.9913,2.9913,2.9913,0.0,0.0,0.0,0.0,0.0,0.0,0.0,4.0224,0.0,0.0,0.0,0.0,0.0,5.2829,5.3909,0.0,0.0,5.2528,5.1071,4.8535,0.0,0.0,0.0,4.2183,0.0,4.0401,3.9635,3.8921,3.7026,3.5485,3.4515,3.3077,3.1883,3.0879,0.0,3.084,0.0,0.0,0.0,0.0,0.0,3.7461,3.9004,3.9004,3.9453,4.0293,4.1699,4.2031,4.1953,4.2949,4.3086,4.293,4.3359,4.3008,4.2402,4.2266,4.1621,4.0918,4.0781,4.0527,3.9314,3.5229,3.2861,3.0395,2.621,2.4654,2.3969,2.3422,2.4084,2.5264,2.7051,2.7475,2.8132,3.0296,3.0781,3.084,0.0,2.9319,2.7712,2.5875,2.299,2.1336,2.1537,2.1015,2.0802,2.1096,2.1483,2.183,2.2111,2.346,2.4396,2.477,2.5545,2.6052,2.6253,2.6346,2.644,2.6533,2.6627,2.6881,2.7268,2.7468,2.7762,2.8136,2.8136,2.8203,2.831,2.8404,2.8738,2.9205,2.9299,2.9566,2.9913,2.9913,2.9913,2.9913,3.7172,0.0,0.0,0.0,0.0,0.0,0.0,0.0,0.0,0.0,4.7657,0.0,5.4988,0.0,5.647,0.0,5.7148,5.5591,5.2603,5.1222,0.0,4.7506,4.6024,4.4669,4.3363,4.2785,4.1781,4.0275,3.88,3.7402,3.6054,3.4069,3.2644,3.1652,3.0954,3.0976,3.1582,3.2422,3.3633,0.0,0.0,3.8418,3.9434,3.9453,3.9922,4.0723,4.1816,4.2226,4.2383,4.3203,4.3398,4.334,4.3613,4.332,4.2851,4.2695,4.2187,4.166,4.1621,4.1426,4.0125,3.5646,3.3231,3.0661,2.5878,2.4818,2.4596,2.4088,2.4853,2.6313,2.8575,2.8315,2.8588,3.1103,3.1191,3.0898,0.0,2.9412,2.8051,2.6953,2.3856,2.1714,2.1797,2.1067,2.0494,2.0374,2.0828,2.1189,2.1349,2.2485,2.3407,2.3995,2.477,2.5384,2.5798,2.5985,2.6186,2.6386,2.6587,2.6827,2.7121,2.7415,2.7709,2.7989,2.8096,2.8203,2.8323,2.8524,2.8845,2.9219,2.9406,2.9659,2.9913,2.9913,2.9913,2.9913,0.0,0.0,0.0,0.0,3.8969,0.0,0.0,0.0,4.5296,0.0,5.0645,5.411,5.6897,5.8177,5.883,5.883,5.9307,5.7775,5.3482,5.3658,0.0,0.0,4.8209,4.7405,4.5773,4.5121,4.374,4.163,4.0074,3.868,3.7619,3.4648,3.3304,3.3212,3.2113,0.0,3.1662,3.2422,3.3809,3.5605,3.7656,3.8555,3.873,3.9551,4.0684,4.1836,4.1836,4.2363,4.3047,4.3105,4.3379,4.3711,4.3711,4.3711,4.3633,4.3223,4.3398,4.3516,4.2715,4.248,4.1075,3.5625,3.3831,3.1993,2.6369,2.7158,2.8943,2.7946,2.8946,3.0611,3.2575,3.0809,2.9978,3.2332,3.168,3.0898,3.0898,2.953,2.8545,2.8545,2.5619,2.3548,2.3125,2.1894,2.0722,1.988,2.0588,2.0828,2.0281,2.1349,2.2245,2.2819,2.3447,2.4315,2.5438,2.5491,2.5798,2.6373,2.6386,2.6547,2.6827,2.7108,2.7415,2.7709,2.8003,2.8297,2.8591,2.8617,2.8951,2.9459,2.9499,2.9673,2.9913,2.9913,2.9913,2.9913,4.025,3.9959,3.9731,0.0,3.9496,3.9923,0.0,0.0,0.0,0.0,5.2603,5.5968,5.9131,6.0111,6.0563,6.0563,6.0663,0.0,0.0,0.0,0.0,5.3557,5.2302,5.087,4.9188,4.7782,4.6602,4.5648,4.28,4.0967,3.9896,3.7535,3.5836,3.4648,3.3675,3.3004,3.2662,3.2752,3.3984,3.5937,3.6816,3.8125,3.9551,3.9434,4.0586,4.2266,4.2266,4.2402,4.2695,4.334,4.3613,4.3711,4.3711,4.3711,4.3691,4.3574,4.3613,4.3652,4.3437,4.3144,4.2048,3.8815,3.7184,3.541,3.2184,3.1928,3.2419,3.1927,3.216,3.2436,3.2606,3.1583,3.0756,3.1343,3.1113,3.0898,3.0898,3.0509,3.0274,3.0274,2.7208,2.4706,2.3548,2.1628,2.0361,2.0134,2.0334,2.0494,2.0561,2.147,2.2151,2.2525,2.334,2.4022,2.4529,2.5184,2.5705,2.6079,2.6279,2.6547,2.6827,2.6894,2.7215,2.7696,2.7776,2.7976,2.8297,2.8751,2.9018,2.9192,2.9633,2.9847,2.9913,2.9913,2.9913,2.9913,4.1557,0.0,0.0,3.9878,0.0,0.0,4.2409,4.4166,0.0,5.067,5.4059,0.0,5.9684,6.1115,6.1818,6.1567,6.1542,0.0,5.8855,0.0,0.0,5.5817,5.4637,5.3331,5.1875,4.9992,4.851,4.7481,4.4141,4.2202,4.1394,3.8683,3.7026,3.6162,0.0,3.4437,3.4388,3.4389,3.5002,3.6074,3.6699,3.8008,0.0,3.9531,4.0488,4.1894,4.209,4.2519,4.3066,4.3535,4.3711,4.3711,4.3711,4.3711,4.3711,4.3711,4.3711,4.3711,4.3711,4.3535,4.277,4.0327,3.925,3.7934,3.5282,3.5322,3.6009,3.5643,3.5964,3.6189,3.6066,3.4433,3.269,3.1424,3.1016,3.0898,3.0898,3.1055,3.1094,3.0918,2.8628,2.6419,2.4778,2.1897,2.0818,2.2215,2.0934,2.0577,2.1737,2.1393,2.1523,2.2205,2.2966,2.3581,2.4008,2.4756,2.5211,2.5384,2.5812,2.6092,2.6266,2.6653,2.7001,2.7335,2.7589,2.7789,2.8003,2.8604,2.8925,2.9098,2.9686,2.9913,2.9913,2.9913,2.9913,2.9913,0.0,0.0,0.0,0.0,0.0,0.0,0.0,4.5817,0.0,5.2026,0.0,5.7926,5.9433,6.1416,6.2395,6.1843,0.0,6.1014,5.8956,5.883,5.8102,5.6495,5.5892,5.5114,5.4059,5.18,4.9916,4.846,4.4844,4.2836,4.2333,3.9282,3.7796,3.769,0.0,0.0,0.0,3.6359,3.63,3.6032,3.6996,3.8092,3.9258,3.9726,4.0469,4.1308,4.166,4.2558,4.3555,4.3594,4.3652,4.3711,4.3711,4.3711,4.3711,4.3711,4.3711,4.3711,4.3711,4.3711,4.3176,4.1286,4.0764,4.006,3.7514,3.8371,3.9632,3.9447,3.9769,4.0273,4.041,3.7617,3.4512,3.207,3.1328,3.1074,3.1133,3.1309,3.1348,3.1094,2.9665,0.0,2.6638,2.3036,2.2049,2.4626,2.2039,2.1068,2.3051,2.1296,2.0828,2.1897,2.2498,2.31,2.3714,2.4289,2.4596,2.4649,2.5237,2.5518,2.5545,2.6386,2.6787,2.6854,2.7402,2.7669,2.7749,2.835,2.8804,2.9152,2.97,2.9913,2.9913,2.9913,2.9913,2.9913,0.0,0.0,0.0,0.0,0.0,4.7184,4.9959,5.143,5.2879,5.4587,5.7298,5.9357,6.0085,6.0939,6.124,6.0663,6.104,0.0,0.0,0.0,5.883,5.765,5.7047,5.6445,5.5792,5.3155,5.1674,5.1373,4.62,4.3614,4.3463,4.0664,3.9362,3.9258,0.0,0.0,3.5379,3.6289,3.623,3.5745,3.7522,3.8627,3.9258,3.9726,4.0644,4.1699,4.1777,4.2168,4.2715,4.3066,4.3418,4.3711,4.3711,4.3711,4.3711,4.3711,4.3711,4.3711,4.3711,4.3711,4.3526,4.3176,4.3176,4.2972,4.2468,4.2614,4.2944,4.2867,4.2295,4.1582,4.0254,3.7168,3.4336,3.2812,3.2226,3.207,3.2422,3.1621,3.123,3.1875,2.8756,2.7139,2.8712,2.6298,2.4285,2.3459,2.281,2.2719,2.3066,2.17,2.1162,2.1617,2.2191,2.2792,2.3394,2.3981,2.4396,2.4649,2.5237,2.5518,2.5531,2.6172,2.66,2.6841,2.7188,2.7482,2.7749,2.835,2.8925,2.9432,2.978,2.9913,2.9913,2.9913,2.9913,2.9913,0.0,0.0,0.0,0.0,0.0,0.0,0.0,5.6393,5.6944,5.5962,5.7223,5.8428,5.9006,6.0337,6.1065,6.0788,6.1014,6.0814,5.9985,5.9408,5.873,5.7926,5.7072,5.647,5.6219,5.3783,5.2528,5.2528,4.7255,4.4518,4.4166,4.1706,4.0249,3.9722,0.0,3.879,0.0,3.8458,3.8154,3.7436,3.8465,3.8966,3.9258,3.9726,4.041,4.1172,4.1387,4.1738,4.2207,4.2851,4.3223,4.3418,4.3633,4.3711,4.3711,4.3711,4.3711,4.3711,4.3711,4.3711,4.3711,4.3711,4.3711,4.3711,4.3711,4.3711,4.3711,4.3711,4.3379,4.2578,4.0859,3.791,3.5449,3.4609,3.3359,3.2559,3.2773,3.2266,3.1953,3.2148,3.0223,2.8635,2.8006,2.7367,2.632,2.477,2.349,2.2947,2.2947,2.1575,2.1015,2.1309,2.2191,2.2792,2.3086,2.3981,2.4422,2.4422,2.5157,2.5518,2.5545,2.6279,2.6694,2.6854,2.7295,2.7562,2.7762,2.8524,2.9005,2.9299,2.974,2.9913,2.9913,2.9913,2.9913,2.9913,0.0,5.0261,0.0,0.0,5.3192,5.5686,5.823,5.9911,6.0013,5.7856,5.7571,5.7775,5.8353,5.996,6.0914,6.0688,6.0864,6.0663,5.9859,5.9006,5.8303,5.775,5.6746,5.6219,5.6219,5.416,5.2854,5.2402,4.8109,4.5347,4.4066,4.2434,4.1103,4.0074,4.0626,4.072,4.0626,4.098,4.0357,3.9242,3.9587,3.9569,3.9258,3.9726,4.0156,4.0586,4.1016,4.1387,4.1777,4.2539,4.293,4.3144,4.3457,4.3633,4.3711,4.3711,4.3711,4.3711,4.3711,4.3711,4.3711,4.3711,4.3711,4.3711,4.3711,4.3711,4.3711,4.3711,4.3633,4.3086,4.1465,3.9238,3.7363,3.6562,3.5,3.3789,3.3516,3.3398,3.2961,3.1996,3.1275,2.961,2.6339,2.6912,2.6847,2.5035,2.358,2.2811,2.2811,2.169,2.1231,2.1587,2.264,2.3324,2.3584,2.4125,2.4436,2.4396,2.509,2.5451,2.5545,2.6426,2.6827,2.6854,2.7442,2.7736,2.7856,2.8698,2.9045,2.9098,2.9686,2.9913,2.9913,2.9913,2.9913,2.9913,0.0,0.0,0.0,0.0,0.0,5.9436,5.9284,6.0355,6.1474,6.1747,6.0403,5.9483,6.0035,6.0286,6.001,5.9031,5.9834,5.9759,5.8227,5.8027,5.7725,5.7148,5.6545,5.6219,5.6219,5.4511,5.2653,5.0645,4.8661,4.5874,4.2384,4.2685,4.2233,4.1204,4.1756,4.1697,4.1314,4.2313,4.1661,3.9986,4.0998,4.0498,3.9258,3.9726,4.0156,4.0586,4.1016,4.1191,4.1308,4.1758,4.2441,4.3086,4.3125,4.3398,4.3711,4.3711,4.3711,4.3711,4.3711,4.3711,4.3711,4.3711,4.3711,4.3711,4.3711,4.3711,4.3711,4.3711,4.3398,4.2734,4.1406,4.0937,4.0098,3.8086,3.7578,3.7051,3.5879,3.5391,3.4008,3.1099,2.97,2.7719,2.4377,2.4492,2.3828,2.1383,2.2349,2.3036,2.3036,2.2541,2.2689,2.3311,2.3878,2.4686,2.5842,2.462,2.4235,2.4997,2.5077,2.5251,2.5545,2.6426,2.6827,2.6854,2.7442,2.7856,2.815,2.8778,2.9045,2.9098,2.9686,2.9913,2.9913,2.9913,2.9913,2.9913,0.0,0.0,0.0,6.1912,6.2083,6.2366,6.38,6.3529,6.2974,6.2932,6.0865,5.9583,5.9809,5.9834,5.9659,5.9232,5.9282,5.9081,5.8428,5.775,5.7273,5.7047,5.652,5.6219,5.6219,5.5239,5.3959,5.2377,5.0393,4.7958,4.5121,4.3991,4.2886,4.1831,4.2057,4.2409,4.2886,4.4016,4.3096,4.1124,4.2104,4.1283,3.9258,3.9726,4.0156,4.0586,4.1016,4.1172,4.123,4.166,4.2031,4.2402,4.291,4.3183,4.3379,4.3633,4.3711,4.3711,4.3711,4.3711,4.3711,4.3711,4.3711,4.3711,4.3711,4.3711,4.3711,4.3711,4.3574,4.3301,4.2793,4.1855,4.0976,4.0351,3.916,3.7949,3.6934,3.5976,3.42,3.1027,2.9457,2.7334,2.3841,2.3623,2.2769,2.0819,2.2414,2.2833,2.1376,2.1418,2.1572,2.181,2.2426,2.3203,2.4442,2.4296,2.473,2.5611,2.5785,2.6012,2.6319,2.6841,2.7281,2.7629,2.7869,2.803,2.819,2.8791,2.9045,2.9098,2.9686,2.9913,2.9913,2.9913,2.9913,2.9913,6.3558,6.3169,6.3558,6.5802,6.5443,6.5162,6.605,6.5139,6.3694,6.2287,6.061,5.9558,5.9709,5.9583,5.9357,5.9056,5.883,5.8504,5.8027,5.7399,5.6972,5.6796,5.642,5.6219,5.6219,5.5842,5.4988,5.3708,5.2151,4.9941,4.7104,4.5196,4.3966,4.3388,4.3059,4.3325,4.3949,4.4232,4.3182,4.1524,4.236,4.141,3.9453,3.9902,4.0273,4.0586,4.1016,4.125,4.1406,4.1699,4.1875,4.2109,4.2851,4.3164,4.332,4.3613,4.3711,4.3711,4.3711,4.3711,4.3711,4.3711,4.3711,4.3711,4.3711,4.3711,4.3711,4.3711,4.3711,4.3711,4.3711,4.2734,4.1933,4.1973,4.0703,3.9238,3.7871,3.6894,3.4739,3.0319,2.9653,2.7748,2.349,2.3232,2.2696,2.1533,2.221,2.1973,2.0254,2.0917,2.1271,2.1271,2.1949,2.2759,2.3983,2.439,2.4997,2.5959,2.6253,2.6547,2.6841,2.7215,2.7669,2.8136,2.8136,2.8136,2.819,2.8791,2.9045,2.9098,2.9686,2.9913,2.9913,2.9913,2.9913,2.9913,6.667,6.6939,6.7358,6.8704,6.8944,6.7883,6.4777,6.4162,6.31,5.9998,5.9508,5.9709,6.0261,5.9834,5.9056,5.8001,5.8403,5.8027,5.6344,5.6746,5.6796,5.6244,5.6219,5.6219,5.6219,5.6194,5.539,5.3708,5.3683,5.1423,4.7104,4.5999,4.5748,4.6155,4.488,4.4341,4.4215,4.2396,4.1521,4.1184,4.1205,4.0634,3.9941,4.0351,4.0527,4.0586,4.1016,4.1445,4.1797,4.1797,4.207,4.25,4.293,4.3359,4.3691,4.3711,4.3711,4.3711,4.3711,4.3711,4.3711,4.3711,4.3711,4.3711,4.3711,4.3711,4.3711,4.3711,4.3711,4.3711,4.3711,4.3691,4.3398,4.2558,4.2402,4.1484,3.8926,3.8555,3.5944,2.8912,3.0083,2.9119,2.3291,2.3307,2.3424,2.3095,2.1642,2.0548,2.0254,2.1661,2.2483,2.2721,2.342,2.4435,2.5736,2.4745,2.4796,2.5959,2.6253,2.6547,2.6841,2.7428,2.7856,2.8136,2.8136,2.8136,2.819,2.8791,2.9045,2.9098,2.9686,2.9913,2.9913,2.9913,2.9913,2.9913,6.8944,6.9034,6.9303,7.0141,6.8808,6.7046,6.5109,6.3794,6.2175,5.9766,5.9483,5.9558,5.9734,5.9608,5.9508,5.9533,5.9031,5.8504,5.7951,5.7725,5.7374,5.6796,5.6771,5.6595,5.6219,5.6219,5.5767,5.4838,5.4486,5.2402,4.8812,4.846,4.7109,4.4929,4.5181,4.4627,4.3329,4.3601,4.2914,4.1686,4.2,4.1366,4.0332,4.0469,4.0703,4.1016,4.1445,4.168,4.1894,4.248,4.2754,4.2949,4.3379,4.3398,4.334,4.3613,4.3711,4.3711,4.3711,4.3711,4.3711,4.3711,4.3711,4.3711,4.3711,4.3711,4.3711,4.3711,4.3711,4.3711,4.3711,4.3711,4.3613,4.334,4.2558,4.1289,3.9277,3.7754,3.5007,2.9851,2.9654,2.8588,2.5169,2.5465,2.5217,2.4003,2.3377,2.2369,2.0842,2.1122,2.1451,2.1992,2.2351,2.3209,2.444,2.4688,2.5184,2.5959,2.6453,2.6947,2.7428,2.7816,2.8056,2.8136,2.8136,2.827,2.8484,2.8871,2.9152,2.9379,2.9766,2.9913,2.9913,2.9913,2.9913,2.9913,7.1098,7.1098,7.0927,7.0593,6.9166,6.7374,6.4826,6.3419,6.1927,5.9817,5.9684,5.9809,5.9809,5.9809,5.9784,5.9734,5.9106,5.8629,5.8428,5.8102,5.765,5.7072,5.7022,5.6771,5.6219,5.6219,5.6043,5.5691,5.4712,5.3181,5.1122,5.072,4.8969,4.6295,4.6071,4.4867,4.3078,4.2821,4.2251,4.1305,4.1902,4.1534,4.0801,4.1113,4.1308,4.1465,4.1894,4.2148,4.2363,4.2891,4.3183,4.3359,4.3613,4.3516,4.3359,4.3633,4.3711,4.3711,4.3711,4.3711,4.3711,4.3711,4.3711,4.3711,4.3711,4.3711,4.3711,4.3711,4.3711,4.3711,4.3711,4.3711,4.3652,4.3496,4.2519,4.1133,3.9238,3.7266,3.4547,3.0607,3.0359,2.9654,2.7262,2.7885,2.7546,2.5391,2.5738,2.4653,2.1585,2.1269,2.139,2.1857,2.2378,2.3126,2.4088,2.4863,2.5531,2.6132,2.6827,2.7402,2.7869,2.8056,2.8136,2.8136,2.8136,2.8323,2.8631,2.8925,2.9219,2.9513,2.9806,2.9913,2.9913,2.9913,2.9913,2.9913,7.2924,7.2924,7.2328,7.0431,6.9786,6.8258,6.406,6.3107,6.2166,5.9867,5.9985,6.0311,6.0261,6.0261,5.9859,5.8855,5.873,5.8504,5.8001,5.7926,5.765,5.7072,5.7022,5.6771,5.6219,5.6219,5.6219,5.6219,5.4637,5.3858,5.3808,5.2804,5.1403,4.989,4.7539,4.545,4.338,4.1103,4.0293,4.0684,4.1094,4.125,4.1348,4.2129,4.2187,4.1894,4.2324,4.2734,4.3086,4.3105,4.3379,4.3711,4.3711,4.3711,4.3711,4.3711,4.3711,4.3711,4.3711,4.3711,4.3711,4.3711,4.3711,4.3711,4.3711,4.3711,4.3711,4.3711,4.3711,4.3711,4.3711,4.3691,4.3535,4.3144,4.2266,4.0898,3.8828,3.7051,3.4643,3.1029,3.2055,3.2037,2.9715,3.0664,3.037,2.7499,2.824,2.6851,2.2549,2.227,2.2245,2.2472,2.3367,2.4115,2.469,2.5277,2.5879,2.6493,2.7308,2.7856,2.8136,2.8163,2.8177,2.8177,2.819,2.8377,2.8684,2.8951,2.9245,2.9539,2.9806,2.9913,2.9913,2.9913,2.9913,2.9913,7.2924,7.2924,7.276,7.2328,6.9273,6.6751,6.5601,6.2955,6.0553,5.9558,5.9985,6.0161,5.9734,5.9684,5.9583,5.9332,5.8956,5.8654,5.8529,5.8127,5.765,5.7072,5.7022,5.6771,5.6219,5.6219,5.6219,5.6219,5.5817,5.5415,5.4988,5.4737,5.339,5.115,4.8954,4.694,4.4978,4.2781,4.1875,4.1992,4.209,4.2129,4.2148,4.2344,4.2363,4.2344,4.2773,4.2988,4.3125,4.3437,4.3633,4.3711,4.3711,4.3711,4.3711,4.3711,4.3711,4.3711,4.3711,4.3711,4.3711,4.3711,4.3711,4.3711,4.3711,4.3711,4.3711,4.3711,4.3711,4.3711,4.3711,4.3437,4.3183,4.3105,4.125,3.9414,3.8242,3.6621,3.4965,3.3373,3.4367,3.4906,3.3989,3.42,3.304,2.981,2.8826,2.7643,2.5952,2.4496,2.35,2.3126,2.3968,2.4716,2.5304,2.5892,2.6587,2.7388,2.7602,2.7856,2.815,2.839,2.8497,2.8511,2.8724,2.8991,2.9285,2.9352,2.9553,2.982,2.9887,2.9913,2.9913,2.9913,2.9913,2.9913,7.3821,7.3821,7.3521,7.2611,6.9423,6.6579,6.545,6.2377,6.0111,5.9558,5.9985,6.0111,5.9558,5.9709,5.9759,5.9508,5.9031,5.873,5.873,5.8202,5.765,5.7072,5.7022,5.6771,5.6219,5.6219,5.6219,5.6219,5.6219,5.6068,5.5767,5.5767,5.4059,5.0874,4.9412,4.7177,4.4396,4.2961,4.2422,4.2441,4.2637,4.2598,4.2461,4.2851,4.2891,4.2773,4.3203,4.3359,4.3398,4.3633,4.3711,4.3711,4.3711,4.3711,4.3711,4.3711,4.3711,4.3711,4.3711,4.3711,4.3711,4.3711,4.3711,4.3711,4.3711,4.3711,4.3711,4.3711,4.3711,4.3711,4.3711,4.3203,4.2598,4.2012,4.0234,3.8418,3.6973,3.5781,3.4902,3.4414,3.5351,3.6016,3.5976,3.668,3.5294,3.0876,3.1141,2.9954,2.6085,2.62,2.6242,2.5622,2.5487,2.5718,2.6306,2.676,2.7228,2.7696,2.9105,2.9816,2.9986,3.1315,3.1955,3.197,3.2148,3.2416,3.2555,3.1539,3.1197,3.1301,3.0258,2.9913,2.9913,2.9913,3.0616,3.1301,7.4869,7.4869,7.4258,7.2314,6.9692,6.7161,6.4665,6.2071,6.0211,5.9583,5.9985,6.0111,5.9558,5.991,6.001,5.9533,5.9031,5.8679,5.8604,5.8077,5.7499,5.6947,5.6922,5.6696,5.6219,5.6219,5.6219,5.6219,5.6219,5.6219,5.6219,5.5901,5.3876,5.0452,4.9384,4.689,4.3613,4.2935,4.2617,4.2656,4.3027,4.2949,4.2695,4.3418,4.3476,4.3223,4.3574,4.3711,4.3711,4.3711,4.3711,4.3711,4.3711,4.3711,4.3711,4.3711,4.3711,4.3711,4.3711,4.3711,4.3711,4.3711,4.3711,4.3711,4.3711,4.3711,4.3711,4.3711,4.3711,4.3711,4.3711,4.2949,4.1992,4.0976,3.9336,3.7598,3.5918,3.5234,3.4941,3.5078,3.6094,3.6953,3.7324,3.8594,3.7258,3.2329,3.4144,3.2855,2.6609,2.8315,2.9284,2.9094,2.7493,2.6787,2.7321,2.7615,2.7929,2.8247,3.0767,3.2206,3.2556,3.4941,3.5974,3.5974,3.6024,3.624,3.6385,3.433,3.3649,3.3731,3.1301,3.0437,3.0437,3.0093,3.1301,3.3043,7.4869,7.4869,7.4258,7.2314,6.9692,6.7161,6.4665,6.243,6.0663,5.9633,5.9985,6.0111,5.9558,5.9558,5.9583,5.9508,5.9031,5.8529,5.8052,5.7499,5.6922,5.6369,5.6344,5.6294,5.6219,5.6219,5.6219,5.6219,5.6219,5.6219,5.6219,5.4348,5.3251,5.2471,4.8803,4.6762,4.6119,4.4315,4.3516,4.3516,4.3574,4.3574,4.3516,4.3652,4.3672,4.3613,4.3691,4.3711,4.3711,4.3711,4.3711,4.3711,4.3711,4.3711,4.3711,4.3711,4.3711,4.3711,4.3711,4.3711,4.3711,4.3711,4.3711,4.3711,4.3711,4.3711,4.3711,4.3711,4.3711,4.3711,4.3711,4.2715,4.1953,4.2109,3.8926,3.6562,3.6953,3.6309,3.6094,3.6816,3.8945,4.0391,4.0469,4.0371,3.9242,3.6623,3.6002,3.5271,3.4458,3.1601,3.0713,3.2625,2.9122,2.7295,2.7629,2.7923,2.9049,3.0836,3.1706,3.3042,3.4883,3.5889,3.6372,3.6406,3.6533,3.6698,3.6748,3.6404,3.6264,3.5967,3.3731,3.2867,3.269,3.0616,3.1301,3.338,7.4869,7.3823,7.2555,7.1651,6.8455,6.5501,6.4035,6.2045,6.0412,5.9608,5.9709,5.9784,5.9533,5.9483,5.9483,5.9483,5.9282,5.878,5.7951,5.7349,5.6922,5.6671,5.6369,5.6219,5.6219,5.6219,5.6219,5.6219,5.6219,5.5582,5.4497,5.3576,5.1861,4.9674,4.7645,4.6223,4.5128,4.4186,4.3711,4.3711,4.3711,4.3711,4.3711,4.3711,4.3711,4.3711,4.3711,4.3711,4.3711,4.3711,4.3711,4.3711,4.3711,4.3711,4.3711,4.3711,4.3711,4.3711,4.3711,4.3711,4.3711,4.3711,4.3711,4.3711,4.3711,4.3711,4.3711,4.3711,4.3711,4.3711,4.3711,4.2656,4.1797,4.1758,3.873,3.6582,3.7207,3.6758,3.6855,3.8164,4.0019,4.1348,4.1797,4.166,4.0641,3.8286,3.7602,3.6809,3.5661,3.2809,3.1538,3.2655,2.9434,2.8454,2.9713,2.8728,2.9369,3.1828,3.3302,3.5409,3.7787,3.9551,4.0341,4.0341,4.0523,4.0596,4.0427,3.9225,3.8715,3.8374,3.4766,3.3395,3.3043,3.0781,3.2174,3.5114,7.408,7.2298,7.0763,6.9732,6.6563,6.3917,6.2909,6.1351,6.0111,5.9558,5.9483,5.9483,5.9483,5.9483,5.9483,5.9483,5.9483,5.9106,5.8152,5.7549,5.7123,5.6846,5.6445,5.6219,5.6219,5.6219,5.6219,5.6219,5.5754,5.4646,5.31,5.2166,4.9986,4.6706,4.6223,4.5128,4.3711,4.3711,4.3711,4.3711,4.3711,4.3711,4.3711,4.3711,4.3711,4.3711,4.3711,4.3711,4.3711,4.3711,4.3711,4.3711,4.3711,4.3711,4.3711,4.3711,4.3711,4.3711,4.3711,4.3711,4.3711,4.3711,4.3711,4.3711,4.3711,4.3711,4.3711,4.3711,4.3711,4.3711,4.3711,4.2734,4.1836,4.1523,3.9023,3.7305,3.7832,3.7539,3.7851,3.9473,4.082,4.1914,4.2656,4.2715,4.1875,3.9968,3.977,3.8922,3.6881,3.4834,3.3484,3.2815,3.0365,2.9593,3.0811,2.9593,3.0028,3.2158,3.4166,3.6493,3.8997,4.1786,4.2844,4.301,4.3526,4.3711,4.3526,4.1286,4.0259,3.9903,3.5273,3.3395,3.3219,3.1301,3.338,3.6658,7.1702,7.1104,6.9876,6.6021,6.4804,6.3332,6.0831,6.0468,6.0111,5.9558,5.9483,5.9483,5.9483,5.9483,5.9483,5.9483,5.9483,5.9257,5.8704,5.8152,5.7374,5.6319,5.6244,5.6219,5.6219,5.6219,5.6219,5.6219,5.4348,5.3251,5.2949,4.9227,4.7187,4.6706,4.4802,4.3856,4.3711,4.3711,4.3711,4.3711,4.3711,4.3711,4.3711,4.3711,4.3711,4.3711,4.3711,4.3711,4.3711,4.3711,4.3711,4.3711,4.3711,4.3711,4.3711,4.3711,4.3711,4.3711,4.3711,4.3711,4.3711,4.3711,4.3711,4.3711,4.3711,4.3711,4.3711,4.3711,4.3711,4.3711,4.3711,4.2969,4.2363,4.2344,4.0137,3.873,3.959,3.9316,3.9512,4.0859,4.2168,4.3125,4.3574,4.3613,4.3437,4.2845,4.2806,4.245,4.1863,3.9848,3.7683,3.5508,3.2846,3.0836,2.9138,3.068,3.1851,3.2349,3.285,3.4221,3.6608,3.9387,4.0596,4.0596,4.2844,4.3711,4.3526,4.1286,4.0259,3.9903,3.5273,3.3395,3.3395,3.3219,3.4766,3.7175,7.1995,6.9992,6.7836,6.5056,6.2922,6.1324,6.004,6.0111,6.0111,5.9558,5.9207,5.9006,5.9006,5.8704,5.8504,5.8504,5.8504,5.8278,5.77,5.7474,5.7022,5.6244,5.6219,5.6219,5.6219,5.6219,5.5582,5.4348,5.3425,5.1708,4.9204,4.7645,4.6082,4.4802,4.4021,4.3711,4.3711,4.3711,4.3711,4.3711,4.3711,4.3711,4.3711,4.3711,4.3711,4.3711,4.3711,4.3711,4.3711,4.3711,4.3711,4.3711,4.3711,4.3711,4.3711,4.3711,4.3711,4.3711,4.3711,4.3711,4.3711,4.3711,4.3711,4.3711,4.3711,4.3711,4.3711,4.3711,4.3711,4.3711,4.3711,4.3223,4.291,4.3183,4.1289,4.0176,4.1308,4.0859,4.0801,4.1836,4.2851,4.3535,4.3691,4.3711,4.3633,4.3476,4.3457,4.3398,4.3223,3.9641,3.6588,3.4361,3.3021,3.1969,3.1052,3.0423,3.0852,3.2692,3.2827,3.4188,3.6616,3.7622,3.8203,3.8203,3.9055,3.9413,3.9395,3.8545,3.8203,3.7861,3.4591,3.3395,3.3395,3.3395,3.4766,3.7175,7.065,6.867,6.6466,6.3459,6.1451,6.0136,5.9583,5.9809,5.9859,5.9332,5.9081,5.883,5.8504,5.8428,5.8278,5.7926,5.8202,5.8001,5.7097,5.6872,5.6595,5.6219,5.6219,5.6219,5.6219,5.6219,5.5115,5.31,5.2471,5.0297,4.6867,4.6061,4.5128,4.3711,4.3711,4.3711,4.3711,4.3711,4.3711,4.3711,4.3711,4.3711,4.3711,4.3711,4.3711,4.3711,4.3711,4.3711,4.3711,4.3711,4.3711,4.3711,4.3711,4.3711,4.3711,4.3711,4.3711,4.3711,4.3711,4.3711,4.3711,4.3711,4.3711,4.3711,4.3711,4.3711,4.3711,4.3711,4.3711,4.3711,4.3711,4.3476,4.332,4.3476,4.2285,4.1621,4.25,4.2129,4.2031,4.2734,4.334,4.3711,4.3711,4.3711,4.3711,4.3711,4.3711,4.3361,4.2659,3.8885,3.614,3.4591,3.3505,3.3105,3.3707,3.1426,3.0685,3.2018,3.2018,3.2821,3.4591,3.5462,3.5793,3.5793,3.6485,3.683,3.6658,3.5967,3.5793,3.5446,3.3204,3.2351,3.2528,3.3907,3.5462,3.7191,6.7234,6.712,6.6372,6.1244,6.0311,6.0136,5.9583,5.9483,5.9307,5.878,5.9156,5.9081,5.8027,5.8855,5.9056,5.7976,5.8855,5.878,5.7148,5.652,5.6219,5.6219,5.6219,5.6219,5.6219,5.6219,5.5115,5.31,5.1071,4.889,4.6706,4.4658,4.3711,4.3711,4.3711,4.3711,4.3711,4.3711,4.3711,4.3711,4.3711,4.3711,4.3711,4.3711,4.3711,4.3711,4.3711,4.3711,4.3711,4.3711,4.3711,4.3711,4.3711,4.3711,4.3711,4.3711,4.3711,4.3711,4.3711,4.3711,4.3711,4.3711,4.3711,4.3711,4.3711,4.3711,4.3711,4.3711,4.3711,4.3711,4.3711,4.3711,4.3574,4.3144,4.3086,4.3086,4.3086,4.3086,4.3242,4.3652,4.3711,4.3711,4.3711,4.3711,4.3711,4.3711,4.3711,4.2659,4.0427,3.8032,3.683,3.683,3.4591,3.4417,3.683,3.4093,3.1858,2.9913,2.9913,2.9913,2.9913,3.2351,3.338,3.3556,3.5793,3.683,3.6485,3.4242,3.3395,3.3219,3.0781,2.9913,3.0437,3.5099,3.683,3.7569,6.7597,6.7037,6.5857,6.1168,6.0311,6.0136,5.9583,5.9483,5.9307,5.878,5.8529,5.8252,5.7926,5.7826,5.765,5.7323,5.7951,5.8001,5.7097,5.652,5.6219,5.6219,5.6219,5.6219,5.6219,5.6219,5.4497,5.0916,5.0297,4.8122,4.4658,4.4021,4.3711,4.3711,4.3711,4.3711,4.3711,4.3711,4.3711,4.3711,4.3711,4.3711,4.3711,4.3711,4.3906,4.4141,4.3828,4.3906,4.4141,4.3808,4.3711,4.3769,4.4082,4.4394,4.4629,4.4629,4.4629,4.457,4.4277,4.4199,4.4121,4.3789,4.3711,4.3711,4.3711,4.3711,4.3711,4.3711,4.3711,4.3711,4.3711,4.3711,4.3672,4.3535,4.3516,4.3516,4.3516,4.3516,4.3555,4.3691,4.3711,4.3711,4.3711,4.3711,4.3711,4.3711,4.3711,4.2659,4.0427,3.8032,3.7518,3.9225,3.5446,3.5273,3.9225,3.6887,3.4498,3.2351,3.2351,3.1479,2.9913,3.0616,3.0959,3.0959,3.1642,3.1997,3.182,3.1301,3.182,3.3395,3.269,3.338,3.5099,3.8203,3.9225,3.9752,6.7122,6.6678,6.5558,6.0863,6.0161,6.0136,5.9583,5.9483,5.9307,5.878,5.8604,5.8278,5.7625,5.765,5.7424,5.6771,5.7022,5.7173,5.7047,5.652,5.6219,5.6219,5.6219,5.6219,5.6219,5.6219,5.4497,5.1247,5.0452,4.828,4.4965,4.4021,4.3711,4.3711,4.3711,4.3711,4.3711,4.3711,4.3711,4.3711,4.3711,4.3711,4.373,4.3906,4.416,4.4375,4.4277,4.4297,4.4375,4.4277,4.4219,4.4238,4.4355,4.4687,4.5019,4.5019,4.5019,4.4961,4.4707,4.4648,4.457,4.4297,4.3965,4.375,4.3926,4.3828,4.3711,4.3711,4.3711,4.3711,4.3711,4.3711,4.3711,4.3711,4.3711,4.3711,4.3711,4.3711,4.3711,4.3711,4.3711,4.3711,4.3711,4.3711,4.3711,4.3711,4.3711,4.2659,4.0427,3.8885,3.8885,4.0259,3.7501,3.7844,4.1621,4.0259,3.7861,3.4766,3.3907,3.269,3.1301,3.0258,2.9913,2.9913,2.9913,2.9913,2.9913,2.9913,3.1301,3.3395,3.3395,3.4766,3.7003,3.9395,4.0349,4.0868,6.6145,6.6125,6.5395,6.0405,5.991,6.006,5.9508,5.9382,5.9156,5.8629,5.9031,5.8755,5.7198,5.8001,5.8001,5.642,5.6244,5.6445,5.6997,5.652,5.6219,5.6219,5.6219,5.6219,5.6219,5.6219,5.5115,5.31,5.1093,4.889,4.6706,4.4658,4.3711,4.3711,4.3711,4.3711,4.3711,4.3711,4.373,4.3769,4.3769,4.3789,4.3867,4.4297,4.4473,4.4551,4.4902,4.4805,4.4551,4.4863,4.5019,4.5,4.459,4.4766,4.5137,4.5137,4.5137,4.5137,4.5098,4.5078,4.5078,4.5078,4.4453,4.3926,4.4316,4.4101,4.3808,4.373,4.373,4.375,4.3711,4.3711,4.3711,4.3711,4.3711,4.3711,4.3711,4.3711,4.3711,4.3711,4.3711,4.3711,4.3711,4.3711,4.3711,4.3711,4.3711,4.2844,4.0764,4.0427,4.0427,4.0596,4.0427,4.1453,4.3711,4.3711,4.1472,3.7175,3.494,3.3731,3.3395,3.1137,3.0093,2.9913,2.9913,2.9913,2.9913,3.0093,3.1657,3.3731,3.3907,3.5446,3.769,3.9734,4.0868,4.1629,6.5977,6.5822,6.4787,6.0329,5.9583,5.9508,5.8981,5.8529,5.8052,5.7474,5.7901,5.7926,5.7123,5.765,5.775,5.6922,5.647,5.6445,5.6997,5.652,5.6219,5.6219,5.6219,5.6219,5.6219,5.6219,5.5115,5.31,5.1093,4.8912,4.6888,4.4658,4.3711,4.3711,4.3711,4.3711,4.3711,4.3711,4.3906,4.4258,4.4258,4.4453,4.4746,4.4844,4.5098,4.5371,4.5117,4.5195,4.5312,4.4726,4.498,4.5449,4.5019,4.541,4.6016,4.6016,4.6016,4.5957,4.5625,4.5527,4.5527,4.5527,4.5137,4.4687,4.4453,4.457,4.4551,4.3848,4.3984,4.4141,4.3769,4.3711,4.3711,4.3711,4.3711,4.3711,4.3711,4.3711,4.3711,4.3711,4.3711,4.3711,4.3711,4.3711,4.3711,4.3711,4.3711,4.3526,4.301,4.1286,4.1118,4.2844,4.1286,4.1453,4.3711,4.3711,4.2326,3.9564,3.9055,3.6986,3.3395,3.2867,3.1657,2.9913,2.9913,2.9913,3.0093,3.182,3.4067,3.6313,3.8015,4.0259,4.2326,4.2844,4.3299,4.3702,6.5921,6.5462,6.43,6.0278,5.9483,5.9332,5.8805,5.8478,5.8177,5.7876,5.8102,5.8077,5.7499,5.7725,5.7549,5.6721,5.6369,5.6344,5.662,5.6369,5.6219,5.6219,5.6219,5.6219,5.6219,5.5263,5.4199,5.31,5.1093,4.8912,4.6888,4.4658,4.3711,4.3711,4.3711,4.3711,4.3711,4.3711,4.3965,4.4394,4.4394,4.4648,4.5039,4.5254,4.5469,4.5664,4.5644,4.5781,4.584,4.498,4.5273,4.5898,4.5469,4.5781,4.6308,4.6308,4.6152,4.5996,4.5976,4.584,4.5723,4.5918,4.5801,4.5527,4.5098,4.4863,4.459,4.4141,4.4238,4.4316,4.4082,4.4043,4.4043,4.4043,4.3848,4.3711,4.3711,4.3711,4.3711,4.3711,4.3711,4.3711,4.3711,4.3711,4.3711,4.3711,4.3711,4.3711,4.3711,4.2493,4.2493,4.3711,4.2493,4.2493,4.3711,4.3711,4.3176,4.1974,4.0764,3.9055,3.6642,3.5446,3.3731,3.1657,3.1657,3.0959,3.0093,3.2351,3.4766,3.7003,3.9395,4.1621,4.3711,4.3711,4.4004,4.4433,6.5921,6.4929,6.3603,5.9947,5.9282,5.9056,5.8504,5.8353,5.8303,5.8303,5.8378,5.8227,5.7675,5.76,5.7223,5.6294,5.6219,5.6219,5.6219,5.6219,5.6219,5.6219,5.6219,5.6219,5.6219,5.4199,5.31,5.31,5.0607,4.8597,4.6888,4.4658,4.3711,4.3711,4.3711,4.3711,4.3711,4.3711,4.4023,4.4492,4.4433,4.4746,4.5273,4.5566,4.5723,4.582,4.6094,4.6191,4.6094,4.5371,4.5664,4.623,4.5801,4.5976,4.6308,4.6308,4.6055,4.5859,4.6211,4.6055,4.5859,4.6211,4.6308,4.6211,4.5859,4.5234,4.4687,4.4531,4.457,4.459,4.4512,4.4453,4.4394,4.4394,4.4004,4.3711,4.3711,4.3711,4.3711,4.3711,4.3711,4.3711,4.3711,4.3711,4.3711,4.3711,4.3711,4.3711,4.3711,4.3711,4.3711,4.3711,4.3711,4.3711,4.3711,4.3711,4.3711,4.3711,4.1807,4.0596,4.0259,3.8374,3.614,3.3907,3.3907,3.2867,3.1301,3.3556,3.5462,3.7003,3.9734,4.1807,4.3195,4.3623,4.4023,4.4336,6.5639,6.3948,6.1957,5.9338,5.8428,5.7926,5.7349,5.6872,5.6545,5.6545,5.6972,5.7047,5.6495,5.6445,5.6369,5.6219,5.6219,5.6219,5.6219,5.6219,5.6219,5.6219,5.6219,5.6219,5.6219,5.4199,5.31,5.31,4.9227,4.7208,4.6888,4.4658,4.3711,4.3711,4.3711,4.3711,4.3711,4.3711,4.418,4.4902,4.4551,4.5098,4.6094,4.5781,4.5898,4.6172,4.5879,4.5762,4.5742,4.5625,4.5898,4.623,4.5801,4.5976,4.6308,4.6308,4.6269,4.623,4.6289,4.6269,4.623,4.6289,4.6308,4.6289,4.623,4.6133,4.584,4.5098,4.5234,4.5391,4.5,4.4648,4.4394,4.4394,4.4004,4.3711,4.3711,4.3711,4.3711,4.3711,4.3711,4.3711,4.3711,4.3711,4.3711,4.3711,4.3711,4.3711,4.3711,4.3711,4.3711,4.3711,4.3711,4.3711,4.3711,4.3711,4.3711,4.3711,4.3361,4.2141,4.0259,3.9903,3.8545,3.6313,3.6313,3.614,3.5967,3.8357,3.8374,3.7175,4.1639,4.2141,4.0987,4.3452,4.4082,4.3867,6.4238,6.2685,6.1241,5.9034,5.8278,5.77,5.7123,5.6821,5.6671,5.6671,5.6872,5.6947,5.6696,5.6394,5.6219,5.6219,5.6219,5.6219,5.6219,5.6219,5.6219,5.6219,5.6219,5.6219,5.6219,5.31,5.1401,5.1401,4.828,4.6244,4.5148,4.4186,4.3711,4.3711,4.3711,4.3848,4.4082,4.3808,4.4219,4.498,4.457,4.5019,4.5937,4.5742,4.5937,4.6289,4.6094,4.6035,4.6035,4.6035,4.6152,4.6269,4.6094,4.6152,4.6308,4.6308,4.6133,4.5996,4.623,4.6133,4.6016,4.625,4.6308,4.6308,4.6308,4.6308,4.6133,4.5508,4.5547,4.5625,4.543,4.5234,4.5039,4.4785,4.4375,4.4004,4.373,4.3711,4.3711,4.3711,4.3711,4.3711,4.3711,4.3711,4.3711,4.3711,4.3711,4.3711,4.3711,4.3711,4.3711,4.3711,4.3711,4.3711,4.3711,4.3711,4.301,4.1807,4.301,4.2493,4.0427,4.1639,4.0259,3.683,3.8203,3.8032,3.7003,3.9395,3.9734,3.9055,4.2326,4.301,4.2383,4.3884,4.4101,4.3769]},{"header":{"parameterUnit":"m.s-1","parameterCategory":1,"la1":30.6,"la2":28.766,"lo1":-90.7593,"lo2":-88.6598,"dx":0.0162,"dy":0.0183,"nx":116,"ny":114,"refTime":"2023-01-21T18:00:00:Z","depth":0,"parameterNumber":3,"parameterNumberName":"V-component_of_WINDS"},"data":[0.0,0.0,0.0,0.0,0.0,0.0,0.0,0.0,0.0,0.0,0.0,0.0,0.0,0.0,0.0,0.0,0.0,0.0,0.0,0.0,0.0,0.0,0.0,0.0,0.0,0.0,0.0,0.0,0.0,0.0,0.0,0.0,0.0,0.0,0.0,0.0,0.0,0.0,0.0,0.0,0.0,0.0,0.0,0.0,0.0,0.0,0.0,0.0,0.0,0.0,0.0,0.0,0.0,0.0,0.0,0.0,0.0,0.0,0.0,0.0,0.0,0.0,0.0,0.0,0.0,0.0,0.0,0.0,0.0,0.0,0.0,0.0,0.0,0.0,0.0,0.0,0.0,0.0,0.0,0.0,0.0,0.0,0.0,0.0,0.0,0.0,0.0,0.0,0.0,0.0,0.0,0.0,0.0,0.0,0.0,0.0,0.0,0.0,0.0,0.0,0.0,0.0,0.0,0.0,0.0,0.0,0.0,0.0,0.0,0.0,0.0,0.0,0.0,0.0,0.0,0.0,0.0,0.0,0.0,0.0,0.0,0.0,0.0,0.0,0.0,0.0,0.0,0.0,0.0,0.0,0.0,0.0,0.0,0.0,0.0,0.0,0.0,0.0,0.0,0.0,0.0,0.0,0.0,0.0,0.0,0.0,0.0,0.0,0.0,0.0,0.0,0.0,0.0,0.0,0.0,0.0,0.0,0.0,0.0,0.0,0.0,0.0,0.0,0.0,0.0,0.0,0.0,0.0,0.0,0.0,0.0,0.0,0.0,0.0,0.0,0.0,0.0,0.0,0.0,0.0,0.0,0.0,0.0,0.0,0.0,0.0,0.0,0.0,0.0,0.0,0.0,0.0,0.0,0.0,0.0,0.0,0.0,0.0,0.0,0.0,0.0,0.0,0.0,0.0,0.0,0.0,0.0,0.0,0.0,0.0,0.0,0.0,0.0,0.0,0.0,0.0,0.0,0.0,0.0,0.0,0.0,0.0,0.0,0.0,0.0,0.0,0.0,0.0,0.0,0.0,0.0,0.0,0.0,0.0,0.0,0.0,0.0,0.0,0.0,0.0,0.0,0.0,0.0,0.0,0.0,0.0,0.0,0.0,0.0,0.0,0.0,0.0,0.0,0.0,0.0,0.0,0.0,0.0,0.0,0.0,0.0,0.0,0.0,0.0,0.0,0.0,0.0,0.0,0.0,0.0,0.0,0.0,0.0,0.0,0.0,0.0,0.0,0.0,0.0,0.0,0.0,0.0,0.0,0.0,0.0,0.0,0.0,0.0,0.0,0.0,0.0,0.0,0.0,0.0,0.0,0.0,0.0,0.0,0.0,0.0,0.0,0.0,0.0,0.0,0.0,0.0,0.0,0.0,0.0,0.0,0.0,0.0,0.0,0.0,0.0,0.0,0.0,0.0,0.0,0.0,0.0,0.0,0.0,0.0,0.0,0.0,0.0,0.0,0.0,0.0,0.0,0.0,0.0,0.0,0.0,0.0,0.0,0.0,0.0,0.0,0.0,0.0,0.0,0.0,0.0,0.0,0.0,0.0,0.0,0.0,0.0,0.0,0.0,0.0,0.0,0.0,0.0,0.0,0.0,0.0,0.0,0.0,0.0,0.0,0.0,0.0,0.0,0.0,0.0,0.0,0.0,0.0,0.0,0.0,0.0,0.0,0.0,0.0,0.0,0.0,0.0,0.0,0.0,0.0,0.0,0.0,0.0,0.0,0.0,0.0,0.0,0.0,0.0,0.0,0.0,0.0,0.0,0.0,0.0,0.0,0.0,0.0,0.0,0.0,0.0,0.0,0.0,0.0,0.0,0.0,0.0,0.0,0.0,0.0,0.0,0.0,0.0,0.0,0.0,0.0,0.0,0.0,0.0,0.0,0.0,0.0,0.0,0.0,0.0,0.0,0.0,0.0,0.0,0.0,0.0,0.0,0.0,0.0,0.0,0.0,0.0,0.0,0.0,0.0,0.0,0.0,0.0,0.0,0.0,0.0,0.0,0.0,0.0,0.0,0.0,0.0,0.0,0.0,0.0,0.0,0.0,0.0,0.0,0.0,0.0,0.0,0.0,0.0,0.0,0.0,0.0,0.0,0.0,0.0,0.0,0.0,0.0,0.0,0.0,0.0,0.0,0.0,0.0,0.0,0.0,0.0,0.0,0.0,0.0,0.0,0.0,0.0,0.0,0.0,0.0,0.0,0.0,0.0,0.0,0.0,0.0,0.0,0.0,0.0,0.0,0.0,0.0,0.0,0.0,0.0,0.0,0.0,0.0,0.0,0.0,0.0,0.0,0.0,0.0,0.0,0.0,0.0,0.0,0.0,0.0,0.0,0.0,0.0,0.0,0.0,0.0,0.0,0.0,0.0,0.0,0.0,0.0,0.0,0.0,0.0,0.0,0.0,0.0,0.0,0.0,0.0,0.0,0.0,0.0,0.0,0.0,0.0,0.0,0.0,0.0,0.0,0.0,0.0,0.0,0.0,0.0,0.0,0.0,0.0,0.0,0.0,0.0,0.0,0.0,0.0,0.0,0.0,0.0,0.0,0.0,0.0,0.0,0.0,0.0,0.0,0.0,0.0,0.0,0.0,0.0,0.0,0.0,0.0,0.0,0.0,0.0,0.0,0.0,0.0,0.0,0.0,0.0,0.0,0.0,0.0,0.0,0.0,0.0,0.0,0.0,0.0,0.0,0.0,0.0,0.0,0.0,0.0,0.0,0.0,0.0,0.0,0.0,0.0,0.0,0.0,0.0,0.0,0.0,0.0,0.0,0.0,0.0,0.0,0.0,0.0,0.0,0.0,0.0,0.0,0.0,0.0,0.0,0.0,0.0,0.0,0.0,0.0,0.0,0.0,0.0,0.0,0.0,0.0,0.0,0.0,0.0,0.0,0.0,0.0,0.0,0.0,0.0,0.0,0.0,0.0,0.0,0.0,0.0,0.0,0.0,0.0,0.0,0.0,0.0,0.0,0.0,0.0,0.0,0.0,0.0,0.0,0.0,0.0,0.0,0.0,0.0,0.0,0.0,0.0,0.0,0.0,0.0,0.0,0.0,0.0,0.0,0.0,0.0,0.0,0.0,0.0,0.0,0.0,0.0,0.0,0.0,0.0,0.0,0.0,0.0,0.0,0.0,0.0,0.0,0.0,0.0,0.0,0.0,0.0,0.0,0.0,0.0,0.0,0.0,0.0,0.0,0.0,0.0,0.0,0.0,0.0,0.0,0.0,0.0,0.0,0.0,0.0,0.0,0.0,0.0,0.0,0.0,0.0,0.0,0.0,0.0,0.0,0.0,0.0,0.0,0.0,0.0,0.0,0.0,0.0,0.0,0.0,0.0,0.0,0.0,0.0,0.0,0.0,0.0,0.0,0.0,0.0,0.0,0.0,0.0,0.0,0.0,0.0,0.0,0.0,0.0,0.0,0.0,0.0,0.0,0.0,0.0,0.0,0.0,0.0,0.0,0.0,0.0,0.0,0.0,0.0,0.0,0.0,0.0,0.0,0.0,0.0,0.0,0.0,0.0,0.0,0.0,0.0,0.0,0.0,0.0,0.0,0.0,0.0,0.0,0.0,0.0,0.0,0.0,0.0,0.0,0.0,0.0,0.0,0.0,0.0,0.0,0.0,0.0,0.0,0.0,0.0,0.0,0.0,0.0,0.0,0.0,0.0,0.0,0.0,0.0,0.0,0.0,0.0,0.0,0.0,0.0,0.0,0.0,0.0,0.0,0.0,0.0,0.0,0.0,0.0,0.0,0.0,0.0,0.0,0.0,0.0,0.0,0.0,0.0,0.0,0.0,0.0,0.0,0.0,0.0,0.0,0.0,0.0,0.0,0.0,0.0,0.0,0.0,0.0,0.0,0.0,0.0,0.0,0.0,0.0,0.0,0.0,0.0,0.0,0.0,0.0,0.0,0.0,0.0,0.0,0.0,0.0,0.0,0.0,0.0,0.0,0.0,0.0,0.0,0.0,0.0,0.0,0.0,0.0,0.0,0.0,0.0,0.0,0.0,0.0,0.0,0.0,0.0,0.0,0.0,0.0,0.0,0.0,0.0,0.0,0.0,0.0,0.0,0.0,0.0,0.0,0.0,0.0,0.0,0.0,0.0,0.0,0.0,0.0,0.0,0.0,0.0,0.0,0.0,0.0,0.0,0.0,0.0,0.0,0.0,0.0,0.0,0.0,0.0,0.0,0.0,0.0,0.0,0.0,0.0,0.0,0.0,0.0,0.0,0.0,0.0,0.0,0.0,0.0,0.0,0.0,0.0,0.0,0.0,0.0,0.0,0.0,0.0,0.0,0.0,0.0,0.0,0.0,0.0,0.0,0.0,0.0,0.0,0.0,0.0,0.0,0.0,0.0,0.0,0.0,0.0,0.0,0.0,0.0,0.0,0.0,0.0,0.0,0.0,0.0,0.0,0.0,0.0,0.0,0.0,0.0,0.0,0.0,0.0,0.0,0.0,0.0,0.0,0.0,0.0,0.0,0.0,0.0,0.0,0.0,0.0,0.0,0.0,0.0,0.0,0.0,0.0,0.0,0.0,0.0,0.0,0.0,0.0,0.0,0.0,0.0,0.0,0.0,0.0,0.0,0.0,0.0,0.0,0.0,0.0,0.0,0.0,0.0,0.0,0.0,0.0,0.0,0.0,0.0,0.0,0.0,0.0,0.0,0.0,0.0,0.0,0.0,0.0,0.0,0.0,0.0,0.0,0.0,0.0,0.0,0.0,0.0,0.0,0.0,0.0,0.0,0.0,0.0,0.0,0.0,0.0,0.0,0.0,0.0,0.0,0.0,0.0,0.0,0.0,0.0,0.0,0.0,0.0,0.0,0.0,0.0,0.0,0.0,0.0,0.0,0.0,0.0,0.0,0.0,0.0,0.0,0.0,0.0,0.0,0.0,0.0,0.0,0.0,0.0,0.0,0.0,0.0,0.0,0.0,0.0,0.0,0.0,0.0,0.0,0.0,0.0,0.0,0.0,0.0,0.0,0.0,0.0,0.0,0.0,0.0,0.0,0.0,0.0,0.0,0.0,0.0,0.0,0.0,0.0,0.0,0.0,0.0,0.0,0.0,0.0,0.0,0.0,0.0,0.0,0.0,0.0,0.0,0.0,0.0,0.0,0.0,0.0,0.0,0.0,0.0,0.0,0.0,0.0,0.0,0.0,0.0,0.0,0.0,0.0,0.0,0.0,0.0,0.0,0.0,0.0,0.0,0.0,0.0,0.0,0.0,0.0,0.0,0.0,0.0,0.0,0.0,0.0,0.0,0.0,0.0,0.0,0.0,0.0,0.0,0.0,0.0,0.0,0.0,0.0,0.0,0.0,0.0,0.0,0.0,0.0,0.0,0.0,0.0,0.0,0.0,0.0,0.0,0.0,0.0,0.0,0.0,0.0,0.0,0.0,0.0,0.0,0.0,0.0,0.0,0.0,0.0,0.0,0.0,0.0,0.0,0.0,0.0,0.0,0.0,0.0,0.0,0.0,0.0,0.0,0.0,0.0,0.0,0.0,0.0,0.0,0.0,0.0,0.0,0.0,0.0,0.0,0.0,0.0,0.0,0.0,0.0,0.0,0.0,0.0,0.0,0.0,0.0,0.0,0.0,0.0,0.0,0.0,0.0,0.0,0.0,0.0,0.0,0.0,0.0,0.0,0.0,0.0,0.0,0.0,0.0,0.0,0.0,0.0,0.0,0.0,0.0,0.0,0.0,0.0,0.0,0.0,0.0,0.0,0.0,0.0,0.0,0.0,0.0,0.0,0.0,0.0,0.0,0.0,0.0,0.0,0.0,0.0,0.0,0.0,0.0,0.0,0.0,0.0,0.0,0.0,0.0,0.0,0.0,0.0,0.0,0.0,0.0,0.0,0.0,0.0,0.0,0.0,0.0,0.0,0.0,0.0,0.0,0.0,0.0,0.0,0.0,0.0,0.0,0.0,0.0,0.0,0.0,0.0,0.0,0.0,0.0,0.0,0.0,0.0,0.0,0.0,0.0,0.0,0.0,0.0,0.0,0.0,0.0,0.0,0.0,0.0,0.0,0.0,0.0,0.0,0.0,0.0,0.0,0.0,0.0,0.0,0.0,0.0,0.0,0.0,0.0,0.0,0.0,0.0,-6.0981,-6.1722,0.0,0.0,0.0,0.0,0.0,0.0,0.0,0.0,0.0,0.0,0.0,0.0,0.0,0.0,0.0,0.0,0.0,0.0,0.0,0.0,0.0,0.0,0.0,0.0,0.0,0.0,0.0,0.0,0.0,0.0,0.0,0.0,0.0,0.0,0.0,0.0,0.0,0.0,0.0,0.0,0.0,0.0,0.0,0.0,0.0,0.0,0.0,0.0,0.0,0.0,0.0,0.0,0.0,0.0,0.0,0.0,0.0,0.0,0.0,0.0,0.0,0.0,0.0,0.0,0.0,0.0,0.0,0.0,0.0,0.0,0.0,0.0,0.0,0.0,0.0,0.0,0.0,0.0,0.0,0.0,0.0,0.0,0.0,0.0,0.0,0.0,0.0,0.0,0.0,0.0,0.0,0.0,0.0,0.0,0.0,0.0,0.0,0.0,0.0,0.0,0.0,0.0,0.0,0.0,0.0,0.0,0.0,0.0,0.0,0.0,0.0,0.0,0.0,0.0,-6.4082,-6.2978,0.0,0.0,0.0,0.0,0.0,0.0,0.0,0.0,0.0,0.0,0.0,0.0,0.0,0.0,0.0,0.0,0.0,0.0,0.0,0.0,0.0,0.0,0.0,0.0,0.0,0.0,0.0,0.0,0.0,0.0,0.0,0.0,0.0,0.0,0.0,0.0,0.0,0.0,0.0,0.0,0.0,0.0,0.0,0.0,0.0,0.0,0.0,0.0,0.0,0.0,0.0,0.0,0.0,0.0,0.0,0.0,0.0,0.0,0.0,0.0,0.0,0.0,0.0,0.0,0.0,0.0,0.0,0.0,0.0,0.0,0.0,0.0,0.0,0.0,0.0,0.0,0.0,0.0,0.0,0.0,0.0,0.0,0.0,0.0,0.0,0.0,0.0,0.0,0.0,0.0,0.0,0.0,0.0,0.0,0.0,0.0,0.0,0.0,0.0,0.0,0.0,0.0,0.0,0.0,0.0,0.0,0.0,0.0,-6.7283,-6.8641,-7.0697,-7.1168,-7.1761,-7.2146,-6.7766,-6.5004,-6.3614,-6.397,0.0,0.0,0.0,0.0,0.0,0.0,0.0,0.0,0.0,0.0,0.0,0.0,0.0,0.0,0.0,0.0,0.0,0.0,0.0,0.0,0.0,0.0,-5.0365,-5.0269,-5.0518,-5.0898,0.0,0.0,0.0,0.0,0.0,0.0,0.0,0.0,0.0,0.0,0.0,0.0,-5.5842,-5.6328,-5.7495,-5.8865,-5.4486,0.0,0.0,0.0,0.0,0.0,0.0,0.0,0.0,0.0,0.0,0.0,0.0,0.0,0.0,0.0,0.0,0.0,0.0,0.0,0.0,0.0,0.0,0.0,0.0,0.0,0.0,0.0,0.0,0.0,0.0,0.0,0.0,0.0,0.0,0.0,0.0,0.0,0.0,0.0,0.0,0.0,0.0,0.0,-5.785,-5.785,0.0,0.0,0.0,0.0,0.0,0.0,0.0,0.0,0.0,0.0,0.0,0.0,0.0,-6.6145,-6.9853,-7.0073,-7.0991,-7.2569,-7.1982,-7.2239,-7.323,-7.3309,-7.3382,-7.3513,-7.3945,0.0,-7.0127,-6.8143,0.0,0.0,0.0,0.0,0.0,0.0,0.0,0.0,0.0,0.0,0.0,0.0,0.0,0.0,0.0,0.0,0.0,0.0,0.0,0.0,0.0,-4.918,-4.9334,-4.9735,-5.0289,-5.0672,0.0,0.0,0.0,0.0,0.0,0.0,0.0,0.0,0.0,0.0,-5.5048,-5.5812,-5.7541,-5.7656,-5.852,-5.9895,-5.7695,-5.7433,-5.8529,-5.7789,0.0,0.0,0.0,0.0,0.0,0.0,0.0,0.0,0.0,0.0,0.0,0.0,0.0,0.0,0.0,0.0,0.0,0.0,0.0,0.0,0.0,0.0,0.0,0.0,0.0,0.0,0.0,0.0,0.0,0.0,0.0,0.0,0.0,0.0,0.0,0.0,0.0,0.0,0.0,-5.9245,-6.0566,-5.8253,-6.0639,-6.1484,0.0,0.0,0.0,0.0,0.0,0.0,0.0,0.0,0.0,-6.8054,-6.8495,-6.9963,-7.2606,-7.356,-7.5065,-7.7121,-7.7671,-7.8626,-7.9837,-8.0277,-8.0498,-8.0498,-8.1107,-7.9934,-7.7181,-7.2557,-6.9976,-6.8696,0.0,0.0,0.0,0.0,-6.5804,-6.5349,0.0,0.0,0.0,0.0,0.0,0.0,0.0,0.0,0.0,0.0,0.0,0.0,-4.8237,-4.8596,-4.8985,-4.9464,-5.0239,-5.0574,-5.0337,0.0,0.0,0.0,0.0,0.0,0.0,0.0,0.0,0.0,-5.5875,-5.7346,-5.944,-5.9921,-6.0835,-6.2121,-6.245,-6.195,-6.093,-6.0372,-5.9145,0.0,0.0,0.0,0.0,0.0,0.0,0.0,0.0,0.0,0.0,0.0,0.0,0.0,0.0,0.0,0.0,0.0,0.0,0.0,0.0,0.0,0.0,0.0,0.0,0.0,0.0,0.0,0.0,0.0,0.0,0.0,0.0,0.0,0.0,0.0,0.0,0.0,0.0,-6.0933,-6.2475,-5.9024,-6.2585,-6.3943,0.0,0.0,0.0,0.0,0.0,0.0,-6.7614,-6.8311,-7.0036,-7.3083,-7.3597,-7.4771,-7.6754,-7.8185,-7.991,-8.1966,-8.3361,-8.4572,-8.5563,-8.6334,-8.6591,-8.6407,-8.6187,-8.4976,-8.2655,-7.6973,-7.3677,-7.2219,-7.0798,-6.9789,-6.9199,-6.9896,-6.9702,-6.9245,0.0,0.0,0.0,0.0,0.0,0.0,0.0,0.0,0.0,0.0,0.0,-4.9328,-4.8443,-4.9404,-5.0152,-5.0182,-5.0182,-5.0668,-5.1642,-5.1165,0.0,0.0,0.0,0.0,0.0,0.0,0.0,-5.4761,-5.8622,-6.0713,-6.1096,-6.4126,-6.6311,-6.7627,-6.8914,-6.7728,-6.4553,-6.1268,-6.0741,-6.1808,0.0,0.0,0.0,0.0,0.0,0.0,0.0,0.0,0.0,0.0,0.0,0.0,0.0,0.0,0.0,0.0,0.0,0.0,0.0,0.0,0.0,0.0,0.0,0.0,0.0,0.0,0.0,0.0,0.0,0.0,0.0,0.0,0.0,0.0,0.0,0.0,0.0,0.0,0.0,-6.0493,-6.5228,0.0,0.0,0.0,0.0,-6.8311,-6.9192,-7.1064,-7.4258,-7.4478,-7.5652,-7.8148,-7.9727,-8.2039,-8.5159,-8.604,-8.6921,-8.7802,-8.8647,-8.8683,-8.8059,-8.8867,-8.883,-8.8023,-8.7288,-8.6444,-8.527,-8.1112,-7.761,-7.461,-7.3823,-7.3014,-7.2336,-7.2897,-7.2738,-7.2411,0.0,0.0,0.0,0.0,0.0,0.0,0.0,0.0,0.0,-4.7452,-4.8736,-4.9627,-4.9044,-5.0092,-5.1199,-5.2067,-5.1738,-5.1686,-5.2029,-5.0667,0.0,0.0,0.0,0.0,0.0,0.0,-5.5564,-5.69,-5.9652,-6.2122,-6.4306,-6.6873,-6.8789,-6.9901,-7.183,-7.2368,-7.1521,-6.7332,-6.4457,-6.2541,-6.1069,-5.9679,0.0,0.0,0.0,0.0,0.0,0.0,0.0,0.0,0.0,0.0,0.0,0.0,0.0,0.0,0.0,0.0,0.0,0.0,0.0,0.0,0.0,0.0,0.0,0.0,0.0,0.0,0.0,0.0,0.0,0.0,0.0,0.0,0.0,0.0,0.0,0.0,0.0,-6.5962,-7.0403,0.0,-7.0073,-7.0624,-7.1578,-7.2679,-7.4001,-7.5946,-7.8699,-8.0314,-8.2039,-8.3948,-8.5563,-8.7215,-8.8867,-8.9674,-9.0519,-9.1363,-9.217,-9.2134,-9.1363,-9.1657,-9.1033,-8.9748,-8.9454,-8.8573,-8.7215,-8.5783,-8.3287,-8.0314,-7.947,-7.8662,-7.8038,-7.8762,-7.8223,-7.7353,0.0,0.0,0.0,0.0,0.0,0.0,0.0,0.0,0.0,-4.7988,-4.9449,-5.0368,-4.9674,-5.1169,-5.2665,-5.3773,-5.3473,-5.3114,-5.2905,-5.102,0.0,0.0,0.0,0.0,0.0,-5.4941,-5.7001,-5.9458,-6.1672,-6.4096,-6.67,-6.9694,-7.166,-7.2888,-7.5339,-7.6588,-7.6581,-7.3386,-6.9635,-6.5777,-6.3825,-6.2807,-6.2133,0.0,0.0,0.0,0.0,0.0,0.0,0.0,0.0,0.0,0.0,0.0,0.0,0.0,0.0,0.0,0.0,0.0,0.0,0.0,0.0,0.0,0.0,0.0,0.0,0.0,0.0,0.0,0.0,0.0,0.0,0.0,0.0,0.0,0.0,0.0,-7.0513,-7.0513,-7.5285,-7.7818,-7.5946,-7.6717,-7.7708,-7.8516,-8.0094,-8.1929,-8.4132,-8.6004,-8.7655,-8.9014,-9.0372,-9.1436,-9.2244,-9.2794,-9.3345,-9.3932,-9.474,-9.441,-9.3125,-9.3382,-9.2611,-9.0996,-9.0739,-8.9858,-8.8573,-8.8316,-8.6775,-8.4535,-8.3728,-8.292,-8.226,-8.2517,-8.1929,-8.1076,0.0,0.0,0.0,0.0,0.0,0.0,0.0,0.0,-5.1122,-4.9023,-5.0862,-5.1748,-5.0365,-5.2636,-5.4491,-5.5209,-5.5209,-5.491,-5.4281,-5.2306,0.0,0.0,0.0,0.0,-5.5622,-5.7372,-5.9578,-6.2211,-6.4814,-6.6789,-6.829,-7.2614,-7.5278,-7.6677,-7.9726,-8.0491,-7.9569,-7.8785,-7.6303,-7.219,-6.7025,-6.5561,-6.613,0.0,0.0,0.0,0.0,0.0,0.0,0.0,0.0,0.0,0.0,0.0,0.0,0.0,0.0,0.0,0.0,0.0,0.0,0.0,0.0,0.0,0.0,0.0,0.0,0.0,0.0,0.0,0.0,0.0,0.0,0.0,0.0,0.0,-6.4273,-6.9816,-7.3891,-7.4001,-7.9653,-8.2663,-8.0351,-8.2957,-8.5123,-8.5967,-8.7472,-8.905,-9.0629,-9.1473,-9.2281,-9.3161,-9.3969,-9.474,-9.5547,-9.5547,-9.5547,-9.5547,-9.6318,-9.5474,-9.3198,-9.3969,-9.3418,-9.1803,-9.1033,-9.0262,-8.9417,-8.8647,-8.7839,-8.6995,-8.6151,-8.5343,-8.4535,-8.3765,-8.3471,-8.3287,0.0,0.0,0.0,0.0,0.0,0.0,0.0,-4.8781,-4.9896,-4.735,-5.009,-5.1937,-5.0996,-5.2905,-5.5059,-5.7124,-5.5568,-5.461,-5.491,0.0,0.0,0.0,0.0,0.0,-5.6707,-6.0066,-6.278,-6.4934,-6.7119,-6.9333,-7.1708,-7.5276,-7.7211,-7.8045,-8.1794,-8.3574,-8.3739,-8.2301,-8.1806,-8.1095,-7.2481,-6.8956,-6.8766,0.0,0.0,0.0,0.0,0.0,0.0,0.0,0.0,0.0,0.0,0.0,0.0,0.0,0.0,0.0,0.0,0.0,0.0,0.0,0.0,0.0,0.0,0.0,0.0,0.0,0.0,0.0,0.0,0.0,0.0,0.0,0.0,-6.8458,-6.8458,-7.3523,-7.8112,-8.0461,-8.4389,-8.7068,-8.7582,-8.8426,-8.9564,-9.0996,-9.151,-9.2207,-9.3235,-9.4042,-9.4593,-9.485,-9.5621,-9.6135,-9.6392,-9.6392,-9.6392,-9.6392,-9.6575,-9.6061,-9.485,-9.507,-9.4299,-9.2758,-9.3125,-9.2464,-9.1106,-9.0886,-9.0005,-8.861,-8.7215,-8.6187,-8.5416,-8.5233,-8.4389,-8.3287,0.0,0.0,0.0,0.0,0.0,0.0,0.0,-4.8604,-4.9809,-4.766,-5.0235,-5.1999,-5.1329,-5.3025,-5.494,-5.6735,-5.5508,-5.4431,-5.3952,0.0,0.0,0.0,0.0,-5.7244,-5.9937,-6.2839,-6.5533,-6.8046,-6.9782,-7.1697,-7.3732,-7.6957,-7.9132,-8.0487,-8.3788,-8.5657,-8.6316,-8.4564,-8.4599,-8.516,-7.8312,-7.4905,-7.3737,-7.1681,-7.1113,-7.1259,-6.9917,-6.9891,-6.9992,-6.6745,0.0,0.0,0.0,0.0,0.0,0.0,0.0,0.0,0.0,0.0,0.0,0.0,0.0,0.0,0.0,0.0,0.0,0.0,0.0,0.0,0.0,0.0,0.0,0.0,-7.0587,-7.4147,-7.5469,-7.8809,-8.2296,-8.5563,-8.85,-9.0739,-9.2024,-9.2464,-9.3198,-9.452,-9.4593,-9.4813,-9.529,-9.5768,-9.6025,-9.6025,-9.6465,-9.6685,-9.6685,-9.6685,-9.6685,-9.6685,-9.6685,-9.6282,-9.5511,-9.5511,-9.4813,-9.3602,-9.3749,-9.3051,-9.1767,-9.1436,-9.0372,-8.883,0.0,0.0,0.0,0.0,-8.4499,-8.3287,0.0,0.0,0.0,0.0,0.0,0.0,0.0,-4.8743,-4.9895,-4.8488,-5.0416,-5.1696,-5.1026,-5.2725,-5.4251,-5.5209,-5.497,-5.3982,0.0,0.0,0.0,-5.4551,-5.6705,-5.9907,-6.4246,-6.5862,-6.8166,-7.1248,-7.2595,-7.3911,-7.5228,-7.8163,-8.0857,-8.3226,-8.5401,-8.6853,-8.7479,-8.5728,-8.5467,-8.6011,-8.3631,-8.1621,-7.9812,-7.7245,-7.6624,-7.6926,-7.5639,-7.4559,-7.3341,-7.1447,0.0,0.0,0.0,0.0,0.0,0.0,0.0,0.0,0.0,0.0,0.0,0.0,0.0,0.0,0.0,0.0,0.0,0.0,0.0,0.0,0.0,0.0,0.0,0.0,-7.5689,-8.0424,-8.3765,-8.5086,-8.6738,-8.9491,-9.184,-9.3602,-9.4483,-9.5144,-9.5878,-9.6759,-9.6759,-9.6685,-9.6685,-9.6685,0.0,0.0,0.0,-9.6685,-9.6685,-9.6685,-9.6685,-9.6685,-9.6685,-9.6318,-9.5658,-9.5658,-9.5254,-9.452,-9.3822,-9.2978,-9.2024,-9.1326,-8.9968,-8.8316,-8.8023,-8.7509,-8.6664,-8.5049,-8.4022,-8.3287,0.0,0.0,0.0,0.0,0.0,0.0,0.0,-4.6051,-4.706,-4.5374,-4.7711,-4.9519,-4.9674,-5.093,-5.2935,-5.5748,-5.3533,-5.1828,0.0,0.0,-5.476,-5.7274,-6.0775,-6.3827,-6.634,-6.9243,-7.1577,-7.3313,-7.4659,-7.5976,-7.7233,-7.9268,-8.1415,-8.3835,-8.4732,-8.6009,-8.7479,-8.6243,-8.5751,-8.5811,-8.4494,-8.403,-8.4072,-8.2995,-8.2439,-8.1873,-7.9837,-8.0073,-8.0648,-7.6149,-7.5946,-7.6893,-7.2834,0.0,0.0,0.0,0.0,0.0,0.0,0.0,0.0,0.0,0.0,0.0,0.0,0.0,0.0,0.0,0.0,0.0,0.0,0.0,0.0,-7.6203,-8.0608,-8.4792,-8.8683,-9.1069,-9.2391,-9.2391,-9.3382,-9.463,-9.6098,-9.5804,-9.6098,-9.7566,-9.7052,-9.6685,-9.6685,-9.6685,-9.6685,-9.6685,-9.6685,-9.6685,-9.6685,-9.6685,-9.6685,-9.6685,-9.6685,0.0,-9.6465,-9.6465,-9.6392,-9.6245,-9.6061,-9.518,-9.3786,-9.3639,-9.184,-8.8977,-8.7031,-8.6151,-8.582,-8.4242,-8.3544,-8.3287,0.0,0.0,0.0,0.0,0.0,0.0,0.0,-4.555,-4.6511,-4.547,-4.766,-4.9351,-4.9314,-5.0152,-5.1379,-5.3054,-5.1379,0.0,0.0,-5.4281,-5.6944,-6.0894,-6.3917,-6.6729,-6.9363,-7.1697,-7.3702,-7.5347,-7.6365,-7.7352,-7.831,-7.9183,-8.0847,-8.3227,-8.3542,-8.5201,-8.7632,-8.6269,-8.6759,-8.8395,-8.6619,-8.7349,-8.9294,-8.6678,-8.5466,-8.5196,-8.5245,-8.5452,-8.5249,-8.1866,-8.0987,-8.0716,-7.7367,-7.4796,-7.2326,0.0,0.0,0.0,0.0,0.0,0.0,0.0,0.0,0.0,0.0,0.0,0.0,0.0,0.0,-6.6412,0.0,0.0,-7.6121,-7.9755,-8.3754,-8.745,-9.0502,-9.2691,-9.4014,-9.4261,-9.4997,-9.5804,-9.6612,-9.6355,-9.6612,-9.7787,-9.7163,-9.6869,-9.7273,-9.6906,-9.6869,-9.7273,-9.6906,-9.6906,-9.7309,-9.6906,-9.6685,-9.6685,-9.6685,-9.6685,-9.6685,-9.6685,-9.6685,-9.6649,-9.5841,-9.5034,-9.4153,-9.2537,-9.0886,-8.9234,-8.7178,-8.6151,-8.571,-8.4903,-8.4609,-8.4425,0.0,0.0,0.0,0.0,0.0,0.0,0.0,0.0,0.0,-4.6107,-4.7836,-4.9035,-4.8715,-4.9284,-4.9764,-4.9915,0.0,0.0,0.0,-5.5969,-5.9099,-6.4336,-6.661,-6.9183,-7.2206,-7.3702,-7.5288,-7.7023,-7.7801,-7.846,-7.8998,-7.9118,-8.0456,-8.2837,-8.2573,-8.4404,-8.7561,-8.608,-8.7135,-8.9874,-8.8043,-8.9591,-9.2631,-8.9097,-8.8235,-8.8863,-9.0337,-8.9816,-8.826,-8.7042,-8.5249,-8.3219,-8.1562,-7.9837,-7.7468,-7.2665,-7.1379,0.0,0.0,0.0,0.0,0.0,0.0,0.0,0.0,0.0,-6.4992,-6.5799,-6.8068,-7.0937,-7.4616,-7.7696,-8.0527,-8.2854,-8.6364,-8.9431,-9.1269,-9.312,-9.4674,-9.5711,-9.6311,-9.6832,-9.7126,-9.7016,-9.7346,-9.8264,-9.7493,-9.7273,-9.808,-9.7236,-9.7052,-9.786,-9.7126,-9.7016,-9.764,-9.7016,-9.6685,-9.6685,-9.6685,-9.6685,-9.6685,-9.6685,-9.6685,-9.6612,-9.4997,-9.4189,-9.3859,-9.1033,-8.9711,-8.9271,-8.7986,-8.6885,-8.6004,-8.5673,-8.5563,-8.5343,0.0,0.0,0.0,0.0,0.0,0.0,0.0,0.0,0.0,-4.5334,-4.6137,-4.6646,-4.6651,-4.7249,-4.8011,0.0,0.0,0.0,-5.6234,-5.7855,-6.1134,-6.643,-6.9093,-7.1457,-7.3612,-7.5527,-7.6904,-7.7711,-7.8968,-7.9627,-7.9716,-8.0315,-8.185,-8.409,-8.3092,-8.4086,-8.6432,-8.5819,-8.5929,-8.6295,-8.6681,-8.8043,-8.9994,-9.0602,-9.2351,-9.4678,-9.3588,-9.1812,-8.9951,-8.9782,-8.8666,-8.7448,-8.782,-8.6061,-8.3186,-7.9904,0.0,-7.1718,-6.9079,0.0,0.0,-6.3193,-6.326,-6.3531,0.0,0.0,-6.9644,-7.0471,-7.3583,-7.6973,-7.9522,-8.2028,-8.4511,-8.6999,-8.9562,-9.1528,-9.2494,-9.4966,-9.6755,-9.6928,-9.683,-9.7273,-9.8704,-9.819,-9.8374,-9.9916,-9.8631,-9.8117,-9.8924,-9.753,-9.7052,-9.786,-9.7126,-9.6722,-9.6832,-9.6722,-9.6685,-9.6685,-9.6685,-9.6685,-9.6685,-9.6685,-9.6685,-9.6612,-9.4997,-9.3896,-9.3161,-9.1987,-9.0702,-8.9381,-8.9234,-8.8206,-8.6701,-8.527,-8.4719,-8.4499,0.0,0.0,0.0,0.0,0.0,0.0,0.0,0.0,0.0,0.0,-4.5903,-4.6471,-4.686,-4.7667,0.0,0.0,0.0,0.0,-5.7043,-5.8412,-6.1822,-6.7897,-7.032,-7.2624,-7.5018,-7.6604,-7.7921,-7.8968,-7.9537,-8.0016,-8.0405,-8.0674,-8.1536,-8.2845,-8.286,-8.3763,-8.5365,-8.5984,-8.6718,-8.7596,-8.9012,-9.0957,-9.2994,-9.3314,-9.4183,-9.4789,-9.1981,-8.9545,0.0,-8.6602,-8.6196,-8.6332,-8.7922,-8.6095,-8.305,-8.1325,-7.713,0.0,-6.9248,0.0,0.0,0.0,-6.8368,-7.0161,-7.0906,-7.3308,-7.5466,-7.5773,-7.8245,-8.0765,-8.2693,-8.4923,-8.7021,0.0,-9.026,-9.1748,-9.2856,-9.3735,-9.4539,-9.5554,-9.5663,-9.6486,-9.8846,-9.8374,-9.8557,-10.0209,-9.9255,-9.8961,-9.9769,-9.8264,-9.775,-9.8557,-9.7346,-9.6906,-9.7383,-9.6942,-9.6685,-9.6685,-9.6685,-9.6685,-9.6685,-9.6685,-9.6171,-9.5254,-9.4593,-9.3565,-9.2244,-9.0959,-9.0298,-8.9968,-8.8573,-8.7876,-8.7545,-8.6407,-8.571,-8.5123,0.0,0.0,0.0,0.0,0.0,0.0,0.0,0.0,0.0,0.0,0.0,0.0,0.0,0.0,0.0,0.0,0.0,0.0,0.0,-5.8563,-6.195,-6.7897,-7.0769,-7.3373,-7.5856,-7.7322,-7.8639,-7.9806,-8.0016,-8.0434,-8.1063,-8.1272,-8.1691,-8.235,-8.3008,-8.3936,-8.5073,-8.6958,-8.8389,-8.9426,-9.1483,-9.3501,-9.5251,-9.4317,-9.3257,-9.1913,-8.941,-8.667,-8.3964,-8.2238,-8.1765,-8.2272,-8.4505,-8.3389,-8.1054,-8.0276,-7.6521,-7.1988,-6.9248,0.0,0.0,-7.0737,-7.3409,-7.6048,-7.6758,-7.9025,-8.1021,-8.1224,-8.3016,-8.4945,-8.623,-8.782,-8.914,-8.9884,-9.1068,-9.2225,-9.321,-9.3127,-9.3478,-9.4696,-9.4583,-9.5591,-9.8516,-9.8447,-9.8814,-10.0209,-9.9769,-9.9769,-10.0613,-9.9108,-9.8594,-9.9402,-9.786,-9.7309,-9.7897,-9.7089,-9.6685,-9.6685,-9.6685,-9.6685,-9.6685,-9.6685,-9.5951,-9.463,-9.441,-9.3492,-9.206,-9.0665,-9.0152,-9.0115,-8.8353,-8.7766,-8.7766,-8.6958,-8.6151,-8.5343,0.0,0.0,0.0,0.0,0.0,0.0,0.0,0.0,0.0,0.0,0.0,0.0,0.0,0.0,0.0,0.0,0.0,0.0,0.0,-5.8491,-6.1645,-6.5862,-7.047,-7.3821,-7.5856,-7.7771,-7.9118,-7.9806,-8.0464,-8.1093,-8.1751,-8.2409,-8.3038,-8.3696,-8.4354,-8.5043,-8.5888,-8.9054,-9.0371,-9.0616,-9.3152,-9.4649,-9.4848,-9.1791,-8.8808,-8.6129,-8.6771,-8.4133,-8.004,0.0,-7.6115,-7.5303,-7.757,-7.8213,0.0,-7.7232,-7.3849,0.0,0.0,0.0,-7.1921,-7.4796,-7.7266,-7.916,-7.9904,-8.2915,-8.579,-8.6535,-8.8429,-9.0222,-9.0966,-9.1135,-9.144,-9.2184,-9.2996,-9.3503,-9.3621,-9.4644,-9.5332,-9.5109,-9.4195,-9.4757,0.0,-9.8631,-9.9402,-10.0209,-10.0283,-10.0613,-10.1384,-9.9952,-9.9438,-10.0209,-9.8704,-9.786,-9.7897,-9.7089,-9.6685,-9.6685,-9.6685,-9.6685,-9.6685,-9.6685,-9.6245,-9.5437,-9.463,-9.3822,-9.2978,-9.2097,-9.0812,-8.9454,-8.9381,-8.839,-8.6958,-8.6114,-8.5306,-8.4535,0.0,0.0,0.0,0.0,0.0,0.0,0.0,0.0,0.0,0.0,0.0,0.0,0.0,0.0,0.0,0.0,0.0,0.0,0.0,-5.7497,-6.0328,-6.3579,-6.7844,-7.1334,-7.3851,-7.697,-7.8977,-7.9806,-8.1683,-8.2867,-8.3541,-8.4215,-8.5339,-8.6667,-8.7968,-8.8595,-8.8939,-9.1311,-9.2139,-9.1872,-9.397,-9.4609,-9.3992,-9.0814,-8.7139,-8.2949,0.0,-7.4627,-7.1785,0.0,0.0,0.0,-7.2699,0.0,0.0,-6.9823,0.0,0.0,0.0,0.0,-7.7096,-7.9532,-8.2238,-8.4606,-8.5824,-8.782,-8.9376,-8.914,-8.8125,-8.7177,-8.6907,-8.7279,-8.8057,-8.9275,-9.1778,-9.3774,-9.4248,-9.4719,-9.4292,-9.2511,-9.249,0.0,0.0,0.0,-9.7713,-10.0099,-10.0283,-10.0686,-10.1494,-10.0503,-9.9769,-9.9512,-9.8447,-9.764,-9.7126,-9.6832,-9.6685,-9.6685,-9.6685,-9.6685,-9.6685,-9.6685,-9.6282,-9.5474,-9.4666,-9.3822,-9.2978,-9.1583,-9.0996,-9.0849,-8.9234,-8.861,-8.839,-8.6481,-8.527,-8.4499,0.0,0.0,0.0,0.0,0.0,0.0,0.0,0.0,0.0,0.0,0.0,0.0,0.0,0.0,0.0,0.0,0.0,0.0,0.0,0.0,-5.8705,-6.0602,-6.4644,-6.7764,-6.9763,-7.2581,-7.4716,-7.613,-7.8367,-8.03,-8.1869,-8.3307,-8.4875,-8.6231,-8.7892,-8.8627,-8.8891,-9.1298,-9.1506,-9.0251,-9.1257,-9.0682,-8.8523,-8.4614,-8.0513,0.0,-7.0229,-6.6474,-6.4241,0.0,0.0,0.0,0.0,0.0,0.0,0.0,0.0,0.0,0.0,-7.8213,-8.1697,-8.4167,-8.6636,-8.8734,-8.9647,-9.0628,-9.1,-9.0019,-8.7651,-8.5554,-8.4776,-8.437,-8.4911,-8.7245,-8.9613,-9.1913,-9.4011,-9.3605,-9.2679,-9.1781,-9.1403,-9.1684,0.0,0.0,0.0,-9.9218,-9.9695,-10.0099,-10.0613,-10.0393,-9.9916,-9.9145,-9.8888,-9.8374,-9.7566,-9.7273,-9.6979,-9.6685,-9.6685,-9.6685,-9.6685,-9.6685,-9.6428,-9.5878,-9.507,-9.4263,-9.3418,-9.206,-9.1289,-9.0812,-8.9234,-8.8426,-8.7912,-8.604,-8.4866,-8.4095,0.0,0.0,0.0,0.0,0.0,0.0,0.0,0.0,0.0,0.0,0.0,0.0,0.0,0.0,0.0,0.0,0.0,0.0,0.0,0.0,0.0,-5.7115,-6.0931,-6.3299,-6.3987,-6.5376,-6.7111,-6.9225,-7.1439,-7.3982,-7.6649,-7.9595,-8.1345,-8.2173,-8.4347,-8.5243,-8.5469,-8.8561,-8.8235,-8.5657,-8.5336,-8.305,-7.9295,-7.4187,-6.9958,-6.6373,-6.3396,0.0,0.0,0.0,0.0,0.0,0.0,0.0,0.0,0.0,0.0,-7.3612,-7.8111,-8.2035,-8.5554,-8.8463,-9.029,-9.1338,-9.1305,-9.1271,-9.0797,-8.9241,-8.7008,-8.5046,0.0,0.0,-8.2205,-8.5926,-8.6839,-8.8598,-9.303,-9.1846,-9.1149,0.0,0.0,0.0,0.0,0.0,0.0,-9.7745,-9.8668,-9.9145,-9.9181,-9.9916,-9.9989,-9.9145,-9.9842,-9.9842,-9.8998,-9.8227,-9.7456,-9.6685,-9.6685,-9.6685,-9.6685,-9.6649,-9.6649,-9.6575,-9.5768,-9.496,-9.4189,-9.3382,-9.1657,-8.9528,-8.9454,-8.8023,-8.5857,-8.4976,-8.4168,-8.3544,0.0,0.0,0.0,0.0,0.0,0.0,0.0,0.0,0.0,0.0,0.0,0.0,0.0,0.0,0.0,0.0,0.0,0.0,0.0,0.0,0.0,0.0,0.0,0.0,0.0,0.0,0.0,0.0,0.0,-7.0896,-7.1609,-7.2874,-7.4334,-7.5905,-7.7004,-7.7503,-7.757,-7.8953,-7.879,-7.7581,-7.7475,-7.6555,-7.4796,-7.1278,-6.8301,-6.5595,-6.2651,0.0,0.0,0.0,0.0,0.0,0.0,0.0,-6.6034,0.0,0.0,-7.6724,-8.1156,-8.5114,-8.8395,-9.0256,-9.144,-9.1981,-9.144,-9.0865,-8.9748,-8.7144,-8.2644,-7.8416,0.0,0.0,0.0,-8.0682,-8.5757,0.0,-9.3943,-9.4857,0.0,-9.3563,0.0,-9.4216,-9.4705,-9.5145,0.0,-9.8626,-9.8998,-9.9365,-9.9952,-10.0796,-10.0576,-9.9145,-9.9292,-9.8741,-9.7346,-9.7126,-9.6906,-9.6685,-9.6685,-9.6685,-9.6685,-9.6098,-9.5804,-9.5731,-9.4336,-9.3602,-9.3345,-9.2464,-9.1767,-9.1069,-8.9895,-8.905,-8.8243,-8.6224,-8.5343,-8.5086,0.0,0.0,0.0,0.0,0.0,0.0,0.0,0.0,0.0,0.0,0.0,0.0,0.0,0.0,0.0,0.0,0.0,0.0,0.0,0.0,0.0,0.0,0.0,0.0,0.0,0.0,0.0,0.0,0.0,0.0,-6.6576,-6.8235,-6.9729,-7.1075,-7.2191,-7.2665,-7.2732,-7.3477,-7.2766,0.0,0.0,-6.918,-6.7354,-6.5053,-6.3396,-6.212,0.0,0.0,0.0,0.0,0.0,-6.2144,-6.4174,-6.6339,-6.8944,-7.3037,0.0,-7.987,-8.464,-8.7955,-9.0425,-9.1913,-9.2353,-9.188,-8.985,-8.826,-8.596,-8.1325,-7.704,0.0,-7.0013,-7.1328,0.0,0.0,0.0,0.0,-9.2996,-9.4112,-9.4451,0.0,-9.4692,0.0,-9.5639,-9.6007,-9.7043,0.0,-9.9108,-9.9292,-9.9769,-10.0209,-9.9879,-9.8594,-9.8924,-9.8521,-9.7236,-9.7236,-9.7052,-9.6685,-9.6685,-9.6539,-9.6171,-9.6061,-9.5658,-9.496,-9.441,-9.3749,-9.3051,-9.2574,-9.173,-9.0702,-9.0152,-8.9087,-8.7692,-8.6701,-8.5894,-8.5196,0.0,0.0,0.0,0.0,0.0,0.0,0.0,0.0,0.0,0.0,0.0,0.0,0.0,0.0,0.0,0.0,0.0,0.0,0.0,0.0,0.0,0.0,0.0,0.0,0.0,0.0,0.0,0.0,0.0,0.0,0.0,0.0,0.0,0.0,0.0,0.0,0.0,-6.8673,-6.7455,-6.4952,-6.3768,-6.1782,-5.9349,0.0,0.0,0.0,0.0,0.0,0.0,0.0,-6.2955,-6.3497,-6.7286,-7.0195,-7.3037,-7.7333,-8.0141,-8.2949,-8.7888,-9.0222,-9.1677,-9.3199,-9.2928,-9.1271,-8.7482,-8.4606,-8.0885,-7.4255,0.0,-6.851,-6.5617,-6.7239,-7.0368,-7.4912,0.0,-8.4109,-9.1738,-9.2283,-9.3066,-9.6095,-9.5341,-9.5199,-9.6861,-9.7003,-9.7713,-9.9279,-9.9438,-9.9328,-9.9108,-9.9218,-9.8851,-9.7933,-9.8484,-9.8447,-9.775,-9.775,-9.7383,-9.6685,-9.6685,-9.6318,-9.5694,-9.6171,-9.5621,-9.4336,-9.4813,-9.4153,-9.2794,-9.2868,-9.1546,-8.9491,-9.0188,-8.8683,-8.6187,-8.6775,-8.6114,-8.4939,0.0,0.0,0.0,0.0,0.0,0.0,0.0,0.0,0.0,0.0,0.0,0.0,0.0,0.0,0.0,0.0,0.0,0.0,0.0,0.0,0.0,0.0,0.0,0.0,0.0,0.0,0.0,0.0,0.0,0.0,0.0,0.0,0.0,0.0,0.0,0.0,0.0,-5.6528,-5.6292,-5.5852,-5.619,-5.6371,-5.6529,0.0,0.0,0.0,0.0,0.0,0.0,0.0,-6.5896,-6.5865,-7.0263,-7.4018,-7.7468,-8.0682,-8.3219,-8.5723,-8.9106,-9.0628,-9.1677,-9.3199,-9.2522,-9.0357,-8.6061,-8.19,0.0,0.0,-6.7146,-6.4191,-6.2461,-6.4945,-6.9055,-7.4597,0.0,0.0,0.0,0.0,-9.6515,0.0,0.0,-9.9814,-10.0824,-10.0645,0.0,0.0,-10.109,-10.0503,-9.9181,-9.9732,-9.9402,-9.7933,-9.7383,-9.7052,-9.6906,-9.6906,-9.6832,-9.6685,-9.6685,-9.6649,-9.6465,-9.5254,-9.4556,-9.4226,-9.2978,-9.1913,-9.1106,-9.1767,-9.0996,-8.9417,-8.9564,-8.8867,-8.7729,-8.7215,-8.6811,-8.6591,0.0,0.0,0.0,0.0,0.0,0.0,0.0,0.0,0.0,0.0,0.0,0.0,0.0,0.0,0.0,0.0,0.0,0.0,0.0,0.0,0.0,0.0,0.0,0.0,0.0,0.0,0.0,0.0,0.0,0.0,0.0,0.0,0.0,0.0,0.0,0.0,0.0,0.0,-5.4042,-5.4175,-5.5312,-5.5966,0.0,0.0,0.0,0.0,0.0,0.0,0.0,0.0,-6.5899,-6.7376,-7.2674,-7.6645,-7.9905,-8.2275,-8.4302,-8.6501,-8.9884,-9.1034,-9.1575,-9.2692,-9.1271,-8.8023,-8.2002,0.0,0.0,0.0,-6.2488,-6.1148,-5.8834,0.0,0.0,0.0,0.0,0.0,0.0,0.0,0.0,0.0,0.0,-9.9909,0.0,-10.0536,-10.0443,-10.0319,-10.098,-10.098,-9.9805,-9.9292,-9.8521,-9.7309,-9.6906,-9.6685,-9.6685,-9.6685,-9.6685,-9.6685,-9.6685,-9.6245,-9.5437,-9.5107,-9.4226,-9.2978,-9.2611,-9.1767,-9.0629,-9.1033,-9.0225,-8.883,-8.9271,-8.8647,-8.7582,-8.7619,-8.7362,-8.6995,0.0,0.0,0.0,0.0,0.0,0.0,0.0,0.0,0.0,0.0,0.0,0.0,0.0,0.0,0.0,0.0,0.0,0.0,0.0,0.0,0.0,0.0,0.0,0.0,0.0,0.0,0.0,0.0,0.0,0.0,0.0,0.0,0.0,0.0,0.0,0.0,0.0,0.0,-5.4391,0.0,0.0,-5.6435,0.0,0.0,0.0,0.0,0.0,0.0,0.0,0.0,-6.5248,-6.7714,-7.2914,-7.7387,-8.1101,-8.2707,-8.4625,-8.6899,-9.0299,-9.1127,-9.1237,-9.1981,-8.9816,-8.5621,-7.8314,-7.3375,0.0,0.0,-5.8522,-5.8668,-5.6369,0.0,0.0,0.0,-7.07,0.0,0.0,0.0,0.0,0.0,0.0,0.0,-9.9584,-9.9491,0.0,-9.9102,-10.0099,-10.0503,-10.0099,-9.8521,-9.7346,-9.6722,-9.6685,-9.6685,-9.6685,-9.6685,-9.6685,-9.6685,-9.6539,-9.5768,-9.4556,-9.485,-9.3932,-9.2097,-9.2611,-9.1877,-9.0372,-9.0555,-8.9564,-8.8023,-8.883,-8.828,-8.7105,-8.7729,-8.7545,-8.6995,0.0,0.0,0.0,0.0,0.0,0.0,0.0,0.0,0.0,0.0,0.0,0.0,0.0,0.0,0.0,0.0,0.0,0.0,0.0,0.0,0.0,0.0,0.0,0.0,0.0,0.0,0.0,0.0,0.0,0.0,0.0,0.0,0.0,0.0,0.0,0.0,0.0,0.0,0.0,0.0,0.0,0.0,0.0,0.0,0.0,0.0,0.0,0.0,0.0,0.0,0.0,-6.5916,-6.8418,-7.4645,-8.1183,-8.1996,0.0,0.0,-9.0296,-9.068,-9.0493,-9.1203,-8.8666,-8.42,-7.7367,0.0,0.0,-5.8321,-5.6507,-5.6233,-5.6728,0.0,0.0,0.0,0.0,-7.5995,0.0,0.0,0.0,0.0,0.0,0.0,-10.0122,-9.9573,-9.9176,-9.9108,-9.8557,-9.8521,-9.9181,-9.7676,-9.6795,-9.6685,-9.6685,-9.6685,-9.6685,-9.6685,-9.6685,-9.6685,-9.5951,-9.5547,-9.5327,-9.3932,-9.3198,-9.2941,-9.2244,-9.0996,-8.9601,-9.0298,-8.9234,-8.7215,-8.7986,-8.7766,-8.7031,-8.7105,-8.7068,-8.6995,0.0,0.0,0.0,0.0,0.0,0.0,0.0,0.0,0.0,0.0,0.0,0.0,0.0,0.0,0.0,0.0,0.0,0.0,0.0,0.0,0.0,0.0,0.0,0.0,0.0,0.0,0.0,0.0,0.0,0.0,0.0,0.0,0.0,0.0,0.0,0.0,0.0,0.0,0.0,0.0,0.0,0.0,0.0,0.0,0.0,0.0,0.0,0.0,0.0,0.0,0.0,0.0,-6.3527,-6.7932,0.0,0.0,-8.1277,-8.5181,-8.9442,-9.0952,-9.1417,-9.1726,-8.7727,-8.2002,-7.5236,0.0,0.0,-5.7467,-5.6265,-5.651,-5.6868,-5.8388,-6.0646,-6.3965,-6.4855,-6.8528,-7.8086,0.0,0.0,0.0,0.0,0.0,0.0,0.0,-9.9108,-9.9108,-9.7897,-9.753,-9.8337,-9.7309,-9.6685,-9.6685,-9.6685,-9.6685,-9.6685,-9.6685,-9.6685,-9.6685,-9.5878,-9.5254,-9.474,-9.3602,-9.2831,-9.2281,-9.195,-9.0886,-8.9454,-8.9784,-8.8757,-8.7031,-8.7362,-8.7288,-8.6995,-8.6995,-8.6995,-8.6995,0.0,0.0,0.0,0.0,0.0,0.0,0.0,0.0,0.0,0.0,0.0,0.0,0.0,0.0,0.0,0.0,0.0,0.0,0.0,0.0,0.0,0.0,0.0,0.0,0.0,0.0,0.0,0.0,0.0,0.0,0.0,0.0,0.0,0.0,0.0,0.0,0.0,0.0,0.0,0.0,0.0,0.0,0.0,0.0,0.0,0.0,0.0,0.0,0.0,0.0,0.0,0.0,0.0,0.0,0.0,0.0,-7.7275,-8.2052,-8.7354,-8.9999,-9.136,-9.1813,-8.7181,-8.0714,0.0,0.0,0.0,-5.719,-5.6517,-5.6882,-5.6917,-5.7972,-5.9281,-6.0676,-6.1006,-6.398,-7.2202,-7.4258,0.0,0.0,0.0,-9.2574,0.0,-9.7566,-9.8668,-9.8411,-9.7346,-9.6942,-9.7493,-9.7016,-9.6685,-9.6685,-9.6685,-9.6685,-9.6685,-9.6685,-9.6685,-9.6685,-9.5621,-9.485,-9.4263,-9.3198,-9.2391,-9.1803,-9.1546,-9.0665,-8.9381,-8.916,-8.8243,-8.6995,-8.6995,-8.6995,-8.6995,-8.6995,-8.6995,-8.6995,0.0,0.0,0.0,0.0,0.0,0.0,0.0,0.0,0.0,0.0,0.0,0.0,0.0,0.0,0.0,0.0,0.0,0.0,0.0,0.0,0.0,0.0,0.0,0.0,0.0,0.0,0.0,0.0,0.0,0.0,0.0,0.0,0.0,0.0,0.0,0.0,0.0,0.0,0.0,0.0,0.0,0.0,0.0,0.0,0.0,0.0,0.0,0.0,0.0,0.0,0.0,0.0,0.0,0.0,0.0,0.0,-7.3207,-7.8998,-8.3822,-8.7215,-8.9668,-9.1316,-8.7002,-8.0871,0.0,0.0,-6.2428,-5.7824,-5.6885,-5.6912,-5.6912,-5.7498,-5.829,-5.9098,-6.1227,-6.5044,-7.1578,-7.3891,0.0,0.0,0.0,-8.6261,-9.0298,-9.507,-9.7566,-9.6795,-9.6722,-9.6685,-9.6722,-9.6685,-9.6685,-9.6685,-9.6685,-9.6685,-9.6685,-9.6685,-9.6685,-9.6685,-9.507,-9.4299,-9.4226,-9.2574,-9.1803,-9.1767,-9.0959,-9.0152,-8.9344,-8.8536,-8.7729,-8.6995,-8.6995,-8.6995,-8.6995,-8.6995,-8.6995,-8.6995,0.0,0.0,0.0,0.0,0.0,0.0,0.0,0.0,0.0,0.0,0.0,0.0,0.0,0.0,0.0,0.0,0.0,0.0,0.0,0.0,0.0,0.0,0.0,0.0,0.0,0.0,0.0,0.0,0.0,0.0,0.0,0.0,0.0,0.0,0.0,0.0,0.0,0.0,0.0,0.0,0.0,0.0,0.0,0.0,0.0,0.0,0.0,0.0,0.0,0.0,0.0,0.0,0.0,0.0,0.0,0.0,0.0,0.0,-7.6145,-7.8564,-7.9977,-8.0477,-7.7298,-7.2941,-6.8646,0.0,0.0,-5.762,-5.6901,-5.6921,-5.6853,-5.7015,-5.7997,-6.0456,-6.1484,-6.3466,-6.7797,0.0,0.0,0.0,-8.7986,-9.3602,0.0,0.0,-9.7566,-9.6759,-9.6685,-9.6685,-9.6685,-9.6685,-9.6685,-9.6685,-9.6685,-9.6685,-9.6685,-9.6685,-9.6428,-9.5878,-9.4813,-9.4006,-9.3455,-9.2317,-9.151,-9.0959,-9.0702,-8.9821,-8.8573,-8.8316,-8.7729,-8.6995,-8.6995,-8.6995,-8.6995,-8.6995,-8.6995,-8.6995,0.0,0.0,0.0,0.0,0.0,0.0,0.0,0.0,0.0,0.0,0.0,0.0,0.0,0.0,0.0,0.0,0.0,0.0,0.0,0.0,0.0,0.0,0.0,0.0,0.0,0.0,0.0,0.0,0.0,0.0,0.0,0.0,0.0,0.0,0.0,0.0,0.0,0.0,0.0,0.0,0.0,0.0,0.0,0.0,0.0,0.0,0.0,0.0,0.0,0.0,0.0,0.0,0.0,0.0,0.0,0.0,0.0,0.0,0.0,-7.33,-7.4935,-7.5551,-7.2983,0.0,0.0,0.0,0.0,-5.7819,-5.7556,-5.7595,-5.6914,-5.7042,-5.7703,-5.9098,-6.0089,-6.1851,-6.5118,0.0,0.0,0.0,0.0,0.0,0.0,-9.6979,-9.7566,-9.6759,-9.6685,-9.6685,-9.6685,-9.6685,-9.6575,-9.6282,-9.6245,-9.6245,-9.6245,-9.5951,-9.5547,-9.5034,-9.4226,-9.3565,-9.3088,-9.2207,-9.1363,-9.0592,-9.0298,-8.9417,0.0,-8.7545,-8.6995,-8.6554,-8.6554,-8.6554,-8.6591,-8.6885,-8.6995,-8.6995,0.0,0.0,0.0,0.0,0.0,0.0,0.0,0.0,0.0,0.0,0.0,0.0,0.0,0.0,0.0,0.0,0.0,0.0,0.0,0.0,0.0,0.0,0.0,0.0,0.0,0.0,0.0,0.0,-5.4566,-5.4972,-5.5716,0.0,0.0,0.0,0.0,0.0,0.0,0.0,0.0,0.0,0.0,0.0,0.0,0.0,0.0,0.0,0.0,0.0,0.0,0.0,0.0,0.0,0.0,0.0,0.0,0.0,0.0,0.0,0.0,0.0,0.0,0.0,0.0,0.0,0.0,0.0,0.0,0.0,0.0,-5.8731,-5.7116,-5.7446,-5.7556,-5.6161,-5.7923,-6.0566,-6.3723,-6.7981,0.0,0.0,-8.7031,0.0,-9.184,-9.5547,-9.7566,-9.6759,-9.6685,-9.6685,-9.6685,-9.6649,-9.6282,-9.5547,-9.5401,-9.5364,-9.5437,-9.4666,-9.4263,-9.4189,-9.3455,-9.3051,-9.2905,-9.206,-9.1253,-9.0408,-8.9638,-8.883,-8.7912,-8.6407,-8.5747,-8.571,-8.5783,-8.5783,-8.5894,-8.6701,-8.6995,-8.6995,0.0,0.0,0.0,0.0,0.0,0.0,0.0,0.0,0.0,0.0,0.0,0.0,0.0,0.0,0.0,0.0,0.0,0.0,0.0,0.0,0.0,0.0,0.0,0.0,0.0,0.0,0.0,-5.3754,-5.4329,-5.4972,-5.5716,-5.5886,0.0,0.0,0.0,0.0,0.0,0.0,0.0,0.0,0.0,0.0,0.0,0.0,0.0,0.0,0.0,0.0,0.0,0.0,0.0,0.0,0.0,0.0,0.0,0.0,0.0,0.0,0.0,0.0,0.0,0.0,0.0,0.0,0.0,0.0,0.0,0.0,0.0,0.0,0.0,-5.7446,-5.829,-5.9134,-6.0786,-6.2695,-6.4751,0.0,0.0,-8.7729,-9.2391,-9.4666,-9.3786,-9.6245,-9.7566,-9.6759,-9.6685,-9.6685,-9.6685,-9.6135,-9.5694,-9.5511,-9.4299,-9.3969,-9.4593,-9.4373,-9.3969,-9.3382,-9.3198,-9.2427,-9.1179,-9.0996,-9.0115,-8.8757,-8.8573,-8.7692,-8.6334,-8.5967,-8.5416,-8.4939,-8.5563,-8.5783,-8.5894,-8.6701,-8.6995,-8.6995,0.0,0.0,0.0,0.0,0.0,0.0,0.0,0.0,0.0,0.0,0.0,0.0,0.0,0.0,0.0,0.0,0.0,0.0,0.0,0.0,0.0,0.0,0.0,0.0,0.0,0.0,0.0,0.0,0.0,-5.4972,0.0,0.0,0.0,0.0,0.0,0.0,0.0,0.0,0.0,0.0,0.0,0.0,0.0,0.0,0.0,0.0,0.0,0.0,0.0,-5.4251,-5.477,-5.4863,0.0,0.0,0.0,0.0,0.0,0.0,0.0,0.0,0.0,0.0,0.0,0.0,0.0,0.0,0.0,0.0,0.0,0.0,0.0,0.0,-5.8143,-5.8657,-6.0713,-6.4127,0.0,0.0,0.0,-8.9234,-9.2354,-9.4153,-9.4777,-9.6025,-9.6759,-9.6685,-9.6685,-9.6685,-9.6685,-9.5951,-9.5327,-9.496,-9.3749,-9.3125,-9.3161,-9.2794,-9.2207,-9.14,-9.14,-9.0959,-9.0041,-8.9674,-8.883,-8.7619,-8.7252,-8.6407,-8.5233,-8.4866,-8.4462,-8.4132,-8.4939,-8.5233,-8.538,-8.6591,-8.6995,-8.6995,0.0,0.0,0.0,0.0,0.0,0.0,0.0,0.0,0.0,0.0,0.0,0.0,0.0,0.0,0.0,0.0,0.0,0.0,0.0,0.0,0.0,0.0,0.0,0.0,0.0,0.0,0.0,0.0,0.0,0.0,0.0,0.0,0.0,0.0,0.0,0.0,0.0,0.0,0.0,0.0,0.0,0.0,0.0,0.0,0.0,0.0,0.0,0.0,0.0,-5.2024,-5.2838,-5.3688,-5.4934,0.0,0.0,0.0,0.0,0.0,0.0,0.0,0.0,0.0,0.0,0.0,0.0,0.0,0.0,0.0,0.0,0.0,0.0,0.0,0.0,0.0,0.0,0.0,0.0,0.0,-8.3251,-8.9087,-9.0849,-9.2501,-9.4923,-9.5474,-9.5988,-9.6649,-9.6685,-9.6649,-9.6539,-9.5768,-9.496,-9.4153,-9.3198,-9.2317,-9.1436,-9.0886,-9.0225,-8.9417,-8.9417,-8.9271,-8.9014,-8.8353,-8.7509,-8.6628,-8.5894,-8.5159,-8.4352,-8.3691,-8.3361,-8.3324,-8.4095,-8.4425,-8.4609,-8.6114,-8.6628,-8.6664,0.0,0.0,0.0,0.0,0.0,0.0,0.0,0.0,0.0,0.0,0.0,0.0,0.0,0.0,0.0,0.0,0.0,0.0,0.0,0.0,0.0,0.0,0.0,0.0,0.0,0.0,0.0,0.0,0.0,0.0,-5.663,-5.663,-5.6325,0.0,0.0,0.0,0.0,0.0,0.0,0.0,0.0,0.0,0.0,0.0,0.0,0.0,0.0,0.0,0.0,-5.2131,-5.2883,-5.3558,-5.3783,0.0,0.0,0.0,0.0,0.0,-5.8841,-6.0015,0.0,0.0,0.0,0.0,0.0,0.0,0.0,0.0,0.0,0.0,0.0,0.0,0.0,0.0,0.0,-7.4771,0.0,0.0,-8.8059,-9.1143,0.0,-9.518,-9.3639,-9.5327,-9.6575,-9.6685,-9.6685,-9.6392,-9.5731,-9.4923,-9.4116,-9.3308,-9.1803,-9.0592,-8.9784,-9.0335,-9.0225,-8.9417,-8.9417,-8.872,-8.7362,-8.7252,-8.6371,-8.4976,-8.4829,-8.4352,-8.3581,-8.3471,-8.2994,-8.2443,-8.3287,-8.3581,-8.3728,-8.4646,-8.4976,-8.5086,0.0,0.0,0.0,0.0,0.0,0.0,0.0,0.0,0.0,0.0,0.0,0.0,0.0,0.0,0.0,0.0,0.0,0.0,0.0,0.0,0.0,0.0,0.0,0.0,0.0,0.0,0.0,0.0,0.0,-5.5434,-5.5821,-5.5421,-5.4822,-5.4195,0.0,0.0,0.0,0.0,0.0,0.0,0.0,0.0,0.0,0.0,0.0,0.0,0.0,0.0,0.0,0.0,-5.1405,-5.1878,-5.3099,0.0,0.0,0.0,0.0,0.0,-5.8344,-5.9098,0.0,0.0,0.0,0.0,0.0,0.0,0.0,0.0,0.0,0.0,0.0,0.0,0.0,0.0,0.0,-7.9396,-8.4425,-8.6554,-8.8463,0.0,-9.2905,-9.4006,-9.3749,-9.474,-9.5401,-9.5401,-9.5401,-9.5254,-9.4887,-9.3675,-9.2794,-9.2391,-9.0812,-8.9564,-8.8757,-8.9124,-8.8904,-8.8096,-8.7655,-8.7068,-8.6334,-8.5453,-8.4646,-8.3948,-8.3508,-8.3104,-8.2737,-8.2737,-8.2517,-8.226,-8.3104,-8.3398,-8.3581,-8.4792,-8.5233,-8.5343,0.0,0.0,0.0,0.0,0.0,0.0,0.0,0.0,0.0,0.0,0.0,0.0,0.0,0.0,0.0,0.0,0.0,0.0,0.0,0.0,0.0,0.0,0.0,0.0,0.0,0.0,0.0,-5.237,-5.4573,-5.5554,-5.5324,-5.5038,-5.4273,0.0,0.0,0.0,0.0,0.0,0.0,0.0,0.0,0.0,0.0,0.0,0.0,0.0,0.0,0.0,0.0,0.0,0.0,0.0,0.0,0.0,0.0,-5.5826,-5.6616,-5.7051,-5.785,-5.8454,-5.9208,0.0,0.0,0.0,0.0,0.0,0.0,0.0,0.0,0.0,0.0,0.0,0.0,-7.5726,-8.0167,-8.3654,-8.6481,-8.7848,-8.935,-9.1473,-9.2059,-9.2864,-9.4189,-9.4299,-9.4299,-9.4299,-9.4116,-9.3932,-9.3712,-9.2354,-9.1473,-9.1253,-8.9674,-8.8647,-8.8206,-8.7655,-8.7142,-8.6701,-8.6077,-8.56,-8.5196,-8.3985,-8.3324,-8.3104,-8.248,-8.2186,-8.2186,-8.2186,-8.2186,-8.226,-8.2884,-8.3141,-8.3287,-8.4499,-8.5086,-8.5343,0.0,0.0,0.0,0.0,0.0,0.0,0.0,0.0,0.0,0.0,0.0,0.0,0.0,0.0,0.0,0.0,0.0,0.0,0.0,0.0,0.0,0.0,0.0,0.0,0.0,-5.1519,-5.2079,-5.277,-5.4535,-5.5741,-5.6445,-5.7427,-5.6441,-5.3931,0.0,0.0,0.0,0.0,0.0,0.0,0.0,0.0,0.0,0.0,0.0,0.0,0.0,0.0,0.0,0.0,0.0,0.0,0.0,0.0,-5.3697,-5.4548,-5.5759,-5.7057,-5.7867,-5.9684,-6.1006,-5.9722,0.0,0.0,0.0,0.0,0.0,0.0,0.0,0.0,0.0,-6.5832,-7.1853,-7.849,-8.4132,-8.905,-9.3051,-9.3303,-9.3643,-9.4955,-9.4176,-9.3679,-9.4261,-9.4299,-9.4299,-9.4299,-9.3602,-9.2831,-9.2024,-9.1179,-9.0372,-8.9601,-8.8023,-8.7509,-8.8206,-8.5967,-8.5196,-8.5894,-8.582,-8.5013,-8.3581,-8.3471,-8.2994,-8.226,-8.2223,-8.2186,-8.2186,-8.2186,-8.2186,-8.2186,-8.226,-8.2296,-8.2296,-8.2406,-8.292,-8.3581,0.0,0.0,0.0,0.0,0.0,0.0,0.0,0.0,0.0,0.0,0.0,0.0,0.0,0.0,0.0,0.0,0.0,0.0,0.0,0.0,0.0,0.0,0.0,-5.0202,-5.186,-5.2504,-5.3285,-5.4131,-5.5153,-5.5618,-5.5521,-5.4672,0.0,0.0,0.0,0.0,0.0,0.0,0.0,0.0,0.0,0.0,0.0,0.0,0.0,0.0,0.0,0.0,0.0,0.0,-4.956,-4.9627,-5.0845,-5.1579,-5.2369,-5.4102,-5.4999,-5.5623,-5.636,-5.7942,-5.9382,-5.9329,0.0,0.0,0.0,0.0,0.0,0.0,0.0,0.0,0.0,0.0,-7.6012,-7.9535,-8.5103,-8.9342,-9.0348,-9.2048,-9.2854,-9.1893,-9.2191,-9.2474,-9.2453,-9.1951,-9.1713,-9.195,-9.0776,-8.9895,-8.9564,-8.8316,-8.7472,-8.7178,-8.6077,-8.5637,-8.5967,-8.5049,-8.4499,-8.4315,-8.4315,-8.3985,-8.3398,-8.2884,-8.248,-8.2186,-8.2186,-8.2186,-8.2186,-8.2186,-8.2186,-8.2186,-8.2186,-8.2517,-8.2957,-8.2957,-8.3471,-8.4168,0.0,0.0,0.0,0.0,0.0,0.0,0.0,0.0,0.0,0.0,0.0,0.0,0.0,0.0,0.0,0.0,0.0,0.0,0.0,0.0,0.0,0.0,0.0,-5.0168,-5.1928,-5.2976,-5.3933,-5.4695,-5.553,-5.5429,-5.4389,0.0,0.0,0.0,0.0,0.0,0.0,0.0,0.0,0.0,0.0,0.0,0.0,0.0,0.0,0.0,0.0,0.0,0.0,0.0,-4.9593,-4.9255,-5.0744,-5.1217,-5.1617,-5.3661,-5.4419,-5.4695,-5.5203,-5.627,0.0,0.0,0.0,0.0,0.0,0.0,0.0,0.0,-7.2405,0.0,0.0,0.0,0.0,0.0,-8.5017,-8.8561,-8.8896,-9.0528,-9.1034,-8.9285,-8.9993,-9.0517,-9.0177,-8.9966,-8.9924,-9.019,-8.872,-8.7839,-8.7839,-8.6297,-8.5416,-8.5416,-8.4646,-8.4352,-8.4609,-8.4095,-8.3691,-8.3398,-8.3141,-8.303,-8.2994,-8.2443,-8.2186,-8.2186,-8.2186,-8.2186,-8.2186,-8.2186,-8.2186,-8.2186,-8.2186,-8.2553,-8.303,-8.303,-8.3361,-8.3838,0.0,0.0,0.0,0.0,0.0,0.0,0.0,0.0,0.0,0.0,0.0,0.0,0.0,0.0,0.0,0.0,0.0,0.0,0.0,0.0,0.0,0.0,0.0,-5.0439,-5.1183,-5.2706,-5.3772,-5.4337,-5.5608,-5.5119,-5.3144,-5.3622,0.0,0.0,0.0,0.0,0.0,0.0,0.0,0.0,0.0,0.0,0.0,0.0,0.0,0.0,0.0,0.0,0.0,0.0,-4.9627,-4.9289,-5.0777,-5.1217,-5.1522,-5.3044,-5.3977,-5.4606,-5.4606,-5.5119,0.0,0.0,0.0,0.0,0.0,0.0,0.0,0.0,0.0,-7.4636,-7.5359,-7.4167,0.0,-8.0293,-8.3904,-8.7108,-9.0226,-8.9555,-8.8607,-8.8275,-8.8259,-8.8046,-8.7725,-8.869,-8.9417,-8.9381,-8.7912,-8.6995,-8.6995,-8.5453,-8.4572,-8.4572,-8.3801,-8.3765,-8.4572,-8.2994,-8.259,-8.3398,-8.259,-8.2186,-8.2186,-8.2186,-8.2186,-8.2186,-8.2186,-8.2186,-8.2186,-8.2186,-8.2186,-8.2186,-8.2186,-8.2186,-8.2186,-8.2186,-8.2186,-8.2186,0.0,0.0,0.0,0.0,0.0,0.0,0.0,0.0,0.0,0.0,0.0,0.0,0.0,0.0,0.0,0.0,0.0,0.0,0.0,0.0,0.0,0.0,0.0,0.0,0.0,0.0,-5.2931,-5.4389,-5.451,-5.3307,0.0,0.0,0.0,-4.8369,0.0,0.0,0.0,0.0,0.0,0.0,0.0,0.0,0.0,0.0,0.0,0.0,0.0,0.0,0.0,0.0,0.0,0.0,-5.1691,-5.1961,-5.2164,-5.3213,-5.3685,-5.3849,-5.3849,0.0,0.0,0.0,0.0,0.0,0.0,0.0,0.0,0.0,-8.1804,-7.9921,-7.8677,-7.8649,0.0,-7.9651,-8.2732,-8.5341,-8.6268,-8.7775,-8.8073,-8.6307,-8.7303,-8.8046,-8.7645,-8.7425,-8.7374,-8.7696,-8.6224,-8.5049,-8.4499,-8.3471,-8.292,-8.292,-8.2663,-8.2663,-8.292,-8.2443,-8.2333,-8.2553,-8.2296,-8.2186,-8.2186,-8.2186,-8.2186,-8.2186,-8.2186,-8.2186,-8.2186,-8.2186,-8.2186,-8.2186,-8.2186,-8.2553,-8.2994,-8.2406,-8.2553,-8.2957,0.0,0.0,0.0,0.0,0.0,0.0,0.0,0.0,0.0,0.0,0.0,0.0,0.0,0.0,0.0,0.0,0.0,0.0,0.0,0.0,0.0,0.0,0.0,0.0,0.0,-5.062,-5.1377,0.0,0.0,0.0,0.0,0.0,0.0,-4.9148,0.0,-5.0923,0.0,0.0,0.0,0.0,0.0,0.0,0.0,0.0,0.0,0.0,0.0,0.0,0.0,0.0,0.0,0.0,-5.2063,-5.2536,-5.2942,-5.3721,-5.3721,-5.3653,-5.4228,0.0,0.0,0.0,0.0,0.0,0.0,0.0,0.0,0.0,0.0,-8.3434,-8.1736,-8.0897,0.0,-8.1009,-8.2986,-8.4727,-8.547,-8.6957,-8.7126,-8.4821,-8.6047,-8.6668,-8.585,-8.5692,-8.5628,-8.5408,-8.4204,-8.308,-8.2143,-8.1346,-8.116,-8.1542,-8.1542,-8.1782,-8.2186,-8.2186,-8.2186,-8.2186,-8.2186,-8.2186,-8.2186,-8.2186,-8.2186,-8.2186,-8.2186,-8.2186,-8.2186,-8.2186,-8.2186,-8.2186,-8.2186,-8.248,-8.2884,-8.237,-8.2517,-8.2847,0.0,0.0,0.0,0.0,0.0,0.0,0.0,0.0,0.0,0.0,0.0,0.0,0.0,0.0,0.0,0.0,0.0,0.0,0.0,0.0,0.0,0.0,0.0,0.0,0.0,0.0,0.0,0.0,0.0,0.0,0.0,0.0,-5.3576,-5.202,0.0,-5.4535,0.0,0.0,0.0,0.0,0.0,0.0,0.0,0.0,0.0,0.0,0.0,0.0,0.0,0.0,0.0,0.0,-5.2198,-5.2976,-5.3721,-5.4397,-5.4126,-5.3957,0.0,0.0,0.0,0.0,0.0,0.0,0.0,0.0,0.0,0.0,0.0,-8.5277,-8.4516,-8.1855,-8.0777,-8.3763,-8.4266,-8.4914,-8.67,-8.6878,-8.6116,-8.3954,-8.4621,-8.4669,-8.3226,-8.3913,-8.3983,-8.3009,-8.21,-8.1179,-8.0126,-7.9373,-7.9458,-8.0587,-8.0623,-8.1089,-8.2186,-8.2186,-8.2186,-8.2186,-8.2186,-8.2186,-8.2186,-8.2186,-8.2186,-8.2186,-8.2186,-8.2186,-8.2186,-8.2186,-8.2186,-8.2186,-8.2186,-8.2186,-8.2186,-8.2186,-8.2186,-8.2186,0.0,0.0,0.0,0.0,0.0,0.0,0.0,0.0,0.0,0.0,0.0,0.0,0.0,0.0,0.0,0.0,0.0,0.0,0.0,0.0,0.0,0.0,0.0,0.0,0.0,0.0,0.0,0.0,0.0,0.0,0.0,0.0,0.0,-5.249,0.0,-5.342,0.0,0.0,0.0,0.0,0.0,0.0,0.0,0.0,0.0,0.0,0.0,0.0,0.0,0.0,0.0,0.0,-5.3179,-5.3754,-5.4397,-5.4532,-5.4465,-5.4803,0.0,0.0,0.0,0.0,0.0,0.0,0.0,0.0,0.0,-8.4694,-8.5579,-8.6321,-8.5539,-8.4853,-8.4486,-8.4909,-8.4966,-8.5272,-8.5976,-8.6323,-8.6145,-8.4996,-8.5336,-8.5325,-8.4373,-8.3664,-8.3012,-8.214,-8.1133,-8.0146,-7.9266,-7.9089,-7.9458,-8.0587,-8.0623,-8.1089,-8.2186,-8.2186,-8.2186,-8.2186,-8.2186,-8.2186,-8.2186,-8.2186,-8.2186,-8.2186,-8.2186,-8.2186,-8.2186,-8.2186,-8.2186,-8.2186,-8.2186,-8.2186,-8.2186,-8.2186,-8.2186,-8.2186,0.0,0.0,0.0,0.0,0.0,0.0,0.0,0.0,0.0,0.0,0.0,0.0,0.0,0.0,0.0,0.0,0.0,0.0,0.0,0.0,0.0,0.0,0.0,0.0,0.0,0.0,0.0,0.0,0.0,0.0,0.0,0.0,0.0,-5.3298,0.0,-5.4721,0.0,0.0,0.0,0.0,0.0,0.0,0.0,0.0,0.0,0.0,0.0,0.0,0.0,0.0,0.0,0.0,0.0,0.0,-5.46,-5.46,-5.4329,-5.4634,0.0,0.0,0.0,0.0,0.0,0.0,0.0,0.0,0.0,-8.42,-8.5283,-8.6311,-8.6095,-8.6131,-8.6432,-8.7311,-8.7124,-8.707,-8.7448,-8.6996,-8.6246,-8.5046,-8.4743,-8.418,-8.2785,-8.2143,-8.1224,-7.9746,-7.9175,-7.8411,-7.7458,-7.7424,-7.8161,-7.9804,-7.9804,-8.0587,-8.2186,-8.2186,-8.2186,-8.2186,-8.2186,-8.2186,-8.2186,-8.2186,-8.2186,-8.2186,-8.2186,-8.2186,-8.2186,-8.2186,-8.2186,-8.2186,-8.2186,-8.2186,-8.2186,-8.2186,-8.2186,-8.2186,0.0,0.0,0.0,0.0,0.0,0.0,0.0,0.0,0.0,0.0,0.0,0.0,0.0,0.0,0.0,0.0,0.0,0.0,0.0,0.0,0.0,0.0,0.0,0.0,0.0,0.0,0.0,0.0,0.0,0.0,0.0,0.0,0.0,-5.402,0.0,0.0,0.0,0.0,0.0,0.0,0.0,0.0,0.0,0.0,0.0,0.0,0.0,0.0,0.0,0.0,0.0,0.0,0.0,0.0,-5.46,-5.46,-5.416,-5.4329,0.0,0.0,0.0,0.0,0.0,0.0,0.0,0.0,-8.4471,-8.4606,-8.5327,-8.6025,-8.6355,-8.6471,-8.7153,-8.9246,-8.8959,-8.8481,-8.8761,-8.7509,-8.604,-8.4572,-8.3691,-8.2617,-8.1055,-8.0695,-7.9768,-7.7736,-7.7389,-7.6927,-7.602,-7.5926,-7.7016,-7.9222,-7.9302,-8.0182,-8.2186,-8.2186,-8.2186,-8.2186,-8.2186,-8.2186,-8.2186,-8.2186,-8.2186,-8.2186,-8.2186,-8.2186,-8.2186,-8.2186,-8.2186,-8.2186,-8.2186,-8.2186,-8.2186,-8.2186,-8.2186,-8.2186,0.0,0.0,0.0,0.0,0.0,0.0,0.0,0.0,0.0,0.0,0.0,0.0,0.0,0.0,0.0,0.0,0.0,0.0,0.0,0.0,0.0,0.0,0.0,0.0,0.0,0.0,0.0,0.0,0.0,0.0,0.0,0.0,0.0,0.0,0.0,0.0,0.0,0.0,0.0,0.0,0.0,0.0,0.0,0.0,0.0,0.0,0.0,0.0,0.0,0.0,-5.3518,0.0,0.0,0.0,-5.46,-5.46,-5.4532,0.0,0.0,0.0,0.0,0.0,0.0,0.0,0.0,0.0,-8.3828,0.0,-8.5515,-8.6355,-8.6414,-8.6686,-8.716,-8.7816,-8.722,-8.6634,-8.6306,-8.549,-8.4572,-8.3691,-8.2847,-8.2231,-8.2055,-8.116,-8.0107,-7.8903,-7.7822,-7.7248,-7.7071,-7.7071,-7.8077,-8.0292,-8.0366,-8.0982,-8.2186,-8.2186,-8.2186,-8.2186,-8.2186,-8.2186,-8.2186,-8.2186,-8.2186,-8.2186,-8.2186,-8.2186,-8.2186,-8.2186,-8.2186,-8.2186,-8.2186,-8.2186,-8.2186,-8.2186,-8.2186,-8.2186,0.0,0.0,0.0,0.0,0.0,0.0,0.0,0.0,0.0,0.0,0.0,0.0,0.0,0.0,0.0,0.0,0.0,0.0,0.0,0.0,0.0,0.0,0.0,0.0,0.0,0.0,0.0,0.0,0.0,0.0,0.0,-5.4296,-5.5168,0.0,0.0,0.0,0.0,0.0,0.0,0.0,0.0,0.0,0.0,0.0,0.0,0.0,0.0,0.0,0.0,0.0,-5.3518,-5.3518,-5.3518,0.0,0.0,0.0,0.0,0.0,0.0,0.0,0.0,0.0,0.0,0.0,0.0,0.0,-8.3157,-8.4113,-8.5229,-8.6381,-8.7258,-8.7763,-8.8265,-8.9156,-8.785,-8.6684,-8.6485,-8.5013,-8.3801,-8.3471,-8.27,-8.1952,-8.1405,-8.084,-8.0143,-7.9063,-7.8577,-7.8245,-7.8245,-7.8245,-7.8983,-8.0514,-8.0154,-8.0618,-8.2186,-8.1746,-8.1746,-8.2186,-8.1746,-8.1746,-8.2186,-8.2186,-8.2186,-8.2186,-8.2186,-8.2186,-8.2186,-8.2186,-8.2186,-8.2186,-8.2186,-8.2186,-8.2186,-8.2186,-8.2186,-8.2186,0.0,0.0,0.0,0.0,0.0,0.0,0.0,0.0,0.0,0.0,0.0,0.0,0.0,0.0,0.0,0.0,0.0,0.0,0.0,0.0,0.0,0.0,0.0,0.0,0.0,0.0,0.0,0.0,0.0,0.0,-5.2367,-5.504,-5.6359,0.0,-5.5581,0.0,0.0,0.0,0.0,0.0,0.0,0.0,0.0,0.0,0.0,0.0,0.0,0.0,0.0,0.0,0.0,-5.3518,-5.3518,-5.3518,0.0,0.0,0.0,0.0,0.0,0.0,0.0,0.0,0.0,0.0,0.0,0.0,-8.1998,0.0,-8.4703,-8.6105,-8.7193,-8.8131,-8.8862,-8.9568,-8.8023,-8.6554,-8.6151,-8.4535,-8.3324,-8.3141,-8.2553,-8.1885,-8.1089,-8.1018,-8.0587,-7.9458,-7.938,-7.938,-7.938,-7.938,-7.9773,-8.0692,-8.0112,-8.0495,-8.1893,-8.1305,-8.1195,-8.1562,-8.0975,-8.1122,-8.1893,-8.1893,-8.2003,-8.2186,-8.2186,-8.2186,-8.2186,-8.2186,-8.2186,-8.2186,-8.2186,-8.2186,-8.2186,-8.2186,-8.2186,-8.2186,0.0,0.0,0.0,0.0,0.0,0.0,0.0,0.0,0.0,0.0,0.0,0.0,0.0,0.0,0.0,0.0,0.0,0.0,0.0,0.0,0.0,0.0,0.0,0.0,0.0,0.0,0.0,0.0,0.0,0.0,-5.2367,-5.6055,-5.8152,-5.8795,-5.734,-5.6124,-5.5279,0.0,0.0,0.0,0.0,0.0,0.0,0.0,0.0,0.0,0.0,0.0,0.0,0.0,0.0,0.0,0.0,-5.3518,0.0,0.0,0.0,0.0,0.0,0.0,0.0,0.0,0.0,0.0,0.0,0.0,-8.0133,-8.1609,-8.3692,-8.5267,-8.5339,-8.6975,-8.7989,-8.7325,-8.6444,-8.5343,-8.3801,-8.3508,-8.3141,-8.2333,-8.2223,-8.2186,-8.2121,-8.2121,-8.1647,-8.0623,-8.0514,-8.0514,-8.0514,-8.0514,-8.0656,-8.0955,-8.0947,-8.0947,-8.1048,-8.1012,-8.0645,-7.991,-7.9874,-8.0277,-8.1048,-8.1048,-8.1489,-8.2186,-8.2186,-8.2186,-8.2186,-8.2186,-8.2186,-8.2186,-8.2186,-8.2186,-8.2186,-8.2186,-8.2186,-8.2186,0.0,0.0,0.0,0.0,0.0,0.0,0.0,0.0,0.0,0.0,0.0,0.0,0.0,-4.5568,-4.621,-4.6684,0.0,0.0,0.0,0.0,0.0,0.0,0.0,0.0,0.0,0.0,0.0,0.0,0.0,-5.186,-5.2367,-5.4668,-5.619,-5.69,-5.6833,-5.6892,-5.6868,-5.5036,0.0,0.0,0.0,0.0,0.0,0.0,0.0,0.0,0.0,0.0,0.0,0.0,0.0,0.0,0.0,0.0,0.0,0.0,0.0,0.0,0.0,0.0,0.0,0.0,0.0,0.0,-7.0161,-7.33,-7.6063,-7.7317,-7.8936,-8.0753,-8.2706,-8.5008,-8.6554,-8.6261,-8.5123,-8.4058,-8.3508,-8.2957,-8.2517,-8.2223,-8.2186,-8.2186,-8.2186,-8.2186,-8.2018,-8.1647,-8.1647,-8.1647,-8.1647,-8.1172,-8.0904,-8.1012,-7.9984,-7.947,-7.947,-7.947,-7.9837,-8.0571,-7.9507,-7.9984,-8.1746,-8.0681,-8.0938,-8.215,-8.1636,-8.1709,-8.2186,-8.2186,-8.2186,-8.2186,-8.2186,-8.2186,-8.2186,-8.2186,-8.2186,-8.2186,0.0,0.0,0.0,0.0,0.0,0.0,0.0,0.0,0.0,0.0,0.0,0.0,0.0,0.0,-4.6138,-4.6902,-4.7688,0.0,0.0,0.0,0.0,0.0,0.0,0.0,0.0,0.0,0.0,0.0,0.0,0.0,0.0,0.0,-5.5141,-5.6089,-5.6325,-5.6968,0.0,0.0,0.0,-5.4465,0.0,0.0,-5.345,0.0,0.0,0.0,0.0,0.0,0.0,0.0,0.0,0.0,0.0,0.0,0.0,0.0,0.0,0.0,0.0,0.0,0.0,0.0,0.0,0.0,-6.5595,0.0,-7.185,-7.3386,-7.5366,-7.7696,-8.0546,-8.272,-8.4268,-8.4872,-8.4095,-8.3324,-8.303,-8.2553,-8.2186,-8.2186,-8.2186,-8.2186,-8.2186,-8.2186,-8.2186,-8.2186,-8.1929,-8.1782,-8.1782,-8.1012,-8.0461,-8.0204,-7.9176,-7.8479,-7.8185,-7.8442,-7.8993,-7.9764,-7.8662,-7.9176,-8.0938,-8.0131,-8.0534,-8.1782,-8.1525,-8.1709,-8.2186,-8.2186,-8.2186,-8.2186,-8.2186,-8.2186,-8.2186,-8.2186,-8.2186,-8.2186,0.0,0.0,0.0,0.0,0.0,0.0,0.0,0.0,0.0,-4.4212,0.0,0.0,0.0,0.0,0.0,-4.5181,-4.6025,-4.6585,-4.6519,-4.7445,0.0,0.0,0.0,0.0,0.0,0.0,0.0,0.0,0.0,0.0,0.0,0.0,-5.531,0.0,-5.5987,-5.6461,-5.7746,0.0,-5.7374,-5.6461,0.0,-5.2198,-5.3585,0.0,0.0,0.0,-5.7374,-5.7002,0.0,-5.4972,0.0,0.0,0.0,0.0,0.0,0.0,0.0,0.0,0.0,0.0,0.0,0.0,0.0,0.0,-6.1535,0.0,-6.7753,-7.0045,-7.3097,-7.6214,-7.8855,-7.9973,-8.1128,-8.3044,-8.3361,-8.3104,-8.2296,-8.2186,-8.2186,-8.2186,-8.2186,-8.215,-8.2186,-8.215,-8.215,-8.215,-8.1415,-8.0975,-8.0975,-8.0204,-7.9396,-7.8589,-7.8552,-7.8148,-7.7341,-7.8148,-7.8148,-7.7378,-7.7341,-7.7781,-7.8662,-7.9396,-8.0167,-8.1012,-8.1782,-8.215,-8.215,-8.2186,-8.2186,-8.2186,-8.2186,-8.2186,-8.2186,-8.2186,-8.2186,-8.2186,0.0,0.0,0.0,0.0,0.0,0.0,0.0,0.0,0.0,0.0,0.0,0.0,-4.6717,-4.7667,-4.8217,-4.8413,-4.9294,-4.9358,-4.81,-4.8795,-4.8627,-4.7286,-4.8486,0.0,0.0,0.0,0.0,0.0,0.0,0.0,0.0,0.0,0.0,0.0,-5.5006,-5.4837,-5.4735,-5.4735,0.0,0.0,-5.3078,-5.3551,0.0,0.0,0.0,0.0,0.0,-5.8321,-5.8761,0.0,-5.6799,-5.5277,0.0,0.0,0.0,0.0,0.0,0.0,-5.3518,0.0,0.0,0.0,0.0,0.0,-5.7374,0.0,-6.3469,-6.5096,-6.7865,-7.1191,-7.5139,-7.6898,-7.8635,-8.1227,-8.215,-8.2443,-8.2223,-8.2186,-8.2186,-8.2186,-8.1672,-8.1562,-8.215,-8.1158,-8.0718,-8.1305,-8.0571,-8.0131,-8.0131,-7.936,-7.8552,-7.7708,-7.7671,-7.7561,-7.7304,-7.7561,-7.7855,-7.8222,-7.7598,-7.8075,-7.9433,-7.8442,-7.8772,-8.0131,-8.0351,-8.0791,-8.1379,-8.1966,-8.2186,-8.2186,-8.2186,-8.2186,-8.2186,-8.2186,-8.2186,-8.2186,0.0,0.0,0.0,0.0,0.0,0.0,0.0,0.0,0.0,0.0,0.0,0.0,-4.7045,-4.784,-4.8306,-4.8537,-4.9271,-4.9213,-4.7927,-4.8569,-4.8602,-4.7499,-4.8102,-4.8458,0.0,0.0,0.0,0.0,0.0,0.0,0.0,-5.2097,0.0,0.0,0.0,0.0,0.0,0.0,0.0,0.0,-5.3213,0.0,0.0,-5.619,-5.7442,0.0,0.0,0.0,-6.0994,-6.0554,-5.8998,0.0,0.0,0.0,0.0,0.0,0.0,0.0,0.0,0.0,0.0,0.0,0.0,0.0,-5.4803,-5.6968,-5.9302,-6.0486,-6.3091,-6.6565,-7.1188,-7.3325,-7.5442,-7.8922,-8.0167,-8.1048,-8.2039,-8.1893,-8.1709,-8.1709,-8.0975,-8.0681,-8.1158,-8.0351,-7.9984,-8.0461,-7.9727,-7.914,-7.8772,-7.8332,-7.7818,-7.7341,-7.7304,-7.7304,-7.7304,-7.7304,-7.7561,-7.8075,-7.7561,-7.7818,-7.8736,-7.8112,-7.8552,-7.98,-8.0131,-8.0755,-8.1525,-8.2003,-8.2186,-8.2186,-8.2186,-8.2186,-8.2186,-8.2186,-8.2186,-8.2186,0.0,0.0,0.0,0.0,0.0,0.0,0.0,0.0,0.0,0.0,-4.3852,-4.4607,-4.6795,-4.6711,-4.6728,-4.7105,-4.765,-4.7743,-4.6964,-4.7757,-4.8179,-4.8179,-4.7372,-4.7418,-4.8381,-4.7205,0.0,0.0,-4.955,-5.0371,-5.23,-5.2401,-5.2807,-5.3518,0.0,0.0,0.0,0.0,0.0,-5.2401,-5.345,-5.5683,0.0,0.0,-6.0791,-6.2956,-6.4444,-6.4174,-6.3125,-6.2956,-6.0892,0.0,0.0,0.0,0.0,0.0,-5.3518,0.0,0.0,0.0,0.0,0.0,-5.4126,0.0,-5.3551,-5.4634,-5.5919,-5.6664,-5.9066,-6.246,-6.7094,-6.9282,-7.1687,-7.5468,-7.7206,-7.8993,-8.1672,-8.1379,-8.0901,-8.1012,-8.0204,-7.969,-7.9764,-7.9617,-7.9507,-7.9507,-7.8772,-7.8002,-7.7231,-7.7268,-7.7231,-7.7047,-7.7231,-7.7268,-7.7194,-7.7268,-7.7304,-7.7304,-7.7304,-7.7304,-7.7341,-7.8112,-7.8846,-7.9543,-8.0461,-8.1269,-8.1929,-8.2113,-8.2186,-8.2186,-8.2186,-8.2186,-8.2186,-8.2186,-8.2186,-8.2186,0.0,0.0,0.0,0.0,0.0,0.0,0.0,0.0,0.0,0.0,-4.622,-4.7004,-4.749,-4.7978,-4.8348,-4.8438,-4.9332,-4.9442,-4.8438,-4.8568,-4.8649,-4.8649,-4.8519,-4.9,-5.0249,-5.0025,-5.0182,-5.0924,-5.1423,-5.1894,-5.23,-5.2976,-5.3348,-5.3484,0.0,0.0,0.0,0.0,0.0,-5.2536,-5.5108,0.0,-6.1535,-6.167,-6.3125,-6.5222,-6.6711,-6.7489,-6.759,-6.6373,-6.3971,-6.096,-5.778,-5.619,0.0,-5.389,0.0,0.0,0.0,0.0,0.0,-5.3822,-5.4499,0.0,-5.3788,-5.4634,-5.5919,-5.6664,-5.822,-6.0223,-6.2614,-6.5299,-6.7522,-6.8549,-7.2057,-7.6203,-8.0608,-8.0534,-8.0277,-8.0938,-7.9727,-7.9066,-7.9727,-7.8589,-7.7818,-7.7818,-7.7047,-7.6497,-7.635,-7.6974,-7.6717,-7.5432,-7.6644,-7.7011,-7.635,-7.7011,-7.7304,-7.7304,-7.7304,-7.7304,-7.7341,-7.7488,-7.7671,-7.7892,-7.936,-8.0094,-8.0351,-8.1672,-8.2186,-8.2186,-8.2186,-8.2186,-8.2186,-8.2186,-8.2186,-8.2186,0.0,0.0,0.0,0.0,0.0,0.0,0.0,0.0,0.0,0.0,-4.665,-4.7843,-4.8615,-4.8653,-4.8577,-4.879,-4.8841,-4.8625,-4.8072,-4.8072,-4.8072,-4.8072,-4.8072,-4.8358,-4.9032,-4.9727,-5.0301,-5.0834,-5.1799,-5.2503,-5.2909,-5.3315,-5.3112,-5.2367,0.0,0.0,0.0,0.0,-5.3112,-5.3687,-5.6292,0.0,-6.2009,-6.3463,-6.5425,-6.7523,-6.8639,-6.9789,-7.0161,-6.644,-6.5425,-6.4884,-5.9979,-5.8727,-5.8592,-5.6359,-5.5412,-5.4905,-5.3788,-5.3788,-5.4059,-5.4059,-5.4329,0.0,0.0,-5.4093,-5.46,-5.4566,-5.548,-5.6915,-5.8938,-6.0897,-6.2882,-6.5032,-6.8037,-7.1413,-7.5042,-7.6937,-7.8112,-7.8516,-7.7488,-7.69,-7.7304,-7.6607,-7.613,-7.613,-7.5726,-7.5506,-7.5506,-7.5909,-7.5763,-7.4955,-7.5689,-7.6093,-7.6093,-7.6093,-7.6533,-7.7304,-7.69,-7.6937,-7.7304,-7.7304,-7.7561,-7.8002,-7.8846,-7.9433,-7.9874,-8.1085,-8.1599,-8.1636,-8.2039,-8.2186,-8.2186,-8.2186,-8.2186,-8.2186,0.0,0.0,0.0,0.0,0.0,0.0,0.0,0.0,0.0,0.0,0.0,0.0,0.0,0.0,0.0,0.0,-4.8278,-4.7578,-4.8207,0.0,0.0,-4.7413,-4.7306,-4.7392,-4.7722,-4.8938,-4.9897,-5.0703,-5.1924,-5.2875,-5.3518,-5.3518,-5.2841,0.0,0.0,0.0,0.0,0.0,0.0,-5.46,0.0,-5.9302,-6.14,-6.4512,-6.7015,-6.9045,-7.0364,-7.1515,-7.1684,-6.7015,-6.7049,-6.8132,-6.2482,-6.167,-6.2279,-5.9539,-5.8254,-5.7239,-5.531,-5.4871,-5.5006,-5.5006,-5.4803,-5.4363,0.0,0.0,0.0,-5.2706,-5.3044,-5.4057,-5.577,-5.6888,-5.8437,-6.1364,-6.3667,-6.5786,-6.7539,-7.1275,-7.4212,-7.5285,-7.4551,-7.4037,-7.4184,-7.3817,-7.3707,-7.4184,-7.4074,-7.4037,-7.4221,-7.4661,-7.4771,-7.4478,-7.4735,-7.5212,-7.5873,-7.5212,-7.5652,-7.7084,-7.6276,-7.6313,-7.7084,-7.7084,-7.7561,-7.8369,-7.8516,-7.8956,-7.9617,-8.0424,-8.0865,-8.1085,-8.1893,-8.2186,-8.2186,-8.2186,-8.2186,-8.2186,-4.1535,-4.2763,0.0,0.0,0.0,0.0,0.0,0.0,0.0,0.0,0.0,0.0,0.0,0.0,0.0,0.0,0.0,0.0,-5.1439,0.0,0.0,-4.77,-4.7462,-4.7882,-4.9133,-4.9904,-5.079,-5.1776,-5.2872,-5.3416,-5.3518,-5.3518,-5.3416,0.0,-5.2672,0.0,0.0,0.0,-5.3551,0.0,-5.7476,-5.9438,0.0,-6.4309,-6.6677,-6.847,-7.1887,-7.28,-7.2394,-7.236,-7.0906,-6.8842,-6.7354,-6.573,-6.4038,-6.2347,-6.1366,-6.0588,-5.9607,-5.9877,-5.981,-5.7205,-5.7476,-5.7543,-5.4262,0.0,-5.4262,-5.3518,0.0,-5.3315,-5.2906,0.0,0.0,-5.3893,-5.7352,-6.0084,-5.9572,-6.2969,-6.7331,-7.2328,-7.1578,-7.0917,-7.1651,-6.9779,-6.9412,-7.1578,-7.1064,-7.0954,-7.1688,-7.3744,-7.4258,-7.2826,-7.4184,-7.4955,-7.5065,-7.4955,-7.5359,-7.624,-7.5432,-7.5469,-7.624,-7.624,-7.668,-7.7524,-7.8259,-7.8662,-7.8809,-7.958,-8.0351,-8.1085,-8.1893,-8.2186,-8.2186,-8.2186,-8.2186,-8.2186,-4.2073,-4.3274,0.0,0.0,0.0,0.0,0.0,0.0,0.0,0.0,0.0,0.0,0.0,0.0,0.0,0.0,0.0,-5.099,0.0,0.0,0.0,0.0,-4.7598,-4.7558,-4.8194,-4.901,-4.9694,-5.0133,-5.1776,-5.2557,-5.2557,-5.3179,-5.3044,0.0,-5.2266,0.0,-5.2875,0.0,-5.4634,0.0,0.0,-5.9438,0.0,-6.4275,-6.7151,-6.9553,-7.1988,-7.2665,-7.2326,-7.1751,-7.1616,-7.1379,-6.9755,-6.8605,-6.7455,-6.5527,-6.3531,-6.167,-6.0419,-6.0351,-6.008,-5.7949,-5.8209,-5.8324,-5.5409,-5.5006,-5.5139,-5.4826,0.0,0.0,0.0,0.0,0.0,0.0,-5.5706,-5.7359,-5.7446,-5.9665,-6.2875,-6.7076,-6.7433,-6.7467,-6.7797,-6.6476,-6.6219,-6.7724,-6.7944,-6.8348,-6.9155,-7.1064,-7.2018,-7.1835,-7.2899,-7.3744,-7.4184,-7.3744,-7.4147,-7.5395,-7.5065,-7.5322,-7.613,-7.6607,-7.7011,-7.7341,-7.7708,-7.7855,-7.7928,-7.8772,-7.958,-8.0388,-8.1195,-8.1782,-8.2186,-8.2186,-8.2186,-8.2186,-4.2731,0.0,0.0,0.0,0.0,0.0,0.0,0.0,0.0,0.0,0.0,0.0,-5.473,-5.5029,0.0,0.0,-5.5718,-5.4132,0.0,0.0,-4.9464,0.0,0.0,0.0,-4.704,-4.8201,-4.8841,-4.8841,-5.0898,-5.1921,-5.1921,-5.3041,-5.2909,-5.186,0.0,-5.2739,-5.301,0.0,-5.575,-5.7239,-5.8727,-6.0114,-6.167,-6.4816,-6.7726,-7.0364,-7.1853,-7.2394,-7.2259,-7.1379,-7.2157,-7.324,-7.1853,-7.1244,-7.0737,-6.8876,-6.6812,-6.4749,-6.3024,-6.2584,-6.2019,-5.9701,-5.9423,-5.8974,-5.6314,-5.6234,-5.6502,-5.583,-5.6219,0.0,0.0,0.0,-5.4475,-5.4018,0.0,-5.5306,-5.5609,-5.7007,-5.9271,-6.2707,-6.3836,-6.431,-6.431,-6.3356,-6.3099,-6.3906,-6.4897,-6.5632,-6.5999,-6.8421,-7.0036,-7.0624,-7.1651,-7.2679,-7.367,-7.2899,-7.3193,-7.4588,-7.4368,-7.4771,-7.5799,-7.6387,-7.69,-7.7304,-7.7304,-7.7451,-7.7708,-7.8075,-7.8993,-8.0167,-8.0534,-8.1305,-8.2186,-8.2186,-8.2186,-8.2186,-4.3299,-4.3299,0.0,0.0,0.0,0.0,0.0,0.0,0.0,0.0,0.0,0.0,0.0,0.0,0.0,0.0,0.0,-5.7932,-5.7902,0.0,-5.069,0.0,0.0,-4.7668,0.0,-4.7956,-4.8841,-4.8841,-5.0898,-5.1921,-5.1921,-5.3041,-5.3484,-5.345,-5.345,-5.3856,-5.4566,-5.5344,-5.6528,-5.7983,-5.9471,-6.1839,-6.4613,-6.6203,-6.8199,-7.0364,-7.1853,-7.2394,-7.2496,-7.3172,-7.3443,-7.3612,-7.4255,-7.395,-7.324,-7.2462,-7.2157,-7.1616,-6.9417,-6.8808,-6.7726,-6.3348,-6.1705,-6.0253,-5.6588,-5.7552,-5.8603,-5.6184,-5.7588,-5.833,-5.5174,-5.4606,-5.4115,-5.2632,-5.3077,0.0,0.0,-5.3788,-5.621,-6.0159,-6.1266,-6.1704,-6.1704,-6.0309,-5.9722,-6.0493,-6.2034,-6.2585,-6.1851,-6.6329,-6.8972,-6.8972,-7.0513,-7.2092,-7.367,-7.2899,-7.2936,-7.3707,-7.2936,-7.3413,-7.4955,-7.4992,-7.5836,-7.7304,-7.7304,-7.7781,-7.8516,-7.7708,-7.8772,-8.0901,-8.0131,-8.0791,-8.2186,-8.2186,-8.2186,-8.2186,0.0,0.0,0.0,0.0,0.0,0.0,0.0,-4.7938,0.0,0.0,0.0,0.0,0.0,-6.2959,-6.4246,0.0,0.0,-6.26,-6.0864,-5.7842,0.0,0.0,0.0,-5.0272,0.0,-4.901,-4.8728,-4.7849,-4.9135,-5.0211,-5.093,-5.1921,-5.28,-5.3484,0.0,-5.3416,0.0,0.0,0.0,0.0,0.0,-6.4884,-6.7557,-6.7557,-6.8335,-6.9789,-7.2225,-7.28,-7.2665,-7.439,-7.4627,-7.4356,-7.51,-7.4492,-7.3443,-7.3206,-7.209,-7.0872,-7.0635,-7.0195,-6.9135,-6.6255,-6.4493,-6.2666,-5.9567,-5.9889,-6.0461,-5.9081,-6.0752,-6.137,-5.7683,-5.6962,-5.6117,-5.3547,-5.3315,-5.3416,0.0,-5.3999,-5.5279,-5.7107,-5.7992,-5.8621,-5.9171,-5.774,-5.7152,-5.796,-5.9024,-5.9979,-6.075,-6.4457,-6.7026,-6.8054,-7.0183,-7.1578,-7.2129,-7.2386,-7.2642,-7.2899,-7.3156,-7.3854,-7.4918,-7.5469,-7.6276,-7.7304,-7.7304,-7.7488,-7.7781,-7.8038,-7.8956,-8.0241,-8.0498,-8.1232,-8.2186,-8.2186,-8.2186,-8.2186,-4.3715,0.0,0.0,0.0,0.0,0.0,0.0,0.0,0.0,0.0,-5.6795,0.0,-6.5533,0.0,-6.7298,0.0,-6.8106,-6.6251,-6.269,-6.1044,0.0,-5.6615,-5.485,-5.3234,-5.1678,-5.099,-4.9793,-4.7997,-4.8998,-4.9634,-4.9852,-5.1229,-5.2241,-5.2939,-5.3079,-5.3653,-5.4702,-5.6156,-5.8254,0.0,0.0,-6.6542,-6.8301,-6.8335,-6.9147,-7.0534,-7.2428,-7.3138,-7.3409,-7.483,-7.5168,-7.5067,-7.554,-7.5033,-7.4221,-7.395,-7.3071,-7.2157,-7.209,-7.1751,-7.092,-6.9211,-6.7758,-6.6128,-6.3651,-6.3821,-6.4074,-6.2344,-6.3094,-6.3135,-6.0246,-5.8378,-5.6718,-5.4975,-5.4025,-5.3518,0.0,-5.4171,-5.4757,-5.5262,-5.6201,-5.6937,-5.7156,-5.6722,-5.6308,-5.5978,-5.7226,-5.8217,-5.8657,-6.1777,-6.431,-6.5925,-6.8054,-6.9743,-7.0881,-7.1394,-7.1945,-7.2496,-7.3046,-7.3707,-7.4515,-7.5322,-7.613,-7.69,-7.7194,-7.7488,-7.7818,-7.8369,-7.925,-8.0277,-8.0791,-8.1489,-8.2186,-8.2186,-8.2186,-8.2186,0.0,0.0,0.0,0.0,-4.6441,0.0,0.0,0.0,-5.3982,0.0,-6.0356,-6.4485,-6.7807,-6.9333,-7.0111,-7.0111,-7.0679,-6.8854,-6.3737,-6.3947,0.0,0.0,-5.7453,-5.6496,-5.4551,-5.3773,-5.2127,-4.9613,-5.038,-5.0182,-4.9027,-5.0887,-5.1776,-5.1882,-5.371,0.0,-5.4565,-5.6156,-5.8558,-6.167,-6.5222,-6.6779,-6.7083,-6.8504,-7.0466,-7.2462,-7.2462,-7.3375,-7.4559,-7.4661,-7.5134,-7.5709,-7.5709,-7.5709,-7.5574,-7.4864,-7.5168,-7.5371,-7.3984,-7.3578,-7.3344,-7.224,-7.1329,-7.0202,-6.8247,-6.8945,-6.9021,-6.5838,-6.4634,-6.3819,-6.2576,-5.8871,-5.6085,-5.6568,-5.4871,-5.3518,-5.3518,-5.4106,-5.4544,-5.4544,-5.5893,-5.65,-5.583,-5.7036,-5.6932,-5.462,-5.6565,-5.7226,-5.5721,-5.8657,-6.1117,-6.2695,-6.442,-6.6806,-6.9889,-7.0036,-7.0881,-7.2459,-7.2496,-7.2936,-7.3707,-7.4478,-7.5322,-7.613,-7.6937,-7.7745,-7.8552,-7.8626,-7.9543,-8.0938,-8.1048,-8.1525,-8.2186,-8.2186,-8.2186,-8.2186,-4.1499,-4.3227,-4.4908,0.0,-4.707,-4.7578,0.0,0.0,0.0,0.0,-6.269,-6.67,-7.047,-7.1637,-7.2176,-7.2176,-7.2295,0.0,0.0,0.0,0.0,-6.3827,-6.2331,-6.0625,-5.862,-5.6944,-5.5538,-5.4401,-5.169,-5.0816,-5.176,-5.0266,-5.0009,-5.0887,-5.2606,-5.3075,-5.2782,-5.5602,-5.8863,-6.2245,-6.3768,-6.6034,-6.8504,-6.8301,-7.0297,-7.3206,-7.3206,-7.3443,-7.395,-7.5067,-7.554,-7.5709,-7.5709,-7.5709,-7.5676,-7.5473,-7.554,-7.5608,-7.5236,-7.4728,-7.432,-7.4168,-7.2198,-7.0252,-6.9813,-7.006,-6.992,-6.8469,-6.8576,-6.7623,-6.3308,-6.067,-5.8148,-5.4839,-5.389,-5.3518,-5.3518,-5.3651,-5.3783,-5.3783,-5.457,-5.5491,-5.65,-5.6343,-5.5941,-5.5317,-5.5868,-5.6308,-5.6492,-5.8988,-6.086,-6.1887,-6.4127,-6.5999,-6.7393,-6.9192,-7.0624,-7.1651,-7.2202,-7.2936,-7.3707,-7.3891,-7.4771,-7.6093,-7.6313,-7.6864,-7.7745,-7.8993,-7.9727,-8.0204,-8.1415,-8.2003,-8.2186,-8.2186,-8.2186,-8.2186,-4.1196,0.0,0.0,-4.7106,0.0,0.0,-5.0541,-5.2636,0.0,-6.0386,-6.4425,0.0,-7.1128,-7.2834,-7.3672,-7.3373,-7.3343,0.0,-7.0141,0.0,0.0,-6.652,-6.5114,-6.3558,-6.1822,-5.9578,-5.7812,-5.6585,-5.2606,-5.0968,-5.1576,-4.9735,-4.9135,-4.9773,0.0,-5.1782,-5.1955,-5.5572,-5.9127,-6.2482,-6.3565,-6.5831,0.0,-6.847,-7.0128,-7.2563,-7.2902,-7.3646,-7.4593,-7.5405,-7.5709,-7.5709,-7.5709,-7.5709,-7.5709,-7.5709,-7.5709,-7.5709,-7.5709,-7.5405,-7.5213,-7.5844,-7.4602,-7.3261,-7.3146,-7.2823,-7.2224,-7.149,-7.0584,-6.9149,-6.6426,-6.309,-5.9279,-5.4703,-5.3721,-5.3518,-5.3518,-5.3788,-5.3856,-5.3551,-5.4413,-5.5389,-5.6313,-5.5946,-5.5313,-5.4641,-5.4894,-5.5404,-5.6259,-5.7601,-5.9134,-6.1006,-6.3099,-6.4787,-6.5962,-6.8017,-6.9265,-6.9743,-7.0917,-7.1688,-7.2165,-7.323,-7.4184,-7.5102,-7.5799,-7.635,-7.6937,-7.8589,-7.947,-7.9947,-8.1562,-8.2186,-8.2186,-8.2186,-8.2186,-8.2186,0.0,0.0,0.0,0.0,0.0,0.0,0.0,-5.4361,0.0,-6.2002,0.0,-6.9034,-7.0829,-7.3193,-7.436,-7.3702,0.0,-7.2714,-7.026,-7.0111,-6.9243,-6.7328,-6.661,-6.5682,-6.4425,-6.1732,-5.9488,-5.7752,-5.3443,-5.105,-5.0451,-4.9164,-4.8594,-4.8677,0.0,0.0,0.0,-5.5194,-5.8661,-6.1784,-6.3438,-6.5647,-6.7996,-6.8808,-7.0094,-7.1548,-7.2157,-7.3713,-7.5439,-7.5506,-7.5608,-7.5709,-7.5709,-7.5709,-7.5709,-7.5709,-7.5709,-7.5709,-7.5709,-7.5709,-7.5926,-7.6837,-7.7071,-7.6955,-7.6491,-7.5715,-7.493,-7.4188,-7.1746,-6.9755,-6.9992,-6.5155,-5.9776,-5.5547,-5.4262,-5.3822,-5.3923,-5.4228,-5.4296,-5.3856,-5.4922,0.0,-5.5847,-5.5613,-5.4919,-5.3726,-5.4207,-5.4884,-5.5649,-5.5842,-5.7226,-6.0162,-6.1814,-6.3466,-6.5154,-6.6733,-6.7577,-6.7724,-6.9339,-7.011,-7.0183,-7.2496,-7.3597,-7.378,-7.5285,-7.6019,-7.624,-7.7892,-7.914,-8.0094,-8.1599,-8.2186,-8.2186,-8.2186,-8.2186,-8.2186,0.0,0.0,0.0,0.0,0.0,-5.2865,-5.5729,-5.9688,-6.3019,-6.5054,-6.8286,-7.0739,-7.1607,-7.2624,-7.2984,-7.2295,-7.2744,0.0,0.0,0.0,-7.0111,-6.8704,-6.7986,-6.7268,-6.649,-6.3348,-6.1583,-6.1224,-5.5059,-5.1977,-5.1798,-4.8893,-4.7538,-4.7624,0.0,0.0,-5.0762,-5.2555,-5.4998,-5.7764,-6.034,-6.3969,-6.7996,-6.8808,-7.0398,-7.2225,-7.236,-7.3037,-7.3984,-7.4593,-7.5202,-7.5709,-7.5709,-7.5709,-7.5709,-7.5709,-7.5709,-7.5709,-7.5709,-7.5709,-7.5771,-7.5926,-7.5926,-7.5952,-7.5832,-7.5705,-7.5518,-7.5383,-7.4,-7.2022,-6.9722,-6.4377,-5.9471,-5.6833,-5.5818,-5.5547,-5.6156,-5.4769,-5.4093,-5.5209,-5.5536,-5.5953,-5.6655,-5.5446,-5.4866,-5.5266,-5.541,-5.5532,-5.5685,-5.6901,-5.8143,-5.9391,-6.097,-6.2622,-6.4273,-6.5888,-6.7026,-6.7724,-6.9339,-7.011,-7.0146,-7.1908,-7.3083,-7.3744,-7.4698,-7.5506,-7.624,-7.7892,-7.947,-8.0865,-8.1819,-8.2186,-8.2186,-8.2186,-8.2186,-8.2186,0.0,0.0,0.0,0.0,0.0,0.0,0.0,-6.1812,-6.5506,-6.6398,-6.8196,-6.9632,-7.032,-7.1906,-7.2774,-7.2445,-7.2714,-7.2475,-7.1487,-7.0799,-6.9991,-6.9034,-6.8016,-6.7298,-6.6999,-6.4096,-6.26,-6.26,-5.6316,-5.3054,-5.2636,-4.9703,-4.7967,-4.7339,0.0,-5.0097,0.0,-5.245,-5.5256,-5.9333,-6.067,-6.39,-6.7996,-6.8808,-6.9992,-7.1312,-7.1684,-7.2293,-7.3105,-7.4221,-7.4864,-7.5202,-7.5574,-7.5709,-7.5709,-7.5709,-7.5709,-7.5709,-7.5709,-7.5709,-7.5709,-7.5709,-7.5709,-7.5709,-7.5709,-7.5709,-7.5709,-7.5709,-7.5134,-7.3747,-7.077,-6.5662,-6.14,-5.9945,-5.778,-5.6393,-5.6765,-5.5886,-5.5344,-5.5683,-5.5375,-5.5598,-5.679,-5.5494,-5.4873,-5.5633,-5.5338,-5.5058,-5.5058,-5.6572,-5.774,-5.8547,-6.097,-6.2622,-6.3429,-6.5888,-6.71,-6.71,-6.9119,-7.011,-7.0183,-7.2202,-7.334,-7.378,-7.4992,-7.5726,-7.6276,-7.8369,-7.969,-8.0498,-8.1709,-8.2186,-8.2186,-8.2186,-8.2186,-8.2186,0.0,-4.5057,0.0,0.0,-5.1591,-5.4962,-5.7724,-6.2858,-6.6651,-6.7145,-6.8005,-6.8854,-6.9542,-7.1457,-7.2595,-7.2325,-7.2535,-7.2295,-7.1338,-7.032,-6.9482,-6.8824,-6.7627,-6.6999,-6.6999,-6.4545,-6.2989,-6.245,-5.7334,-5.4042,-5.2516,-5.0571,-4.8985,-4.7758,-4.8416,-5.0061,-5.2233,-5.2452,-5.5803,-6.1008,-6.125,-6.3942,-6.7996,-6.8808,-6.9553,-7.0297,-7.1041,-7.1684,-7.236,-7.368,-7.4356,-7.4728,-7.527,-7.5574,-7.5709,-7.5709,-7.5709,-7.5709,-7.5709,-7.5709,-7.5709,-7.5709,-7.5709,-7.5709,-7.5709,-7.5709,-7.5709,-7.5709,-7.5574,-7.4627,-7.1819,-6.7963,-6.4715,-6.3328,-6.0622,-5.8524,-5.8051,-5.7848,-5.7378,-5.6265,-5.6133,-5.628,-5.6808,-5.6106,-5.566,-5.59,-5.5215,-5.4733,-5.4733,-5.5775,-5.6786,-5.7737,-6.0554,-6.2384,-6.3079,-6.5836,-6.7136,-6.7026,-6.8935,-6.9926,-7.0183,-7.2606,-7.3707,-7.378,-7.5395,-7.6203,-7.6533,-7.8846,-7.98,-7.9947,-8.1562,-8.2186,-8.2186,-8.2186,-8.2186,-8.2186,0.0,0.0,0.0,0.0,0.0,-5.665,-5.9543,-6.4159,-6.7382,-6.7978,-6.9486,-7.0889,-7.1547,-7.1846,-7.1517,-7.035,-7.1308,-7.1218,-6.9393,-6.9153,-6.8794,-6.8106,-6.7388,-6.6999,-6.6999,-6.4964,-6.275,-6.0356,-5.7992,-5.467,-5.0511,-5.087,-5.0331,-4.9105,-4.9763,-4.9914,-4.9674,-5.0876,-5.4049,-5.8452,-5.9652,-6.3265,-6.7996,-6.8808,-6.9553,-7.0297,-7.1041,-7.1345,-7.1548,-7.2326,-7.351,-7.4627,-7.4695,-7.5168,-7.5709,-7.5709,-7.5709,-7.5709,-7.5709,-7.5709,-7.5709,-7.5709,-7.5709,-7.5709,-7.5709,-7.5709,-7.5709,-7.5709,-7.5168,-7.4018,-7.1718,-7.0906,-6.9451,-6.5967,-6.5087,-6.4174,-6.2144,-6.1298,-6.0109,-5.7877,-5.9569,-5.9785,-5.7083,-5.8052,-5.8244,-5.6812,-5.6019,-5.5613,-5.5613,-5.5098,-5.546,-5.6978,-5.873,-6.11,-6.3961,-6.4984,-6.6586,-6.8678,-6.8898,-6.9376,-7.0183,-7.2606,-7.3707,-7.378,-7.5395,-7.6533,-7.7341,-7.9066,-7.98,-7.9947,-8.1562,-8.2186,-8.2186,-8.2186,-8.2186,-8.2186,0.0,0.0,0.0,-5.195,-5.3258,-5.5663,-6.028,-6.3529,-6.636,-6.8378,-7.0017,-7.1009,-7.1278,-7.1308,-7.1098,-7.059,-7.0649,-7.041,-6.9632,-6.8824,-6.8256,-6.7986,-6.7358,-6.6999,-6.6999,-6.5832,-6.4306,-6.2421,-6.0057,-5.7154,-5.3773,-5.2426,-5.1109,-4.9853,-5.0122,-5.0541,-5.1109,-5.2456,-5.5409,-5.928,-6.0693,-6.3875,-6.7996,-6.8808,-6.9553,-7.0297,-7.1041,-7.1312,-7.1413,-7.2157,-7.28,-7.3443,-7.4322,-7.4796,-7.5134,-7.5574,-7.5709,-7.5709,-7.5709,-7.5709,-7.5709,-7.5709,-7.5709,-7.5709,-7.5709,-7.5709,-7.5709,-7.5709,-7.5473,-7.4999,-7.4119,-7.2496,-7.0973,-6.9891,-6.7827,-6.573,-6.3971,-6.2313,-6.0449,-5.8048,-5.7503,-5.6987,-5.6165,-5.668,-5.7071,-5.6813,-5.6539,-5.6161,-5.5686,-5.5796,-5.6197,-5.6817,-5.8422,-6.0843,-6.4091,-6.5856,-6.7944,-7.0367,-7.0844,-7.1468,-7.2312,-7.3744,-7.4955,-7.5909,-7.657,-7.7011,-7.7451,-7.9103,-7.98,-7.9947,-8.1562,-8.2186,-8.2186,-8.2186,-8.2186,-8.2186,-5.3331,-5.3005,-5.3331,-5.5214,-5.4913,-5.6147,-6.1593,-6.3455,-6.5669,-6.9176,-7.0341,-7.0979,-7.1158,-7.1009,-7.0739,-7.038,-7.0111,-6.9722,-6.9153,-6.8405,-6.7897,-6.7687,-6.7238,-6.6999,-6.6999,-6.655,-6.5533,-6.4006,-6.2151,-5.9518,-5.6137,-5.3862,-5.2396,-5.1708,-5.2235,-5.3028,-5.4031,-5.5359,-5.8091,-6.1562,-6.2506,-6.5,-6.8335,-6.9113,-6.9755,-7.0297,-7.1041,-7.1447,-7.1718,-7.2225,-7.2529,-7.2935,-7.4221,-7.4762,-7.5033,-7.554,-7.5709,-7.5709,-7.5709,-7.5709,-7.5709,-7.5709,-7.5709,-7.5709,-7.5709,-7.5709,-7.5709,-7.5709,-7.5709,-7.5709,-7.5709,-7.4018,-7.2631,-7.2699,-7.05,-6.7963,-6.5595,-6.3903,-6.1715,-5.8553,-5.6963,-5.5959,-5.5338,-5.5743,-5.6174,-5.6463,-5.6746,-5.6503,-5.5647,-5.5944,-5.6145,-5.6145,-5.7934,-6.0468,-6.3722,-6.6113,-6.8678,-7.1321,-7.2129,-7.2936,-7.3744,-7.4771,-7.6019,-7.7304,-7.7304,-7.7304,-7.7451,-7.9103,-7.98,-7.9947,-8.1562,-8.2186,-8.2186,-8.2186,-8.2186,-8.2186,-5.5942,-5.6168,-5.652,-5.765,-5.7851,-5.927,-6.3657,-6.4443,-6.5916,-7.0248,-7.0919,-7.1158,-7.1816,-7.1308,-7.038,-6.9123,-6.9602,-6.9153,-6.7148,-6.7627,-6.7687,-6.7029,-6.6999,-6.6999,-6.6999,-6.6969,-6.6011,-6.4006,-6.3977,-6.1283,-5.6137,-5.482,-5.4521,-5.525,-5.7187,-5.8049,-5.8145,-5.9437,-6.1847,-6.4959,-6.4992,-6.6635,-6.918,-6.9891,-7.0195,-7.0297,-7.1041,-7.1785,-7.2394,-7.2394,-7.2868,-7.3612,-7.4356,-7.51,-7.5676,-7.5709,-7.5709,-7.5709,-7.5709,-7.5709,-7.5709,-7.5709,-7.5709,-7.5709,-7.5709,-7.5709,-7.5709,-7.5709,-7.5709,-7.5709,-7.5709,-7.5676,-7.5168,-7.3713,-7.3443,-7.1853,-6.7421,-6.6779,-6.4845,-5.9608,-5.9683,-5.8724,-5.4871,-5.5923,-5.6551,-5.5757,-5.6379,-5.6455,-5.5647,-5.4989,-5.4616,-5.4517,-5.6891,-5.9726,-6.2908,-6.5313,-6.8128,-7.1321,-7.2129,-7.2936,-7.3744,-7.5359,-7.6533,-7.7304,-7.7304,-7.7304,-7.7451,-7.9103,-7.98,-7.9947,-8.1562,-8.2186,-8.2186,-8.2186,-8.2186,-8.2186,-5.7851,-5.7926,-5.8152,-5.8855,-5.9814,-6.1436,-6.4544,-6.6061,-6.7852,-7.0599,-7.0889,-7.0979,-7.1188,-7.1038,-7.0919,-7.0949,-7.035,-6.9722,-6.9064,-6.8794,-6.8375,-6.7687,-6.7657,-6.7448,-6.6999,-6.6999,-6.646,-6.5353,-6.4934,-6.245,-5.8171,-5.7752,-5.7402,-5.7248,-5.8882,-6.0035,-6.1026,-6.2268,-6.3923,-6.575,-6.6245,-6.7835,-6.9857,-7.0094,-7.05,-7.1041,-7.1785,-7.2191,-7.2563,-7.3578,-7.4052,-7.439,-7.5134,-7.5168,-7.5067,-7.554,-7.5709,-7.5709,-7.5709,-7.5709,-7.5709,-7.5709,-7.5709,-7.5709,-7.5709,-7.5709,-7.5709,-7.5709,-7.5709,-7.5709,-7.5709,-7.5709,-7.554,-7.5067,-7.3713,-7.1515,-6.803,-6.5392,-6.2191,-5.796,-5.727,-5.6412,-5.4595,-5.5877,-5.6973,-5.7241,-5.75,-5.7522,-5.7262,-5.6493,-5.6619,-5.7667,-5.8994,-6.1259,-6.451,-6.6919,-6.9192,-7.1321,-7.2679,-7.4037,-7.5359,-7.6423,-7.7084,-7.7304,-7.7304,-7.7671,-7.8259,-7.9323,-8.0094,-8.0718,-8.1782,-8.2186,-8.2186,-8.2186,-8.2186,-8.2186,-5.9659,-5.9659,-6.0044,-6.1095,-6.2005,-6.3379,-6.6256,-6.7712,-6.9079,-7.0658,-7.1128,-7.1278,-7.1278,-7.1278,-7.1248,-7.1188,-7.044,-6.9871,-6.9632,-6.9243,-6.8704,-6.8016,-6.7956,-6.7657,-6.6999,-6.6999,-6.6789,-6.637,-6.5203,-6.3378,-6.0924,-6.0446,-6.0472,-6.0882,-6.1979,-6.3192,-6.4471,-6.5624,-6.6641,-6.7735,-6.8378,-6.9468,-7.0669,-7.121,-7.1548,-7.1819,-7.2563,-7.3003,-7.3375,-7.4289,-7.4796,-7.51,-7.554,-7.5371,-7.51,-7.5574,-7.5709,-7.5709,-7.5709,-7.5709,-7.5709,-7.5709,-7.5709,-7.5709,-7.5709,-7.5709,-7.5709,-7.5709,-7.5709,-7.5709,-7.5709,-7.5709,-7.5608,-7.5337,-7.3646,-7.1244,-6.7963,-6.4546,-6.1061,-5.7564,-5.6501,-5.577,-5.4979,-5.6545,-5.7751,-5.8049,-5.8494,-5.879,-5.8904,-5.8437,-5.8767,-6.0052,-6.1484,-6.3539,-6.6182,-6.8311,-7.0146,-7.1798,-7.3707,-7.5285,-7.657,-7.7084,-7.7304,-7.7304,-7.7304,-7.7818,-7.8662,-7.947,-8.0277,-8.1085,-8.1893,-8.2186,-8.2186,-8.2186,-8.2186,-8.2186,-6.119,-6.119,-6.1774,-6.3695,-6.4228,-6.5342,-6.8396,-6.9171,-6.9651,-7.0718,-7.1487,-7.1876,-7.1816,-7.1816,-7.1338,-7.0141,-6.9991,-6.9722,-6.9123,-6.9034,-6.8704,-6.8016,-6.7956,-6.7657,-6.6999,-6.6999,-6.6999,-6.6999,-6.5114,-6.4186,-6.4126,-6.2929,-6.3477,-6.5313,-6.6035,-6.7066,-6.8423,-6.9088,-6.9789,-7.0466,-7.1176,-7.1447,-7.1616,-7.2969,-7.3071,-7.2563,-7.3308,-7.4018,-7.4627,-7.4661,-7.5134,-7.5709,-7.5709,-7.5709,-7.5709,-7.5709,-7.5709,-7.5709,-7.5709,-7.5709,-7.5709,-7.5709,-7.5709,-7.5709,-7.5709,-7.5709,-7.5709,-7.5709,-7.5709,-7.5709,-7.5709,-7.5676,-7.5405,-7.4728,-7.3206,-7.0838,-6.7252,-6.4174,-6.1231,-5.8357,-5.7532,-5.6915,-5.618,-5.7976,-5.8967,-5.8638,-5.9541,-6.0308,-6.0713,-6.0774,-6.1117,-6.1741,-6.42,-6.6256,-6.7834,-6.9449,-7.1101,-7.2789,-7.5028,-7.6533,-7.7304,-7.7378,-7.7414,-7.7414,-7.7451,-7.7965,-7.8809,-7.9543,-8.0351,-8.1158,-8.1893,-8.2186,-8.2186,-8.2186,-8.2186,-8.2186,-6.119,-6.119,-6.1324,-6.1774,-6.4035,-6.5883,-6.6756,-6.9309,-7.1212,-7.0979,-7.1487,-7.1697,-7.1188,-7.1128,-7.1009,-7.0709,-7.026,-6.9901,-6.9752,-6.9273,-6.8704,-6.8016,-6.7956,-6.7657,-6.6999,-6.6999,-6.6999,-6.6999,-6.652,-6.6041,-6.5533,-6.5233,-6.5637,-6.666,-6.8001,-6.9265,-7.0601,-7.1908,-7.2529,-7.2732,-7.2902,-7.2969,-7.3003,-7.3341,-7.3375,-7.3341,-7.4086,-7.4458,-7.4695,-7.5236,-7.5574,-7.5709,-7.5709,-7.5709,-7.5709,-7.5709,-7.5709,-7.5709,-7.5709,-7.5709,-7.5709,-7.5709,-7.5709,-7.5709,-7.5709,-7.5709,-7.5709,-7.5709,-7.5709,-7.5709,-7.5709,-7.5236,-7.4796,-7.4661,-7.1447,-6.8267,-6.6237,-6.3429,-6.0867,-5.8987,-6.0129,-6.0766,-6.0075,-6.0449,-6.149,-6.3206,-6.1467,-6.1366,-6.3832,-6.4656,-6.4567,-6.3539,-6.5852,-6.7907,-6.9522,-7.1138,-7.3046,-7.5249,-7.5836,-7.6533,-7.7341,-7.8002,-7.8295,-7.8332,-7.8919,-7.9653,-8.0461,-8.0645,-8.1195,-8.1929,-8.2113,-8.2186,-8.2186,-8.2186,-8.2186,-8.2186,-6.1943,-6.1943,-6.224,-6.312,-6.5306,-6.7162,-6.7775,-7.0196,-7.1637,-7.0979,-7.1487,-7.1637,-7.0979,-7.1158,-7.1218,-7.0919,-7.035,-6.9991,-6.9991,-6.9363,-6.8704,-6.8016,-6.7956,-6.7657,-6.6999,-6.6999,-6.6999,-6.6999,-6.6999,-6.6819,-6.646,-6.646,-6.7356,-6.9067,-6.9594,-7.094,-7.2804,-7.3299,-7.3477,-7.351,-7.3849,-7.3781,-7.3544,-7.4221,-7.4289,-7.4086,-7.483,-7.51,-7.5168,-7.5574,-7.5709,-7.5709,-7.5709,-7.5709,-7.5709,-7.5709,-7.5709,-7.5709,-7.5709,-7.5709,-7.5709,-7.5709,-7.5709,-7.5709,-7.5709,-7.5709,-7.5709,-7.5709,-7.5709,-7.5709,-7.5709,-7.483,-7.3781,-7.2766,-6.9688,-6.6542,-6.4038,-6.1975,-6.0452,-5.9607,-6.1231,-6.2381,-6.2313,-6.3531,-6.4667,-6.5467,-6.4562,-6.4604,-6.6219,-6.781,-6.7919,-6.6316,-6.8623,-7.066,-7.2275,-7.3523,-7.4808,-7.6093,-7.6318,-7.6672,-7.7109,-7.7507,-7.7625,-7.7661,-7.8095,-7.8745,-7.9575,-8.0067,-8.0745,-8.1542,-8.2018,-8.2186,-8.2186,-8.2186,-8.1885,-8.1542,-6.2822,-6.2822,-6.3423,-6.5398,-6.7007,-6.8344,-6.9648,-7.109,-7.1757,-7.1009,-7.1487,-7.1637,-7.0979,-7.1398,-7.1517,-7.0949,-7.035,-6.9931,-6.9842,-6.9213,-6.8525,-6.7867,-6.7837,-6.7567,-6.6999,-6.6999,-6.6999,-6.6999,-6.6999,-6.6999,-6.6999,-6.7213,-6.8649,-7.1059,-7.0856,-7.2204,-7.4411,-7.3992,-7.3815,-7.3883,-7.4525,-7.439,-7.395,-7.5202,-7.5303,-7.4864,-7.5473,-7.5709,-7.5709,-7.5709,-7.5709,-7.5709,-7.5709,-7.5709,-7.5709,-7.5709,-7.5709,-7.5709,-7.5709,-7.5709,-7.5709,-7.5709,-7.5709,-7.5709,-7.5709,-7.5709,-7.5709,-7.5709,-7.5709,-7.5709,-7.5709,-7.439,-7.2732,-7.0973,-6.8132,-6.5121,-6.2212,-6.1028,-6.052,-6.0757,-6.2516,-6.4005,-6.4647,-6.6846,-6.7912,-6.7024,-6.7741,-6.8115,-6.7986,-7.0082,-7.0698,-6.9381,-7.1623,-7.3597,-7.5065,-7.5873,-7.6216,-7.6056,-7.6632,-7.6802,-7.6697,-7.6671,-7.671,-7.671,-7.6816,-7.7276,-7.8027,-7.8953,-7.9755,-8.044,-8.1542,-8.1952,-8.1952,-8.2121,-8.1542,-8.0768,-6.2822,-6.2822,-6.3423,-6.5398,-6.7007,-6.8344,-6.9648,-7.1502,-7.2295,-7.1068,-7.1487,-7.1637,-7.0979,-7.0979,-7.1009,-7.0919,-7.035,-6.9752,-6.9183,-6.8525,-6.7837,-6.7178,-6.7148,-6.7089,-6.6999,-6.6999,-6.6999,-6.6999,-6.6999,-6.6999,-6.6999,-6.8325,-6.9085,-6.9631,-7.2013,-7.3401,-7.3807,-7.4858,-7.5371,-7.5371,-7.5473,-7.5473,-7.5371,-7.5608,-7.5642,-7.554,-7.5676,-7.5709,-7.5709,-7.5709,-7.5709,-7.5709,-7.5709,-7.5709,-7.5709,-7.5709,-7.5709,-7.5709,-7.5709,-7.5709,-7.5709,-7.5709,-7.5709,-7.5709,-7.5709,-7.5709,-7.5709,-7.5709,-7.5709,-7.5709,-7.5709,-7.3984,-7.2665,-7.2935,-6.7421,-6.3328,-6.4005,-6.2888,-6.2516,-6.3768,-6.7455,-6.9958,-7.0094,-6.9925,-7.0072,-7.0729,-6.9159,-6.8482,-6.9113,-7.0978,-7.1919,-7.1588,-7.3461,-7.4992,-7.5909,-7.6717,-7.6674,-7.5846,-7.6545,-7.6446,-7.5667,-7.6965,-7.7559,-7.7629,-7.8346,-7.87,-7.8806,-7.8966,-7.9116,-7.938,-8.044,-8.084,-8.0911,-8.1885,-8.1542,-8.0587,-6.2822,-6.333,-6.4191,-6.5083,-6.7271,-6.9024,-6.9273,-7.1061,-7.1996,-7.1038,-7.1158,-7.1248,-7.0949,-7.0889,-7.0889,-7.0889,-7.0649,-7.0051,-6.9064,-6.8345,-6.7837,-6.7537,-6.7178,-6.6999,-6.6999,-6.6999,-6.6999,-6.6999,-6.6999,-6.7427,-6.8206,-6.8883,-7.0086,-7.1605,-7.3018,-7.3972,-7.4736,-7.5388,-7.5709,-7.5709,-7.5709,-7.5709,-7.5709,-7.5709,-7.5709,-7.5709,-7.5709,-7.5709,-7.5709,-7.5709,-7.5709,-7.5709,-7.5709,-7.5709,-7.5709,-7.5709,-7.5709,-7.5709,-7.5709,-7.5709,-7.5709,-7.5709,-7.5709,-7.5709,-7.5709,-7.5709,-7.5709,-7.5709,-7.5709,-7.5709,-7.5709,-7.3883,-7.2394,-7.2326,-6.7083,-6.3362,-6.4444,-6.3666,-6.3835,-6.6102,-6.9316,-7.1616,-7.2394,-7.2157,-7.2199,-7.2769,-7.1849,-7.1468,-7.1917,-7.369,-7.4752,-7.4655,-7.5689,-7.6104,-7.5916,-7.6836,-7.7012,-7.6367,-7.6589,-7.637,-7.579,-7.6383,-7.6676,-7.6676,-7.7021,-7.716,-7.7248,-7.7822,-7.8077,-7.8245,-7.9956,-8.0623,-8.0768,-8.1782,-8.116,-7.9804,-6.327,-6.4246,-6.5127,-6.6173,-6.8328,-6.9753,-6.9562,-7.0888,-7.1637,-7.0979,-7.0889,-7.0889,-7.0889,-7.0889,-7.0889,-7.0889,-7.0889,-7.044,-6.9303,-6.8585,-6.8076,-6.7747,-6.7268,-6.6999,-6.6999,-6.6999,-6.6999,-6.6999,-6.7335,-6.8087,-6.9201,-6.9859,-7.1388,-7.3668,-7.3972,-7.4736,-7.5709,-7.5709,-7.5709,-7.5709,-7.5709,-7.5709,-7.5709,-7.5709,-7.5709,-7.5709,-7.5709,-7.5709,-7.5709,-7.5709,-7.5709,-7.5709,-7.5709,-7.5709,-7.5709,-7.5709,-7.5709,-7.5709,-7.5709,-7.5709,-7.5709,-7.5709,-7.5709,-7.5709,-7.5709,-7.5709,-7.5709,-7.5709,-7.5709,-7.5709,-7.5709,-7.4018,-7.2462,-7.1921,-6.759,-6.4613,-6.5527,-6.5019,-6.5561,-6.8368,-7.0703,-7.2597,-7.3883,-7.3984,-7.4014,-7.3997,-7.4015,-7.3979,-7.3972,-7.556,-7.6552,-7.6841,-7.7086,-7.7093,-7.6741,-7.7093,-7.7218,-7.716,-7.7191,-7.694,-7.6536,-7.6165,-7.6114,-7.602,-7.5771,-7.5709,-7.5771,-7.6837,-7.7336,-7.7476,-7.9691,-8.0623,-8.0695,-8.1542,-8.0587,-7.9063,-6.456,-6.487,-6.6021,-6.9876,-7.0105,-7.0337,-7.154,-7.1745,-7.1637,-7.0979,-7.0889,-7.0889,-7.0889,-7.0889,-7.0889,-7.0889,-7.0889,-7.062,-6.9961,-6.9303,-6.8375,-6.7119,-6.7029,-6.6999,-6.6999,-6.6999,-6.6999,-6.6999,-6.8325,-6.9085,-6.9317,-7.1961,-7.3361,-7.3668,-7.4932,-7.558,-7.5709,-7.5709,-7.5709,-7.5709,-7.5709,-7.5709,-7.5709,-7.5709,-7.5709,-7.5709,-7.5709,-7.5709,-7.5709,-7.5709,-7.5709,-7.5709,-7.5709,-7.5709,-7.5709,-7.5709,-7.5709,-7.5709,-7.5709,-7.5709,-7.5709,-7.5709,-7.5709,-7.5709,-7.5709,-7.5709,-7.5709,-7.5709,-7.5709,-7.5709,-7.5709,-7.4424,-7.3375,-7.3341,-6.9519,-6.7083,-6.8571,-6.8098,-6.8436,-7.077,-7.3037,-7.4695,-7.5473,-7.554,-7.5236,-7.4585,-7.4517,-7.4272,-7.3617,-7.455,-7.558,-7.6583,-7.6913,-7.7783,-7.9517,-7.7886,-7.7372,-7.8097,-7.8819,-7.8702,-7.762,-7.7302,-7.716,-7.716,-7.6114,-7.5709,-7.5771,-7.6837,-7.7336,-7.7476,-7.9691,-8.0623,-8.0623,-8.0695,-7.9956,-7.8822,-6.511,-6.5842,-6.6953,-6.9764,-7.0809,-7.117,-7.1237,-7.1637,-7.1637,-7.0979,-7.056,-7.032,-7.032,-6.9961,-6.9722,-6.9722,-6.9722,-6.9453,-6.8764,-6.8495,-6.7956,-6.7029,-6.6999,-6.6999,-6.6999,-6.6999,-6.7427,-6.8325,-6.9,-7.0199,-7.1929,-7.3018,-7.4106,-7.4932,-7.5484,-7.5709,-7.5709,-7.5709,-7.5709,-7.5709,-7.5709,-7.5709,-7.5709,-7.5709,-7.5709,-7.5709,-7.5709,-7.5709,-7.5709,-7.5709,-7.5709,-7.5709,-7.5709,-7.5709,-7.5709,-7.5709,-7.5709,-7.5709,-7.5709,-7.5709,-7.5709,-7.5709,-7.5709,-7.5709,-7.5709,-7.5709,-7.5709,-7.5709,-7.5709,-7.5709,-7.5709,-7.4864,-7.4322,-7.4796,-7.1515,-6.9586,-7.1548,-7.077,-7.0669,-7.2462,-7.4221,-7.5405,-7.5676,-7.5709,-7.5574,-7.5303,-7.527,-7.5168,-7.4864,-7.6557,-7.8018,-7.9025,-7.8747,-7.8632,-7.8831,-7.8741,-7.8826,-7.8927,-7.9251,-7.9099,-7.8523,-7.8436,-7.8328,-7.8328,-7.7907,-7.7771,-7.7736,-7.8161,-7.8328,-7.8494,-8.0032,-8.0623,-8.0623,-8.0623,-7.9956,-7.8822,-6.5595,-6.6604,-6.7932,-7.017,-7.1317,-7.1667,-7.1009,-7.1278,-7.1338,-7.0709,-7.041,-7.0111,-6.9722,-6.9632,-6.9453,-6.9034,-6.9363,-6.9123,-6.8046,-6.7777,-6.7448,-6.6999,-6.6999,-6.6999,-6.6999,-6.6999,-6.7759,-6.9201,-6.9631,-7.1169,-7.3566,-7.4073,-7.4736,-7.5709,-7.5709,-7.5709,-7.5709,-7.5709,-7.5709,-7.5709,-7.5709,-7.5709,-7.5709,-7.5709,-7.5709,-7.5709,-7.5709,-7.5709,-7.5709,-7.5709,-7.5709,-7.5709,-7.5709,-7.5709,-7.5709,-7.5709,-7.5709,-7.5709,-7.5709,-7.5709,-7.5709,-7.5709,-7.5709,-7.5709,-7.5709,-7.5709,-7.5709,-7.5709,-7.5709,-7.5709,-7.5709,-7.5303,-7.5033,-7.5303,-7.324,-7.209,-7.3612,-7.2969,-7.28,-7.4018,-7.5067,-7.5709,-7.5709,-7.5709,-7.5709,-7.5709,-7.5709,-7.5865,-7.6173,-7.7992,-7.9302,-8.0032,-7.99,-7.9432,-7.8456,-7.9271,-7.9938,-8.0255,-8.0255,-8.0225,-8.0032,-7.965,-7.9458,-7.9458,-7.9143,-7.8983,-7.9063,-7.938,-7.9458,-7.9614,-8.0659,-8.1089,-8.1018,-8.0366,-7.965,-7.8857,-6.5783,-6.712,-6.8731,-7.1392,-7.1876,-7.1667,-7.1009,-7.0889,-7.0679,-7.0051,-7.05,-7.041,-6.9153,-7.0141,-7.038,-6.9093,-7.0141,-7.0051,-6.8106,-6.7358,-6.6999,-6.6999,-6.6999,-6.6999,-6.6999,-6.6999,-6.7759,-6.9201,-7.0616,-7.2143,-7.3668,-7.5064,-7.5709,-7.5709,-7.5709,-7.5709,-7.5709,-7.5709,-7.5709,-7.5709,-7.5709,-7.5709,-7.5709,-7.5709,-7.5709,-7.5709,-7.5709,-7.5709,-7.5709,-7.5709,-7.5709,-7.5709,-7.5709,-7.5709,-7.5709,-7.5709,-7.5709,-7.5709,-7.5709,-7.5709,-7.5709,-7.5709,-7.5709,-7.5709,-7.5709,-7.5709,-7.5709,-7.5709,-7.5709,-7.5709,-7.5709,-7.5709,-7.5473,-7.4728,-7.4627,-7.4627,-7.4627,-7.4627,-7.4897,-7.5608,-7.5709,-7.5709,-7.5709,-7.5709,-7.5709,-7.5709,-7.5709,-7.6173,-7.7248,-7.8411,-7.8983,-7.8983,-8.0032,-8.0107,-7.8983,-7.9353,-8.0361,-8.2186,-8.2186,-8.2186,-8.2186,-8.1089,-8.0587,-8.0514,-7.9458,-7.8983,-7.9143,-8.0182,-8.0623,-8.0695,-8.1782,-8.2186,-8.1952,-7.9768,-7.8983,-7.8764,-6.6138,-6.7037,-6.8197,-7.1303,-7.1876,-7.1667,-7.1009,-7.0889,-7.0679,-7.0051,-6.9752,-6.9423,-6.9034,-6.8914,-6.8704,-6.8315,-6.9064,-6.9123,-6.8046,-6.7358,-6.6999,-6.6999,-6.6999,-6.6999,-6.6999,-6.6999,-6.8206,-7.0727,-7.1169,-7.2704,-7.5064,-7.5484,-7.5709,-7.5709,-7.5709,-7.5709,-7.5709,-7.5709,-7.5709,-7.5709,-7.5709,-7.5709,-7.5709,-7.5709,-7.6048,-7.6454,-7.5912,-7.6048,-7.6454,-7.5879,-7.5709,-7.5811,-7.6352,-7.6893,-7.7299,-7.7299,-7.7299,-7.7198,-7.669,-7.6555,-7.642,-7.5845,-7.5709,-7.5709,-7.5709,-7.5709,-7.5709,-7.5709,-7.5709,-7.5709,-7.5709,-7.5709,-7.5642,-7.5405,-7.5371,-7.5371,-7.5371,-7.5371,-7.5439,-7.5676,-7.5709,-7.5709,-7.5709,-7.5709,-7.5709,-7.5709,-7.5709,-7.6173,-7.7248,-7.8411,-7.8659,-7.7822,-7.9614,-7.9691,-7.7822,-7.8655,-7.9817,-8.1089,-8.1089,-8.1474,-8.2186,-8.1885,-8.1715,-8.1715,-8.1368,-8.123,-8.1299,-8.1542,-8.1299,-8.0623,-8.0911,-8.0587,-7.9768,-7.8328,-7.7822,-7.7598,-6.5673,-6.6678,-6.7888,-7.0947,-7.1697,-7.1667,-7.1009,-7.0889,-7.0679,-7.0051,-6.9842,-6.9453,-6.8675,-6.8704,-6.8435,-6.7657,-6.7956,-6.8136,-6.7986,-6.7358,-6.6999,-6.6999,-6.6999,-6.6999,-6.6999,-6.6999,-6.8206,-7.0536,-7.1059,-7.2599,-7.4835,-7.5484,-7.5709,-7.5709,-7.5709,-7.5709,-7.5709,-7.5709,-7.5709,-7.5709,-7.5709,-7.5709,-7.5743,-7.6048,-7.6487,-7.686,-7.669,-7.6724,-7.686,-7.669,-7.6589,-7.6623,-7.6826,-7.7401,-7.7976,-7.7976,-7.7976,-7.7874,-7.7435,-7.7333,-7.7198,-7.6724,-7.6149,-7.5777,-7.6082,-7.5912,-7.5709,-7.5709,-7.5709,-7.5709,-7.5709,-7.5709,-7.5709,-7.5709,-7.5709,-7.5709,-7.5709,-7.5709,-7.5709,-7.5709,-7.5709,-7.5709,-7.5709,-7.5709,-7.5709,-7.5709,-7.5709,-7.6173,-7.7248,-7.7992,-7.7992,-7.7336,-7.8623,-7.8459,-7.6656,-7.7336,-7.8494,-7.9956,-8.0366,-8.0911,-8.1542,-8.2018,-8.2186,-8.2186,-8.2186,-8.2186,-8.2186,-8.2186,-8.1542,-8.0623,-8.0623,-7.9956,-7.8903,-7.7736,-7.7509,-7.7678,-6.4717,-6.6125,-6.7719,-7.0414,-7.1398,-7.1577,-7.0919,-7.0769,-7.05,-6.9871,-7.035,-7.0021,-6.8166,-6.9123,-6.9123,-6.7238,-6.7029,-6.7268,-6.7926,-6.7358,-6.6999,-6.6999,-6.6999,-6.6999,-6.6999,-6.6999,-6.7759,-6.9201,-7.0648,-7.2143,-7.3668,-7.5064,-7.5709,-7.5709,-7.5709,-7.5709,-7.5709,-7.5709,-7.5743,-7.5811,-7.5811,-7.5845,-7.598,-7.6724,-7.7029,-7.7164,-7.7773,-7.7604,-7.7164,-7.7705,-7.7976,-7.7942,-7.7232,-7.7536,-7.8179,-7.8179,-7.8179,-7.8179,-7.8111,-7.8077,-7.8077,-7.8077,-7.6995,-7.6082,-7.6758,-7.6386,-7.5879,-7.5743,-7.5743,-7.5777,-7.5709,-7.5709,-7.5709,-7.5709,-7.5709,-7.5709,-7.5709,-7.5709,-7.5709,-7.5709,-7.5709,-7.5709,-7.5709,-7.5709,-7.5709,-7.5709,-7.5709,-7.6114,-7.7071,-7.7248,-7.7248,-7.716,-7.7248,-7.6747,-7.5709,-7.5709,-7.6781,-7.8822,-7.988,-8.044,-8.0623,-8.1647,-8.2121,-8.2186,-8.2186,-8.2186,-8.2186,-8.2121,-8.1405,-8.044,-8.0366,-7.9614,-7.8577,-7.7563,-7.7678,-7.8292,-6.4553,-6.5822,-6.7383,-7.0325,-7.1009,-7.0919,-7.029,-6.9752,-6.9183,-6.8495,-6.9004,-6.9034,-6.8076,-6.8704,-6.8824,-6.7837,-6.7298,-6.7268,-6.7926,-6.7358,-6.6999,-6.6999,-6.6999,-6.6999,-6.6999,-6.6999,-6.7759,-6.9201,-7.0648,-7.2175,-7.3599,-7.5064,-7.5709,-7.5709,-7.5709,-7.5709,-7.5709,-7.5709,-7.6048,-7.6657,-7.6657,-7.6995,-7.7502,-7.7671,-7.8111,-7.8585,-7.8145,-7.828,-7.8483,-7.7468,-7.7908,-7.872,-7.7976,-7.8653,-7.9701,-7.9701,-7.9701,-7.96,-7.9025,-7.8855,-7.8855,-7.8855,-7.8179,-7.7401,-7.6995,-7.7198,-7.7164,-7.5946,-7.6183,-7.6454,-7.5811,-7.5709,-7.5709,-7.5709,-7.5709,-7.5709,-7.5709,-7.5709,-7.5709,-7.5709,-7.5709,-7.5709,-7.5709,-7.5709,-7.5709,-7.5709,-7.5709,-7.5771,-7.602,-7.6837,-7.6927,-7.6114,-7.6837,-7.6747,-7.5709,-7.5709,-7.6358,-7.765,-7.7907,-7.8867,-8.0623,-8.084,-8.1405,-8.2186,-8.2186,-8.2186,-8.2121,-8.1299,-8.0256,-7.9222,-7.8376,-7.7336,-7.6358,-7.6114,-7.653,-7.7244,-6.4499,-6.5462,-6.6876,-7.0265,-7.0889,-7.0709,-7.0081,-6.9692,-6.9333,-6.8974,-6.9243,-6.9213,-6.8525,-6.8794,-6.8585,-6.7597,-6.7178,-6.7148,-6.7478,-6.7178,-6.6999,-6.6999,-6.6999,-6.6999,-6.6999,-6.7638,-6.8444,-6.9201,-7.0648,-7.2175,-7.3599,-7.5064,-7.5709,-7.5709,-7.5709,-7.5709,-7.5709,-7.5709,-7.6149,-7.6893,-7.6893,-7.7333,-7.801,-7.8382,-7.8754,-7.9092,-7.9058,-7.9295,-7.9397,-7.7908,-7.8416,-7.9498,-7.8754,-7.9295,-8.0209,-8.0209,-7.9938,-7.9667,-7.9634,-7.9397,-7.9194,-7.9532,-7.9329,-7.8855,-7.8111,-7.7705,-7.7232,-7.6454,-7.6623,-7.6758,-7.6352,-7.6284,-7.6284,-7.6284,-7.5946,-7.5709,-7.5709,-7.5709,-7.5709,-7.5709,-7.5709,-7.5709,-7.5709,-7.5709,-7.5709,-7.5709,-7.5709,-7.5709,-7.5709,-7.6266,-7.6266,-7.5709,-7.6266,-7.6266,-7.5709,-7.5709,-7.5926,-7.6508,-7.7071,-7.7907,-7.9028,-7.9614,-8.044,-8.1405,-8.1405,-8.1715,-8.2121,-8.1089,-7.9956,-7.8903,-7.7736,-7.6656,-7.5709,-7.5709,-7.6217,-7.6961,-6.4499,-6.5498,-6.6732,-7.0189,-7.0649,-7.038,-6.9722,-6.9542,-6.9482,-6.9482,-6.9572,-6.9393,-6.8734,-6.8645,-6.8196,-6.7089,-6.6999,-6.6999,-6.6999,-6.6999,-6.6999,-6.6999,-6.6999,-6.6999,-6.6999,-6.8444,-6.9201,-6.9201,-7.0949,-7.2388,-7.3599,-7.5064,-7.5709,-7.5709,-7.5709,-7.5709,-7.5709,-7.5709,-7.6251,-7.7063,-7.6961,-7.7502,-7.8416,-7.8923,-7.9194,-7.9363,-7.9837,-8.0006,-7.9837,-7.8585,-7.9092,-8.0073,-7.9329,-7.9634,-8.0209,-8.0209,-7.9769,-7.9431,-8.004,-7.9769,-7.9431,-8.004,-8.0209,-8.004,-7.9431,-7.8348,-7.7401,-7.713,-7.7198,-7.7232,-7.7096,-7.6995,-7.6893,-7.6893,-7.6217,-7.5709,-7.5709,-7.5709,-7.5709,-7.5709,-7.5709,-7.5709,-7.5709,-7.5709,-7.5709,-7.5709,-7.5709,-7.5709,-7.5709,-7.5709,-7.5709,-7.5709,-7.5709,-7.5709,-7.5709,-7.5709,-7.5709,-7.5709,-7.6599,-7.716,-7.7336,-7.8245,-7.9302,-8.0366,-8.0366,-8.084,-8.1542,-8.0514,-7.965,-7.8903,-7.7563,-7.6599,-7.596,-7.594,-7.6251,-7.6792,-6.4786,-6.651,-6.821,-6.9784,-6.9632,-6.9034,-6.8345,-6.7777,-6.7388,-6.7388,-6.7897,-6.7986,-6.7328,-6.7268,-6.7178,-6.6999,-6.6999,-6.6999,-6.6999,-6.6999,-6.6999,-6.6999,-6.6999,-6.6999,-6.6999,-6.8444,-6.9201,-6.9201,-7.1961,-7.3394,-7.3599,-7.5064,-7.5709,-7.5709,-7.5709,-7.5709,-7.5709,-7.5709,-7.6521,-7.7773,-7.7164,-7.8111,-7.9837,-7.9295,-7.9498,-7.9972,-7.9464,-7.9261,-7.9228,-7.9025,-7.9498,-8.0073,-7.9329,-7.9634,-8.0209,-8.0209,-8.0141,-8.0073,-8.0175,-8.0141,-8.0073,-8.0175,-8.0209,-8.0175,-8.0073,-7.9904,-7.9397,-7.8111,-7.8348,-7.8619,-7.7942,-7.7333,-7.6893,-7.6893,-7.6217,-7.5709,-7.5709,-7.5709,-7.5709,-7.5709,-7.5709,-7.5709,-7.5709,-7.5709,-7.5709,-7.5709,-7.5709,-7.5709,-7.5709,-7.5709,-7.5709,-7.5709,-7.5709,-7.5709,-7.5709,-7.5709,-7.5709,-7.5709,-7.5865,-7.6416,-7.7336,-7.7476,-7.8161,-7.9222,-7.9222,-7.9302,-7.938,-7.821,-7.8245,-7.8822,-7.669,-7.6416,-7.7085,-7.6802,-7.6352,-7.598,-6.623,-6.7222,-6.8015,-6.9734,-6.9453,-6.8764,-6.8076,-6.7717,-6.7537,-6.7537,-6.7777,-6.7867,-6.7567,-6.7208,-6.6999,-6.6999,-6.6999,-6.6999,-6.6999,-6.6999,-6.6999,-6.6999,-6.6999,-6.6999,-6.6999,-6.9201,-7.0424,-7.0424,-7.2599,-7.4005,-7.477,-7.5388,-7.5709,-7.5709,-7.5709,-7.5946,-7.6352,-7.5879,-7.6589,-7.7908,-7.7198,-7.7976,-7.9566,-7.9228,-7.9566,-8.0175,-7.9837,-7.9735,-7.9735,-7.9735,-7.9938,-8.0141,-7.9837,-7.9938,-8.0209,-8.0209,-7.9904,-7.9667,-8.0073,-7.9904,-7.9701,-8.0107,-8.0209,-8.0209,-8.0209,-8.0209,-7.9904,-7.8822,-7.8889,-7.9025,-7.8686,-7.8348,-7.801,-7.757,-7.686,-7.6217,-7.5743,-7.5709,-7.5709,-7.5709,-7.5709,-7.5709,-7.5709,-7.5709,-7.5709,-7.5709,-7.5709,-7.5709,-7.5709,-7.5709,-7.5709,-7.5709,-7.5709,-7.5709,-7.5709,-7.5709,-7.602,-7.6599,-7.602,-7.6266,-7.7248,-7.669,-7.7336,-7.8983,-7.8328,-7.8411,-7.8903,-7.7736,-7.7563,-7.7907,-7.6358,-7.602,-7.6461,-7.6781,-7.6386,-7.5811]}]]